Wetterdaten: Samstag, 11.06.2016
Datum Zeit Temp. A. Feuchte A. Luftdruck Regen Wind Richtung Richtung Sonnenschein ET UV Solar Taupunkt Windchill Windben Empfang
11.06.2016 00:00 14,4 C 84 % 1009,3 hPa 0,0 l/m 4,5 km/h (1 Bft) S 177 0 min 0,000 mm 0,0 UV-I 0 W/m 11,7 C 14,4 C 6,4 km/h (2 Bft) 100,00 %
11.06.2016 00:02 14,4 C 84 % 1009,2 hPa 0,0 l/m 5,9 km/h (2 Bft) S-SW 205 0 min 0,000 mm 0,0 UV-I 0 W/m 11,7 C 14,4 C 8,0 km/h (2 Bft) 95,24 %
11.06.2016 00:03 14,4 C 84 % 1009,3 hPa 0,0 l/m 5,3 km/h (1 Bft) S 173 0 min 0,000 mm 0,0 UV-I 0 W/m 11,7 C 14,4 C 9,7 km/h (2 Bft) 100,00 %
11.06.2016 00:04 14,4 C 84 % 1009,3 hPa 0,0 l/m 6,6 km/h (2 Bft) S-SW 198 0 min 0,000 mm 0,0 UV-I 0 W/m 11,7 C 14,3 C 8,0 km/h (2 Bft) 100,00 %
11.06.2016 00:05 14,4 C 84 % 1009,2 hPa 0,0 l/m 5,8 km/h (2 Bft) S-SW 202 0 min 0,000 mm 0,0 UV-I 0 W/m 11,7 C 14,4 C 8,0 km/h (2 Bft) 100,00 %
11.06.2016 00:06 14,4 C 84 % 1009,2 hPa 0,0 l/m 6,1 km/h (2 Bft) S 187 0 min 0,000 mm 0,0 UV-I 0 W/m 11,7 C 14,4 C 9,7 km/h (2 Bft) 95,65 %
11.06.2016 00:07 14,4 C 84 % 1009,3 hPa 0,0 l/m 7,3 km/h (2 Bft) S-SW 193 0 min 0,000 mm 0,0 UV-I 0 W/m 11,7 C 13,9 C 8,0 km/h (2 Bft) 96,67 %
11.06.2016 00:08 14,4 C 84 % 1009,2 hPa 0,0 l/m 7,1 km/h (2 Bft) S-SW 192 0 min 0,000 mm 0,0 UV-I 0 W/m 11,7 C 14,0 C 9,7 km/h (2 Bft) 96,15 %
11.06.2016 00:09 14,4 C 84 % 1009,2 hPa 0,0 l/m 6,3 km/h (2 Bft) S 182 0 min 0,000 mm 0,0 UV-I 0 W/m 11,7 C 14,4 C 9,7 km/h (2 Bft) 100,00 %
11.06.2016 00:10 14,4 C 84 % 1009,2 hPa 0,0 l/m 5,8 km/h (2 Bft) S 173 0 min 0,000 mm 0,0 UV-I 0 W/m 11,7 C 14,4 C 8,0 km/h (2 Bft) 100,00 %
11.06.2016 00:11 14,5 C 84 % 1009,2 hPa 0,0 l/m 5,1 km/h (1 Bft) S 178 0 min 0,000 mm 0,0 UV-I 0 W/m 11,8 C 14,5 C 8,0 km/h (2 Bft) 100,00 %
11.06.2016 00:12 14,5 C 84 % 1009,2 hPa 0,0 l/m 5,8 km/h (2 Bft) S 181 0 min 0,000 mm 0,0 UV-I 0 W/m 11,8 C 14,5 C 8,0 km/h (2 Bft) 100,00 %
11.06.2016 00:13 14,5 C 84 % 1009,2 hPa 0,0 l/m 5,0 km/h (1 Bft) S 189 0 min 0,000 mm 0,0 UV-I 0 W/m 11,8 C 14,5 C 6,4 km/h (2 Bft) 100,00 %
11.06.2016 00:14 14,5 C 84 % 1009,2 hPa 0,0 l/m 3,8 km/h (1 Bft) S 183 0 min 0,000 mm 0,0 UV-I 0 W/m 11,8 C 14,5 C 6,4 km/h (2 Bft) 100,00 %
11.06.2016 00:15 14,5 C 84 % 1009,2 hPa 0,0 l/m 5,0 km/h (1 Bft) S 183 0 min 0,000 mm 0,0 UV-I 0 W/m 11,8 C 14,5 C 6,4 km/h (2 Bft) 100,00 %
11.06.2016 00:16 14,5 C 84 % 1009,2 hPa 0,0 l/m 4,1 km/h (1 Bft) S 181 0 min 0,000 mm 0,0 UV-I 0 W/m 11,8 C 14,5 C 6,4 km/h (2 Bft) 100,00 %
11.06.2016 00:17 14,5 C 84 % 1009,2 hPa 0,0 l/m 3,2 km/h (1 Bft) S 181 0 min 0,000 mm 0,0 UV-I 0 W/m 11,8 C 14,5 C 4,8 km/h (1 Bft) 100,00 %
11.06.2016 00:18 14,5 C 84 % 1009,2 hPa 0,0 l/m 3,6 km/h (1 Bft) S 181 0 min 0,000 mm 0,0 UV-I 0 W/m 11,8 C 14,5 C 4,8 km/h (1 Bft) 100,00 %
11.06.2016 00:19 14,5 C 84 % 1009,2 hPa 0,0 l/m 2,0 km/h (1 Bft) S 181 0 min 0,000 mm 0,0 UV-I 0 W/m 11,8 C 14,5 C 3,2 km/h (1 Bft) 100,00 %
11.06.2016 00:20 14,5 C 84 % 1009,2 hPa 0,0 l/m 3,9 km/h (1 Bft) S 182 0 min 0,000 mm 0,0 UV-I 0 W/m 11,8 C 14,5 C 6,4 km/h (2 Bft) 100,00 %
11.06.2016 00:21 14,5 C 84 % 1009,2 hPa 0,0 l/m 4,3 km/h (1 Bft) S 182 0 min 0,000 mm 0,0 UV-I 0 W/m 11,8 C 14,5 C 6,4 km/h (2 Bft) 100,00 %
11.06.2016 00:22 14,5 C 84 % 1009,2 hPa 0,0 l/m 3,6 km/h (1 Bft) S 182 0 min 0,000 mm 0,0 UV-I 0 W/m 11,8 C 14,5 C 4,8 km/h (1 Bft) 100,00 %
11.06.2016 00:23 14,5 C 84 % 1009,2 hPa 0,0 l/m 3,7 km/h (1 Bft) S 181 0 min 0,000 mm 0,0 UV-I 0 W/m 11,8 C 14,5 C 4,8 km/h (1 Bft) 100,00 %
11.06.2016 00:24 14,4 C 84 % 1009,2 hPa 0,0 l/m 3,8 km/h (1 Bft) S-SO 167 0 min 0,000 mm 0,0 UV-I 0 W/m 11,7 C 14,4 C 6,4 km/h (2 Bft) 100,00 %
11.06.2016 00:25 14,4 C 84 % 1009,2 hPa 0,0 l/m 4,6 km/h (1 Bft) S-SO 167 0 min 0,000 mm 0,0 UV-I 0 W/m 11,7 C 14,4 C 6,4 km/h (2 Bft) 100,00 %
11.06.2016 00:26 14,5 C 84 % 1009,2 hPa 0,0 l/m 4,3 km/h (1 Bft) S-SO 166 0 min 0,000 mm 0,0 UV-I 0 W/m 11,8 C 14,5 C 6,4 km/h (2 Bft) 100,00 %
11.06.2016 00:27 14,5 C 84 % 1009,2 hPa 0,0 l/m 4,3 km/h (1 Bft) S-SO 166 0 min 0,000 mm 0,0 UV-I 0 W/m 11,8 C 14,5 C 6,4 km/h (2 Bft) 95,65 %
11.06.2016 00:28 14,5 C 84 % 1009,2 hPa 0,0 l/m 5,0 km/h (1 Bft) S-SO 168 0 min 0,000 mm 0,0 UV-I 0 W/m 11,8 C 14,5 C 6,4 km/h (2 Bft) 100,00 %
11.06.2016 00:29 14,4 C 84 % 1009,2 hPa 0,0 l/m 3,8 km/h (1 Bft) S-SO 168 0 min 0,000 mm 0,0 UV-I 0 W/m 11,7 C 14,4 C 6,4 km/h (2 Bft) 100,00 %
11.06.2016 00:30 14,4 C 84 % 1009,2 hPa 0,0 l/m 3,1 km/h (1 Bft) S-SO 168 0 min 0,000 mm 0,0 UV-I 0 W/m 11,7 C 14,4 C 6,4 km/h (2 Bft) 100,00 %
11.06.2016 00:31 14,4 C 84 % 1009,2 hPa 0,0 l/m 5,5 km/h (1 Bft) S-SO 168 0 min 0,000 mm 0,0 UV-I 0 W/m 11,7 C 14,4 C 6,4 km/h (2 Bft) 100,00 %
11.06.2016 00:32 14,3 C 84 % 1009,2 hPa 0,0 l/m 4,6 km/h (1 Bft) S-SO 168 0 min 0,000 mm 0,0 UV-I 0 W/m 11,6 C 14,3 C 6,4 km/h (2 Bft) 100,00 %
11.06.2016 00:33 14,3 C 84 % 1009,2 hPa 0,0 l/m 3,2 km/h (1 Bft) S-SO 167 0 min 0,000 mm 0,0 UV-I 0 W/m 11,6 C 14,3 C 6,4 km/h (2 Bft) 100,00 %
11.06.2016 00:34 14,3 C 84 % 1009,2 hPa 0,0 l/m 5,2 km/h (1 Bft) S 170 0 min 0,000 mm 0,0 UV-I 0 W/m 11,6 C 14,3 C 8,0 km/h (2 Bft) 100,00 %
11.06.2016 00:35 14,3 C 85 % 1009,2 hPa 0,0 l/m 5,2 km/h (1 Bft) S 173 0 min 0,000 mm 0,0 UV-I 0 W/m 11,8 C 14,3 C 8,0 km/h (2 Bft) 100,00 %
11.06.2016 00:36 14,3 C 84 % 1009,2 hPa 0,0 l/m 6,0 km/h (2 Bft) S-SO 167 0 min 0,000 mm 0,0 UV-I 0 W/m 11,6 C 14,3 C 9,7 km/h (2 Bft) 100,00 %
11.06.2016 00:37 14,3 C 84 % 1009,2 hPa 0,0 l/m 6,3 km/h (2 Bft) S 171 0 min 0,000 mm 0,0 UV-I 0 W/m 11,6 C 14,3 C 9,7 km/h (2 Bft) 100,00 %
11.06.2016 00:38 14,3 C 84 % 1009,1 hPa 0,0 l/m 7,1 km/h (2 Bft) S-SO 167 0 min 0,000 mm 0,0 UV-I 0 W/m 11,6 C 13,9 C 9,7 km/h (2 Bft) 100,00 %
11.06.2016 00:39 14,3 C 84 % 1009,2 hPa 0,0 l/m 7,4 km/h (2 Bft) S 186 0 min 0,000 mm 0,0 UV-I 0 W/m 11,6 C 13,7 C 9,7 km/h (2 Bft) 91,67 %
11.06.2016 00:40 14,3 C 84 % 1009,2 hPa 0,0 l/m 8,5 km/h (2 Bft) S-SO 163 0 min 0,000 mm 0,0 UV-I 0 W/m 11,6 C 13,1 C 11,3 km/h (2 Bft) 100,00 %
11.06.2016 00:41 14,3 C 84 % 1009,2 hPa 0,0 l/m 6,6 km/h (2 Bft) S 174 0 min 0,000 mm 0,0 UV-I 0 W/m 11,6 C 14,2 C 9,7 km/h (2 Bft) 100,00 %
11.06.2016 00:42 14,3 C 84 % 1009,2 hPa 0,0 l/m 7,7 km/h (2 Bft) S 175 0 min 0,000 mm 0,0 UV-I 0 W/m 11,6 C 13,5 C 14,5 km/h (3 Bft) 100,00 %
11.06.2016 00:43 14,3 C 84 % 1009,1 hPa 0,0 l/m 6,2 km/h (2 Bft) S-SW 192 0 min 0,000 mm 0,0 UV-I 0 W/m 11,6 C 14,3 C 8,0 km/h (2 Bft) 100,00 %
11.06.2016 00:44 14,3 C 84 % 1009,1 hPa 0,0 l/m 6,4 km/h (2 Bft) S-SO 163 0 min 0,000 mm 0,0 UV-I 0 W/m 11,6 C 14,3 C 9,7 km/h (2 Bft) 100,00 %
11.06.2016 00:45 14,3 C 84 % 1009,1 hPa 0,0 l/m 5,3 km/h (1 Bft) S 186 0 min 0,000 mm 0,0 UV-I 0 W/m 11,6 C 14,3 C 8,0 km/h (2 Bft) 100,00 %
11.06.2016 00:46 14,3 C 84 % 1009,1 hPa 0,0 l/m 6,1 km/h (2 Bft) S-SW 192 0 min 0,000 mm 0,0 UV-I 0 W/m 11,6 C 14,3 C 9,7 km/h (2 Bft) 100,00 %
11.06.2016 00:47 14,2 C 84 % 1009,1 hPa 0,0 l/m 6,8 km/h (2 Bft) S-SO 161 0 min 0,000 mm 0,0 UV-I 0 W/m 11,5 C 14,0 C 9,7 km/h (2 Bft) 100,00 %
11.06.2016 00:48 14,2 C 84 % 1009,1 hPa 0,0 l/m 5,9 km/h (2 Bft) S 181 0 min 0,000 mm 0,0 UV-I 0 W/m 11,5 C 14,2 C 8,0 km/h (2 Bft) 100,00 %
11.06.2016 00:49 14,2 C 84 % 1009,1 hPa 0,0 l/m 6,4 km/h (2 Bft) S-SO 162 0 min 0,000 mm 0,0 UV-I 0 W/m 11,5 C 14,2 C 9,7 km/h (2 Bft) 95,83 %
11.06.2016 00:50 14,2 C 84 % 1009,1 hPa 0,0 l/m 5,7 km/h (1 Bft) S-SW 193 0 min 0,000 mm 0,0 UV-I 0 W/m 11,5 C 14,2 C 6,4 km/h (2 Bft) 100,00 %
11.06.2016 00:51 14,1 C 84 % 1009,1 hPa 0,0 l/m 4,8 km/h (1 Bft) S-SW 194 0 min 0,000 mm 0,0 UV-I 0 W/m 11,4 C 14,1 C 6,4 km/h (2 Bft) 100,00 %
11.06.2016 00:52 14,1 C 84 % 1009,1 hPa 0,0 l/m 4,8 km/h (1 Bft) S 185 0 min 0,000 mm 0,0 UV-I 0 W/m 11,4 C 14,1 C 6,4 km/h (2 Bft) 100,00 %
11.06.2016 00:53 14,1 C 84 % 1009,1 hPa 0,0 l/m 6,1 km/h (2 Bft) S 178 0 min 0,000 mm 0,0 UV-I 0 W/m 11,4 C 14,1 C 8,0 km/h (2 Bft) 100,00 %
11.06.2016 00:54 14,1 C 84 % 1009,1 hPa 0,0 l/m 5,9 km/h (2 Bft) S 179 0 min 0,000 mm 0,0 UV-I 0 W/m 11,4 C 14,1 C 8,0 km/h (2 Bft) 100,00 %
11.06.2016 00:55 14,1 C 84 % 1009,1 hPa 0,0 l/m 7,2 km/h (2 Bft) S 190 0 min 0,000 mm 0,0 UV-I 0 W/m 11,4 C 13,6 C 9,7 km/h (2 Bft) 100,00 %
11.06.2016 00:56 14,1 C 84 % 1009,1 hPa 0,0 l/m 6,0 km/h (2 Bft) S 182 0 min 0,000 mm 0,0 UV-I 0 W/m 11,4 C 14,1 C 8,0 km/h (2 Bft) 100,00 %
11.06.2016 00:57 14,1 C 84 % 1009,1 hPa 0,0 l/m 6,2 km/h (2 Bft) S 172 0 min 0,000 mm 0,0 UV-I 0 W/m 11,4 C 14,1 C 9,7 km/h (2 Bft) 95,65 %
11.06.2016 00:58 14,1 C 84 % 1009,1 hPa 0,0 l/m 7,1 km/h (2 Bft) S 188 0 min 0,000 mm 0,0 UV-I 0 W/m 11,4 C 13,7 C 9,7 km/h (2 Bft) 100,00 %
11.06.2016 00:59 14,1 C 84 % 1009,0 hPa 0,0 l/m 6,2 km/h (2 Bft) S 183 0 min 0,000 mm 0,0 UV-I 0 W/m 11,4 C 14,1 C 8,0 km/h (2 Bft) 95,65 %
11.06.2016 01:00 14,1 C 84 % 1009,0 hPa 0,0 l/m 5,1 km/h (1 Bft) S 178 0 min 0,000 mm 0,0 UV-I 0 W/m 11,4 C 14,1 C 6,4 km/h (2 Bft) 100,00 %
11.06.2016 01:01 14,1 C 84 % 1009,0 hPa 0,0 l/m 5,4 km/h (1 Bft) S 184 0 min 0,025 mm 0,0 UV-I 0 W/m 11,4 C 14,1 C 8,0 km/h (2 Bft) 100,00 %
11.06.2016 01:02 14,1 C 84 % 1009,0 hPa 0,0 l/m 5,0 km/h (1 Bft) S 184 0 min 0,000 mm 0,0 UV-I 0 W/m 11,4 C 14,1 C 6,4 km/h (2 Bft) 100,00 %
11.06.2016 01:03 14,1 C 84 % 1009,0 hPa 0,0 l/m 4,4 km/h (1 Bft) S 177 0 min 0,000 mm 0,0 UV-I 0 W/m 11,4 C 14,1 C 6,4 km/h (2 Bft) 100,00 %
11.06.2016 01:04 14,0 C 84 % 1009,0 hPa 0,0 l/m 6,3 km/h (2 Bft) S 181 0 min 0,000 mm 0,0 UV-I 0 W/m 11,3 C 14,0 C 9,7 km/h (2 Bft) 100,00 %
11.06.2016 01:05 14,0 C 84 % 1009,0 hPa 0,0 l/m 6,1 km/h (2 Bft) S 186 0 min 0,000 mm 0,0 UV-I 0 W/m 11,3 C 14,0 C 8,0 km/h (2 Bft) 100,00 %
11.06.2016 01:06 13,9 C 84 % 1009,0 hPa 0,0 l/m 6,4 km/h (2 Bft) S 180 0 min 0,000 mm 0,0 UV-I 0 W/m 11,2 C 13,9 C 9,7 km/h (2 Bft) 100,00 %
11.06.2016 01:07 13,9 C 84 % 1009,0 hPa 0,0 l/m 5,8 km/h (2 Bft) S 177 0 min 0,000 mm 0,0 UV-I 0 W/m 11,2 C 13,9 C 8,0 km/h (2 Bft) 100,00 %
11.06.2016 01:08 13,9 C 84 % 1009,0 hPa 0,0 l/m 5,6 km/h (1 Bft) S 169 0 min 0,000 mm 0,0 UV-I 0 W/m 11,2 C 13,9 C 9,7 km/h (2 Bft) 100,00 %
11.06.2016 01:09 13,9 C 84 % 1009,0 hPa 0,0 l/m 5,8 km/h (2 Bft) S 178 0 min 0,000 mm 0,0 UV-I 0 W/m 11,2 C 13,9 C 9,7 km/h (2 Bft) 95,65 %
11.06.2016 01:10 13,9 C 84 % 1009,0 hPa 0,0 l/m 6,1 km/h (2 Bft) S 184 0 min 0,000 mm 0,0 UV-I 0 W/m 11,2 C 13,9 C 9,7 km/h (2 Bft) 100,00 %
11.06.2016 01:11 13,9 C 84 % 1009,0 hPa 0,0 l/m 5,3 km/h (1 Bft) S 188 0 min 0,000 mm 0,0 UV-I 0 W/m 11,2 C 13,9 C 8,0 km/h (2 Bft) 100,00 %
11.06.2016 01:12 13,9 C 84 % 1009,0 hPa 0,0 l/m 6,6 km/h (2 Bft) S 171 0 min 0,000 mm 0,0 UV-I 0 W/m 11,2 C 13,8 C 11,3 km/h (2 Bft) 100,00 %
11.06.2016 01:13 13,9 C 84 % 1009,0 hPa 0,0 l/m 6,5 km/h (2 Bft) S 180 0 min 0,000 mm 0,0 UV-I 0 W/m 11,2 C 13,9 C 11,3 km/h (2 Bft) 100,00 %
11.06.2016 01:14 13,9 C 84 % 1009,0 hPa 0,0 l/m 6,8 km/h (2 Bft) S 182 0 min 0,000 mm 0,0 UV-I 0 W/m 11,2 C 13,7 C 9,7 km/h (2 Bft) 100,00 %
11.06.2016 01:15 13,9 C 84 % 1009,0 hPa 0,0 l/m 7,0 km/h (2 Bft) S-SW 195 0 min 0,000 mm 0,0 UV-I 0 W/m 11,2 C 13,5 C 9,7 km/h (2 Bft) 100,00 %
11.06.2016 01:16 13,9 C 84 % 1009,0 hPa 0,0 l/m 6,4 km/h (2 Bft) S-SW 196 0 min 0,000 mm 0,0 UV-I 0 W/m 11,2 C 13,9 C 9,7 km/h (2 Bft) 100,00 %
11.06.2016 01:17 13,9 C 84 % 1009,0 hPa 0,0 l/m 5,8 km/h (2 Bft) S-SW 205 0 min 0,000 mm 0,0 UV-I 0 W/m 11,2 C 13,9 C 8,0 km/h (2 Bft) 100,00 %
11.06.2016 01:18 13,8 C 84 % 1009,0 hPa 0,0 l/m 4,9 km/h (1 Bft) S 181 0 min 0,000 mm 0,0 UV-I 0 W/m 11,1 C 13,8 C 6,4 km/h (2 Bft) 100,00 %
11.06.2016 01:19 13,8 C 84 % 1009,0 hPa 0,0 l/m 4,2 km/h (1 Bft) S 188 0 min 0,000 mm 0,0 UV-I 0 W/m 11,1 C 13,8 C 6,4 km/h (2 Bft) 100,00 %
11.06.2016 01:20 13,8 C 84 % 1009,0 hPa 0,0 l/m 5,2 km/h (1 Bft) S 184 0 min 0,000 mm 0,0 UV-I 0 W/m 11,1 C 13,8 C 6,4 km/h (2 Bft) 95,65 %
11.06.2016 01:21 13,8 C 84 % 1009,0 hPa 0,0 l/m 5,4 km/h (1 Bft) S 179 0 min 0,000 mm 0,0 UV-I 0 W/m 11,1 C 13,8 C 8,0 km/h (2 Bft) 95,83 %
11.06.2016 01:22 13,8 C 84 % 1009,0 hPa 0,0 l/m 5,5 km/h (1 Bft) S 187 0 min 0,000 mm 0,0 UV-I 0 W/m 11,1 C 13,8 C 8,0 km/h (2 Bft) 100,00 %
11.06.2016 01:23 13,8 C 84 % 1009,0 hPa 0,0 l/m 4,7 km/h (1 Bft) S 177 0 min 0,000 mm 0,0 UV-I 0 W/m 11,1 C 13,8 C 4,8 km/h (1 Bft) 95,83 %
11.06.2016 01:24 13,7 C 84 % 1008,9 hPa 0,0 l/m 5,4 km/h (1 Bft) S 184 0 min 0,000 mm 0,0 UV-I 0 W/m 11,0 C 13,7 C 8,0 km/h (2 Bft) 95,65 %
11.06.2016 01:25 13,7 C 85 % 1008,9 hPa 0,0 l/m 4,8 km/h (1 Bft) S 185 0 min 0,000 mm 0,0 UV-I 0 W/m 11,2 C 13,7 C 6,4 km/h (2 Bft) 95,83 %
11.06.2016 01:26 13,7 C 85 % 1008,9 hPa 0,0 l/m 3,8 km/h (1 Bft) S 186 0 min 0,000 mm 0,0 UV-I 0 W/m 11,2 C 13,7 C 4,8 km/h (1 Bft) 100,00 %
11.06.2016 01:27 13,7 C 85 % 1008,9 hPa 0,0 l/m 3,8 km/h (1 Bft) S 186 0 min 0,000 mm 0,0 UV-I 0 W/m 11,2 C 13,7 C 4,8 km/h (1 Bft) 95,83 %
11.06.2016 01:28 13,7 C 85 % 1008,9 hPa 0,0 l/m 3,6 km/h (1 Bft) S-SW 194 0 min 0,000 mm 0,0 UV-I 0 W/m 11,2 C 13,7 C 4,8 km/h (1 Bft) 95,65 %
11.06.2016 01:29 13,7 C 85 % 1008,9 hPa 0,0 l/m 4,1 km/h (1 Bft) S-SW 196 0 min 0,000 mm 0,0 UV-I 0 W/m 11,2 C 13,7 C 6,4 km/h (2 Bft) 100,00 %
11.06.2016 01:30 13,6 C 85 % 1008,9 hPa 0,0 l/m 3,8 km/h (1 Bft) S-SW 196 0 min 0,000 mm 0,0 UV-I 0 W/m 11,1 C 13,6 C 4,8 km/h (1 Bft) 95,65 %
11.06.2016 01:31 13,6 C 85 % 1008,8 hPa 0,0 l/m 5,5 km/h (1 Bft) S-SW 192 0 min 0,000 mm 0,0 UV-I 0 W/m 11,1 C 13,6 C 6,4 km/h (2 Bft) 100,00 %
11.06.2016 01:32 13,6 C 85 % 1008,9 hPa 0,0 l/m 5,1 km/h (1 Bft) S 187 0 min 0,000 mm 0,0 UV-I 0 W/m 11,1 C 13,6 C 6,4 km/h (2 Bft) 95,83 %
11.06.2016 01:33 13,5 C 86 % 1008,9 hPa 0,0 l/m 4,9 km/h (1 Bft) S 188 0 min 0,000 mm 0,0 UV-I 0 W/m 11,2 C 13,5 C 6,4 km/h (2 Bft) 100,00 %
11.06.2016 01:34 13,5 C 86 % 1008,8 hPa 0,0 l/m 6,4 km/h (2 Bft) S 188 0 min 0,000 mm 0,0 UV-I 0 W/m 11,2 C 13,5 C 8,0 km/h (2 Bft) 93,33 %
11.06.2016 01:35 13,4 C 86 % 1008,9 hPa 0,0 l/m 5,7 km/h (1 Bft) S-SW 195 0 min 0,000 mm 0,0 UV-I 0 W/m 11,1 C 13,4 C 6,4 km/h (2 Bft) 100,00 %
11.06.2016 01:36 13,4 C 86 % 1008,9 hPa 0,0 l/m 6,2 km/h (2 Bft) S 189 0 min 0,000 mm 0,0 UV-I 0 W/m 11,1 C 13,4 C 9,7 km/h (2 Bft) 95,83 %
11.06.2016 01:37 13,4 C 86 % 1008,8 hPa 0,0 l/m 6,2 km/h (2 Bft) S 178 0 min 0,000 mm 0,0 UV-I 0 W/m 11,1 C 13,4 C 8,0 km/h (2 Bft) 100,00 %
11.06.2016 01:38 13,4 C 86 % 1008,9 hPa 0,0 l/m 5,6 km/h (1 Bft) S 189 0 min 0,000 mm 0,0 UV-I 0 W/m 11,1 C 13,4 C 8,0 km/h (2 Bft) 95,83 %
11.06.2016 01:39 13,4 C 86 % 1008,9 hPa 0,0 l/m 6,2 km/h (2 Bft) S 169 0 min 0,000 mm 0,0 UV-I 0 W/m 11,1 C 13,4 C 8,0 km/h (2 Bft) 95,65 %
11.06.2016 01:40 13,4 C 86 % 1008,9 hPa 0,0 l/m 6,2 km/h (2 Bft) S 183 0 min 0,000 mm 0,0 UV-I 0 W/m 11,1 C 13,4 C 9,7 km/h (2 Bft) 100,00 %
11.06.2016 01:41 13,4 C 85 % 1008,9 hPa 0,0 l/m 5,8 km/h (2 Bft) S-SW 203 0 min 0,000 mm 0,0 UV-I 0 W/m 10,9 C 13,4 C 8,0 km/h (2 Bft) 95,65 %
11.06.2016 01:42 13,4 C 86 % 1008,9 hPa 0,0 l/m 5,6 km/h (1 Bft) S-SW 198 0 min 0,000 mm 0,0 UV-I 0 W/m 11,1 C 13,4 C 6,4 km/h (2 Bft) 100,00 %
11.06.2016 01:43 13,4 C 85 % 1008,9 hPa 0,0 l/m 4,2 km/h (1 Bft) S-SW 198 0 min 0,000 mm 0,0 UV-I 0 W/m 10,9 C 13,4 C 4,8 km/h (1 Bft) 95,65 %
11.06.2016 01:44 13,4 C 85 % 1008,9 hPa 0,0 l/m 5,7 km/h (1 Bft) S 186 0 min 0,000 mm 0,0 UV-I 0 W/m 10,9 C 13,4 C 6,4 km/h (2 Bft) 100,00 %
11.06.2016 01:45 13,4 C 85 % 1008,8 hPa 0,0 l/m 4,3 km/h (1 Bft) S-SW 195 0 min 0,000 mm 0,0 UV-I 0 W/m 10,9 C 13,4 C 6,4 km/h (2 Bft) 96,15 %
11.06.2016 01:46 13,4 C 85 % 1008,8 hPa 0,0 l/m 4,9 km/h (1 Bft) S 184 0 min 0,000 mm 0,0 UV-I 0 W/m 10,9 C 13,4 C 6,4 km/h (2 Bft) 95,83 %
11.06.2016 01:47 13,4 C 85 % 1008,9 hPa 0,0 l/m 6,1 km/h (2 Bft) S-SW 212 0 min 0,000 mm 0,0 UV-I 0 W/m 10,9 C 13,4 C 9,7 km/h (2 Bft) 95,65 %
11.06.2016 01:48 13,4 C 85 % 1008,8 hPa 0,0 l/m 3,6 km/h (1 Bft) S-SW 193 0 min 0,000 mm 0,0 UV-I 0 W/m 10,9 C 13,4 C 4,8 km/h (1 Bft) 95,83 %
11.06.2016 01:49 13,4 C 85 % 1008,8 hPa 0,0 l/m 5,3 km/h (1 Bft) SW 215 0 min 0,000 mm 0,0 UV-I 0 W/m 10,9 C 13,4 C 8,0 km/h (2 Bft) 100,00 %
11.06.2016 01:50 13,4 C 85 % 1008,8 hPa 0,0 l/m 4,5 km/h (1 Bft) S-SW 200 0 min 0,000 mm 0,0 UV-I 0 W/m 10,9 C 13,4 C 6,4 km/h (2 Bft) 95,83 %
11.06.2016 01:51 13,3 C 86 % 1008,8 hPa 0,0 l/m 4,1 km/h (1 Bft) S-SW 205 0 min 0,000 mm 0,0 UV-I 0 W/m 11,0 C 13,3 C 6,4 km/h (2 Bft) 100,00 %
11.06.2016 01:52 13,3 C 86 % 1008,8 hPa 0,0 l/m 5,6 km/h (1 Bft) S-SW 206 0 min 0,000 mm 0,0 UV-I 0 W/m 11,0 C 13,3 C 6,4 km/h (2 Bft) 96,15 %
11.06.2016 01:53 13,3 C 86 % 1008,8 hPa 0,0 l/m 4,7 km/h (1 Bft) S-SW 207 0 min 0,000 mm 0,0 UV-I 0 W/m 11,0 C 13,3 C 6,4 km/h (2 Bft) 95,65 %
11.06.2016 01:54 13,3 C 86 % 1008,8 hPa 0,0 l/m 5,4 km/h (1 Bft) S-SW 198 0 min 0,000 mm 0,0 UV-I 0 W/m 11,0 C 13,3 C 6,4 km/h (2 Bft) 95,83 %
11.06.2016 01:55 13,3 C 86 % 1008,8 hPa 0,0 l/m 4,1 km/h (1 Bft) S-SW 205 0 min 0,000 mm 0,0 UV-I 0 W/m 11,0 C 13,3 C 6,4 km/h (2 Bft) 100,00 %
11.06.2016 01:56 13,3 C 86 % 1008,8 hPa 0,0 l/m 3,8 km/h (1 Bft) S-SW 206 0 min 0,000 mm 0,0 UV-I 0 W/m 11,0 C 13,3 C 4,8 km/h (1 Bft) 96,67 %
11.06.2016 01:57 13,2 C 86 % 1008,7 hPa 0,0 l/m 4,6 km/h (1 Bft) S 184 0 min 0,000 mm 0,0 UV-I 0 W/m 10,9 C 13,2 C 6,4 km/h (2 Bft) 100,00 %
11.06.2016 01:58 13,2 C 86 % 1008,8 hPa 0,0 l/m 4,5 km/h (1 Bft) S-SW 194 0 min 0,000 mm 0,0 UV-I 0 W/m 10,9 C 13,2 C 6,4 km/h (2 Bft) 100,00 %
11.06.2016 01:59 13,2 C 86 % 1008,8 hPa 0,0 l/m 4,2 km/h (1 Bft) S-SW 197 0 min 0,000 mm 0,0 UV-I 0 W/m 10,9 C 13,2 C 6,4 km/h (2 Bft) 100,00 %
11.06.2016 02:00 13,2 C 86 % 1008,7 hPa 0,0 l/m 3,6 km/h (1 Bft) S-SW 200 0 min 0,000 mm 0,0 UV-I 0 W/m 10,9 C 13,2 C 4,8 km/h (1 Bft) 100,00 %
11.06.2016 02:01 13,2 C 86 % 1008,7 hPa 0,0 l/m 3,7 km/h (1 Bft) S-SW 206 0 min 0,000 mm 0,0 UV-I 0 W/m 10,9 C 13,2 C 6,4 km/h (2 Bft) 100,00 %
11.06.2016 02:02 13,2 C 86 % 1008,8 hPa 0,0 l/m 2,8 km/h (1 Bft) S-SW 202 0 min 0,000 mm 0,0 UV-I 0 W/m 10,9 C 13,2 C 3,2 km/h (1 Bft) 100,00 %
11.06.2016 02:03 13,2 C 86 % 1008,7 hPa 0,0 l/m 4,0 km/h (1 Bft) S-SW 202 0 min 0,000 mm 0,0 UV-I 0 W/m 10,9 C 13,2 C 4,8 km/h (1 Bft) 96,30 %
11.06.2016 02:04 13,1 C 86 % 1008,7 hPa 0,0 l/m 3,7 km/h (1 Bft) S-SW 202 0 min 0,000 mm 0,0 UV-I 0 W/m 10,8 C 13,1 C 4,8 km/h (1 Bft) 100,00 %
11.06.2016 02:05 13,2 C 86 % 1008,7 hPa 0,0 l/m 4,7 km/h (1 Bft) S 185 0 min 0,000 mm 0,0 UV-I 0 W/m 10,9 C 13,2 C 6,4 km/h (2 Bft) 100,00 %
11.06.2016 02:06 13,1 C 86 % 1008,8 hPa 0,0 l/m 3,8 km/h (1 Bft) S 187 0 min 0,000 mm 0,0 UV-I 0 W/m 10,8 C 13,1 C 4,8 km/h (1 Bft) 100,00 %
11.06.2016 02:07 13,1 C 86 % 1008,8 hPa 0,0 l/m 3,5 km/h (1 Bft) S 187 0 min 0,000 mm 0,0 UV-I 0 W/m 10,8 C 13,1 C 4,8 km/h (1 Bft) 100,00 %
11.06.2016 02:08 13,1 C 86 % 1008,8 hPa 0,0 l/m 3,2 km/h (1 Bft) S 187 0 min 0,000 mm 0,0 UV-I 0 W/m 10,8 C 13,1 C 4,8 km/h (1 Bft) 100,00 %
11.06.2016 02:09 13,1 C 86 % 1008,8 hPa 0,0 l/m 4,0 km/h (1 Bft) S 187 0 min 0,000 mm 0,0 UV-I 0 W/m 10,8 C 13,1 C 4,8 km/h (1 Bft) 100,00 %
11.06.2016 02:10 13,1 C 86 % 1008,8 hPa 0,0 l/m 3,3 km/h (1 Bft) S 187 0 min 0,000 mm 0,0 UV-I 0 W/m 10,8 C 13,1 C 4,8 km/h (1 Bft) 100,00 %
11.06.2016 02:11 13,1 C 86 % 1008,8 hPa 0,0 l/m 4,5 km/h (1 Bft) SW 215 0 min 0,000 mm 0,0 UV-I 0 W/m 10,8 C 13,1 C 6,4 km/h (2 Bft) 95,65 %
11.06.2016 02:12 13,1 C 86 % 1008,8 hPa 0,0 l/m 4,0 km/h (1 Bft) S-SW 198 0 min 0,000 mm 0,0 UV-I 0 W/m 10,8 C 13,1 C 6,4 km/h (2 Bft) 100,00 %
11.06.2016 02:13 13,0 C 87 % 1008,8 hPa 0,0 l/m 5,4 km/h (1 Bft) S-SW 202 0 min 0,000 mm 0,0 UV-I 0 W/m 10,9 C 13,0 C 6,4 km/h (2 Bft) 100,00 %
11.06.2016 02:14 13,0 C 87 % 1008,8 hPa 0,0 l/m 4,3 km/h (1 Bft) S-SW 195 0 min 0,000 mm 0,0 UV-I 0 W/m 10,9 C 13,0 C 6,4 km/h (2 Bft) 100,00 %
11.06.2016 02:15 13,0 C 87 % 1008,8 hPa 0,0 l/m 1,5 km/h (1 Bft) S-SW 195 0 min 0,000 mm 0,0 UV-I 0 W/m 10,9 C 13,0 C 3,2 km/h (1 Bft) 100,00 %
11.06.2016 02:16 12,9 C 87 % 1008,8 hPa 0,0 l/m 3,4 km/h (1 Bft) S-SW 195 0 min 0,000 mm 0,0 UV-I 0 W/m 10,8 C 12,9 C 4,8 km/h (1 Bft) 100,00 %
11.06.2016 02:17 12,9 C 87 % 1008,8 hPa 0,0 l/m 3,8 km/h (1 Bft) S-SW 206 0 min 0,000 mm 0,0 UV-I 0 W/m 10,8 C 12,9 C 6,4 km/h (2 Bft) 95,65 %
11.06.2016 02:18 12,9 C 87 % 1008,8 hPa 0,0 l/m 4,2 km/h (1 Bft) S-SW 206 0 min 0,000 mm 0,0 UV-I 0 W/m 10,8 C 12,9 C 4,8 km/h (1 Bft) 100,00 %
11.06.2016 02:19 12,9 C 88 % 1008,8 hPa 0,0 l/m 3,7 km/h (1 Bft) S-SW 206 0 min 0,000 mm 0,0 UV-I 0 W/m 11,0 C 12,9 C 4,8 km/h (1 Bft) 100,00 %
11.06.2016 02:20 12,8 C 88 % 1008,8 hPa 0,0 l/m 2,9 km/h (1 Bft) S-SW 206 0 min 0,000 mm 0,0 UV-I 0 W/m 10,9 C 12,8 C 3,2 km/h (1 Bft) 100,00 %
11.06.2016 02:21 12,8 C 88 % 1008,8 hPa 0,0 l/m 3,1 km/h (1 Bft) S-SW 206 0 min 0,000 mm 0,0 UV-I 0 W/m 10,9 C 12,8 C 4,8 km/h (1 Bft) 95,65 %
11.06.2016 02:22 12,8 C 88 % 1008,8 hPa 0,0 l/m 4,5 km/h (1 Bft) S-SW 199 0 min 0,000 mm 0,0 UV-I 0 W/m 10,9 C 12,8 C 6,4 km/h (2 Bft) 95,83 %
11.06.2016 02:23 12,7 C 88 % 1008,8 hPa 0,0 l/m 5,0 km/h (1 Bft) S-SW 207 0 min 0,000 mm 0,0 UV-I 0 W/m 10,8 C 12,7 C 6,4 km/h (2 Bft) 100,00 %
11.06.2016 02:24 12,7 C 88 % 1008,8 hPa 0,0 l/m 4,8 km/h (1 Bft) S-SW 197 0 min 0,000 mm 0,0 UV-I 0 W/m 10,8 C 12,7 C 6,4 km/h (2 Bft) 95,83 %
11.06.2016 02:25 12,7 C 88 % 1008,8 hPa 0,0 l/m 4,5 km/h (1 Bft) S-SW 201 0 min 0,000 mm 0,0 UV-I 0 W/m 10,8 C 12,7 C 6,4 km/h (2 Bft) 100,00 %
11.06.2016 02:26 12,7 C 88 % 1008,8 hPa 0,0 l/m 3,3 km/h (1 Bft) S-SW 208 0 min 0,000 mm 0,0 UV-I 0 W/m 10,8 C 12,7 C 4,8 km/h (1 Bft) 95,65 %
11.06.2016 02:27 12,7 C 88 % 1008,8 hPa 0,0 l/m 4,2 km/h (1 Bft) S-SW 207 0 min 0,000 mm 0,0 UV-I 0 W/m 10,8 C 12,7 C 4,8 km/h (1 Bft) 100,00 %
11.06.2016 02:28 12,7 C 88 % 1008,8 hPa 0,0 l/m 3,3 km/h (1 Bft) S-SW 207 0 min 0,000 mm 0,0 UV-I 0 W/m 10,8 C 12,7 C 4,8 km/h (1 Bft) 100,00 %
11.06.2016 02:29 12,7 C 88 % 1008,8 hPa 0,0 l/m 4,2 km/h (1 Bft) S-SW 207 0 min 0,000 mm 0,0 UV-I 0 W/m 10,8 C 12,7 C 4,8 km/h (1 Bft) 100,00 %
11.06.2016 02:30 12,7 C 88 % 1008,8 hPa 0,0 l/m 3,6 km/h (1 Bft) S-SW 199 0 min 0,000 mm 0,0 UV-I 0 W/m 10,8 C 12,7 C 4,8 km/h (1 Bft) 100,00 %
11.06.2016 02:31 12,7 C 88 % 1008,8 hPa 0,0 l/m 4,4 km/h (1 Bft) S-SW 202 0 min 0,000 mm 0,0 UV-I 0 W/m 10,8 C 12,7 C 4,8 km/h (1 Bft) 100,00 %
11.06.2016 02:32 12,7 C 88 % 1008,8 hPa 0,0 l/m 4,7 km/h (1 Bft) S-SW 204 0 min 0,000 mm 0,0 UV-I 0 W/m 10,8 C 12,7 C 6,4 km/h (2 Bft) 100,00 %
11.06.2016 02:33 12,7 C 88 % 1008,8 hPa 0,0 l/m 4,7 km/h (1 Bft) S-SW 202 0 min 0,000 mm 0,0 UV-I 0 W/m 10,8 C 12,7 C 6,4 km/h (2 Bft) 96,30 %
11.06.2016 02:34 12,7 C 88 % 1008,8 hPa 0,0 l/m 5,2 km/h (1 Bft) SW 227 0 min 0,000 mm 0,0 UV-I 0 W/m 10,8 C 12,7 C 6,4 km/h (2 Bft) 100,00 %
11.06.2016 02:35 12,7 C 88 % 1008,7 hPa 0,0 l/m 4,9 km/h (1 Bft) SW 217 0 min 0,000 mm 0,0 UV-I 0 W/m 10,8 C 12,7 C 6,4 km/h (2 Bft) 100,00 %
11.06.2016 02:36 12,7 C 88 % 1008,7 hPa 0,0 l/m 4,0 km/h (1 Bft) S-SW 211 0 min 0,000 mm 0,0 UV-I 0 W/m 10,8 C 12,7 C 8,0 km/h (2 Bft) 100,00 %
11.06.2016 02:37 12,7 C 88 % 1008,8 hPa 0,0 l/m 5,1 km/h (1 Bft) S-SW 202 0 min 0,000 mm 0,0 UV-I 0 W/m 10,8 C 12,7 C 6,4 km/h (2 Bft) 100,00 %
11.06.2016 02:38 12,7 C 88 % 1008,7 hPa 0,0 l/m 6,6 km/h (2 Bft) SW 219 0 min 0,000 mm 0,0 UV-I 0 W/m 10,8 C 12,6 C 8,0 km/h (2 Bft) 100,00 %
11.06.2016 02:39 12,7 C 88 % 1008,7 hPa 0,0 l/m 5,1 km/h (1 Bft) SW 215 0 min 0,000 mm 0,0 UV-I 0 W/m 10,8 C 12,7 C 6,4 km/h (2 Bft) 100,00 %
11.06.2016 02:40 12,7 C 88 % 1008,7 hPa 0,0 l/m 4,6 km/h (1 Bft) SW 225 0 min 0,000 mm 0,0 UV-I 0 W/m 10,8 C 12,7 C 6,4 km/h (2 Bft) 100,00 %
11.06.2016 02:41 12,7 C 88 % 1008,7 hPa 0,0 l/m 3,4 km/h (1 Bft) SW 222 0 min 0,000 mm 0,0 UV-I 0 W/m 10,8 C 12,7 C 4,8 km/h (1 Bft) 100,00 %
11.06.2016 02:42 12,7 C 88 % 1008,7 hPa 0,0 l/m 5,1 km/h (1 Bft) S-SW 207 0 min 0,000 mm 0,0 UV-I 0 W/m 10,8 C 12,7 C 8,0 km/h (2 Bft) 95,65 %
11.06.2016 02:43 12,7 C 87 % 1008,6 hPa 0,0 l/m 4,0 km/h (1 Bft) S-SW 204 0 min 0,000 mm 0,0 UV-I 0 W/m 10,6 C 12,7 C 4,8 km/h (1 Bft) 100,00 %
11.06.2016 02:44 12,8 C 87 % 1008,6 hPa 0,0 l/m 4,2 km/h (1 Bft) S-SW 192 0 min 0,000 mm 0,0 UV-I 0 W/m 10,7 C 12,8 C 6,4 km/h (2 Bft) 100,00 %
11.06.2016 02:45 12,8 C 87 % 1008,6 hPa 0,0 l/m 5,3 km/h (1 Bft) S-SW 203 0 min 0,000 mm 0,0 UV-I 0 W/m 10,7 C 12,8 C 6,4 km/h (2 Bft) 100,00 %
11.06.2016 02:46 12,8 C 87 % 1008,6 hPa 0,0 l/m 5,4 km/h (1 Bft) S-SW 209 0 min 0,000 mm 0,0 UV-I 0 W/m 10,7 C 12,8 C 8,0 km/h (2 Bft) 100,00 %
11.06.2016 02:47 12,8 C 87 % 1008,6 hPa 0,0 l/m 4,8 km/h (1 Bft) S-SW 203 0 min 0,000 mm 0,0 UV-I 0 W/m 10,7 C 12,8 C 6,4 km/h (2 Bft) 100,00 %
11.06.2016 02:48 12,8 C 87 % 1008,6 hPa 0,0 l/m 4,4 km/h (1 Bft) SW 216 0 min 0,000 mm 0,0 UV-I 0 W/m 10,7 C 12,8 C 8,0 km/h (2 Bft) 100,00 %
11.06.2016 02:49 12,8 C 87 % 1008,7 hPa 0,0 l/m 4,6 km/h (1 Bft) S-SW 205 0 min 0,000 mm 0,0 UV-I 0 W/m 10,7 C 12,8 C 6,4 km/h (2 Bft) 100,00 %
11.06.2016 02:50 12,8 C 87 % 1008,6 hPa 0,0 l/m 4,2 km/h (1 Bft) S-SW 207 0 min 0,000 mm 0,0 UV-I 0 W/m 10,7 C 12,8 C 6,4 km/h (2 Bft) 100,00 %
11.06.2016 02:51 12,7 C 87 % 1008,6 hPa 0,0 l/m 4,9 km/h (1 Bft) S-SW 211 0 min 0,000 mm 0,0 UV-I 0 W/m 10,6 C 12,7 C 6,4 km/h (2 Bft) 100,00 %
11.06.2016 02:52 12,7 C 87 % 1008,6 hPa 0,0 l/m 4,6 km/h (1 Bft) S-SW 200 0 min 0,000 mm 0,0 UV-I 0 W/m 10,6 C 12,7 C 6,4 km/h (2 Bft) 100,00 %
11.06.2016 02:53 12,7 C 87 % 1008,6 hPa 0,0 l/m 6,9 km/h (2 Bft) S-SW 207 0 min 0,000 mm 0,0 UV-I 0 W/m 10,6 C 12,4 C 8,0 km/h (2 Bft) 100,00 %
11.06.2016 02:54 12,7 C 87 % 1008,6 hPa 0,0 l/m 5,9 km/h (2 Bft) S-SW 206 0 min 0,000 mm 0,0 UV-I 0 W/m 10,6 C 12,7 C 6,4 km/h (2 Bft) 100,00 %
11.06.2016 02:55 12,7 C 87 % 1008,6 hPa 0,0 l/m 5,7 km/h (1 Bft) S-SW 203 0 min 0,000 mm 0,0 UV-I 0 W/m 10,6 C 12,7 C 6,4 km/h (2 Bft) 100,00 %
11.06.2016 02:56 12,7 C 87 % 1008,6 hPa 0,0 l/m 5,2 km/h (1 Bft) S 180 0 min 0,000 mm 0,0 UV-I 0 W/m 10,6 C 12,7 C 8,0 km/h (2 Bft) 100,00 %
11.06.2016 02:57 12,7 C 87 % 1008,6 hPa 0,0 l/m 5,1 km/h (1 Bft) S-SW 204 0 min 0,000 mm 0,0 UV-I 0 W/m 10,6 C 12,7 C 6,4 km/h (2 Bft) 100,00 %
11.06.2016 02:58 12,7 C 87 % 1008,6 hPa 0,0 l/m 5,6 km/h (1 Bft) SW 215 0 min 0,000 mm 0,0 UV-I 0 W/m 10,6 C 12,7 C 6,4 km/h (2 Bft) 100,00 %
11.06.2016 02:59 12,7 C 87 % 1008,6 hPa 0,0 l/m 5,0 km/h (1 Bft) S-SW 207 0 min 0,000 mm 0,0 UV-I 0 W/m 10,6 C 12,7 C 8,0 km/h (2 Bft) 95,65 %
11.06.2016 03:00 12,7 C 87 % 1008,6 hPa 0,0 l/m 5,1 km/h (1 Bft) SW 217 0 min 0,000 mm 0,0 UV-I 0 W/m 10,6 C 12,7 C 6,4 km/h (2 Bft) 95,83 %
11.06.2016 03:02 12,7 C 87 % 1008,6 hPa 0,0 l/m 4,6 km/h (1 Bft) S-SW 205 0 min 0,000 mm 0,0 UV-I 0 W/m 10,6 C 12,7 C 8,0 km/h (2 Bft) 98,00 %
11.06.2016 03:03 12,7 C 87 % 1008,6 hPa 0,0 l/m 5,1 km/h (1 Bft) SW 228 0 min 0,000 mm 0,0 UV-I 0 W/m 10,6 C 12,7 C 6,4 km/h (2 Bft) 100,00 %
11.06.2016 03:04 12,7 C 87 % 1008,6 hPa 0,0 l/m 5,2 km/h (1 Bft) SW 220 0 min 0,000 mm 0,0 UV-I 0 W/m 10,6 C 12,7 C 8,0 km/h (2 Bft) 100,00 %
11.06.2016 03:05 12,7 C 87 % 1008,6 hPa 0,0 l/m 4,3 km/h (1 Bft) S-SW 209 0 min 0,000 mm 0,0 UV-I 0 W/m 10,6 C 12,7 C 6,4 km/h (2 Bft) 100,00 %
11.06.2016 03:06 12,7 C 87 % 1008,6 hPa 0,0 l/m 3,6 km/h (1 Bft) S-SW 209 0 min 0,000 mm 0,0 UV-I 0 W/m 10,6 C 12,7 C 4,8 km/h (1 Bft) 100,00 %
11.06.2016 03:07 12,7 C 87 % 1008,6 hPa 0,0 l/m 2,8 km/h (1 Bft) S-SW 209 0 min 0,000 mm 0,0 UV-I 0 W/m 10,6 C 12,7 C 4,8 km/h (1 Bft) 95,65 %
11.06.2016 03:08 12,7 C 87 % 1008,6 hPa 0,0 l/m 0,9 km/h (0 Bft) S-SW 209 0 min 0,000 mm 0,0 UV-I 0 W/m 10,6 C 12,7 C 1,6 km/h (1 Bft) 100,00 %
11.06.2016 03:09 12,7 C 87 % 1008,6 hPa 0,0 l/m 1,3 km/h (1 Bft) S-SW 209 0 min 0,000 mm 0,0 UV-I 0 W/m 10,6 C 12,7 C 3,2 km/h (1 Bft) 95,65 %
11.06.2016 03:10 12,7 C 87 % 1008,6 hPa 0,0 l/m 2,6 km/h (1 Bft) S-SW 209 0 min 0,000 mm 0,0 UV-I 0 W/m 10,6 C 12,7 C 3,2 km/h (1 Bft) 95,83 %
11.06.2016 03:11 12,7 C 87 % 1008,5 hPa 0,0 l/m 1,8 km/h (1 Bft) S-SW 209 0 min 0,000 mm 0,0 UV-I 0 W/m 10,6 C 12,7 C 3,2 km/h (1 Bft) 100,00 %
11.06.2016 03:12 12,7 C 87 % 1008,5 hPa 0,0 l/m 2,5 km/h (1 Bft) S-SW 209 0 min 0,000 mm 0,0 UV-I 0 W/m 10,6 C 12,7 C 4,8 km/h (1 Bft) 95,65 %
11.06.2016 03:13 12,7 C 87 % 1008,6 hPa 0,0 l/m 2,5 km/h (1 Bft) S-SW 209 0 min 0,000 mm 0,0 UV-I 0 W/m 10,6 C 12,7 C 4,8 km/h (1 Bft) 100,00 %
11.06.2016 03:14 12,7 C 87 % 1008,6 hPa 0,0 l/m 2,3 km/h (1 Bft) S-SW 209 0 min 0,000 mm 0,0 UV-I 0 W/m 10,6 C 12,7 C 3,2 km/h (1 Bft) 95,65 %
11.06.2016 03:15 12,7 C 87 % 1008,6 hPa 0,0 l/m 2,6 km/h (1 Bft) S-SW 209 0 min 0,000 mm 0,0 UV-I 0 W/m 10,6 C 12,7 C 3,2 km/h (1 Bft) 95,83 %
11.06.2016 03:16 12,7 C 87 % 1008,6 hPa 0,0 l/m 2,1 km/h (1 Bft) S-SW 209 0 min 0,000 mm 0,0 UV-I 0 W/m 10,6 C 12,7 C 4,8 km/h (1 Bft) 95,65 %
11.06.2016 03:17 12,7 C 87 % 1008,6 hPa 0,0 l/m 2,3 km/h (1 Bft) S-SW 209 0 min 0,000 mm 0,0 UV-I 0 W/m 10,6 C 12,7 C 3,2 km/h (1 Bft) 100,00 %
11.06.2016 03:18 12,7 C 87 % 1008,6 hPa 0,0 l/m 3,0 km/h (1 Bft) S-SW 209 0 min 0,000 mm 0,0 UV-I 0 W/m 10,6 C 12,7 C 3,2 km/h (1 Bft) 100,00 %
11.06.2016 03:19 12,7 C 87 % 1008,6 hPa 0,0 l/m 3,3 km/h (1 Bft) S-SW 209 0 min 0,000 mm 0,0 UV-I 0 W/m 10,6 C 12,7 C 4,8 km/h (1 Bft) 95,83 %
11.06.2016 03:20 12,7 C 87 % 1008,6 hPa 0,0 l/m 4,0 km/h (1 Bft) S-SW 209 0 min 0,000 mm 0,0 UV-I 0 W/m 10,6 C 12,7 C 4,8 km/h (1 Bft) 100,00 %
11.06.2016 03:21 12,7 C 87 % 1008,6 hPa 0,0 l/m 4,0 km/h (1 Bft) S-SW 209 0 min 0,000 mm 0,0 UV-I 0 W/m 10,6 C 12,7 C 4,8 km/h (1 Bft) 87,50 %
11.06.2016 03:22 12,7 C 87 % 1008,6 hPa 0,0 l/m 3,0 km/h (1 Bft) S-SW 209 0 min 0,000 mm 0,0 UV-I 0 W/m 10,6 C 12,7 C 3,2 km/h (1 Bft) 100,00 %
11.06.2016 03:23 12,7 C 87 % 1008,6 hPa 0,0 l/m 4,1 km/h (1 Bft) S-SW 209 0 min 0,000 mm 0,0 UV-I 0 W/m 10,6 C 12,7 C 4,8 km/h (1 Bft) 95,83 %
11.06.2016 03:24 12,6 C 87 % 1008,6 hPa 0,0 l/m 3,4 km/h (1 Bft) S-SW 209 0 min 0,000 mm 0,0 UV-I 0 W/m 10,5 C 12,6 C 4,8 km/h (1 Bft) 91,67 %
11.06.2016 03:25 12,6 C 87 % 1008,6 hPa 0,0 l/m 3,7 km/h (1 Bft) S-SW 209 0 min 0,000 mm 0,0 UV-I 0 W/m 10,5 C 12,6 C 4,8 km/h (1 Bft) 96,15 %
11.06.2016 03:26 12,6 C 87 % 1008,5 hPa 0,0 l/m 3,6 km/h (1 Bft) S-SW 205 0 min 0,000 mm 0,0 UV-I 0 W/m 10,5 C 12,6 C 4,8 km/h (1 Bft) 100,00 %
11.06.2016 03:27 12,6 C 87 % 1008,6 hPa 0,0 l/m 4,0 km/h (1 Bft) S-SW 205 0 min 0,000 mm 0,0 UV-I 0 W/m 10,5 C 12,6 C 4,8 km/h (1 Bft) 95,65 %
11.06.2016 03:28 12,6 C 87 % 1008,5 hPa 0,0 l/m 4,0 km/h (1 Bft) S-SW 205 0 min 0,000 mm 0,0 UV-I 0 W/m 10,5 C 12,6 C 4,8 km/h (1 Bft) 91,67 %
11.06.2016 03:29 12,6 C 87 % 1008,5 hPa 0,0 l/m 3,9 km/h (1 Bft) S-SW 205 0 min 0,000 mm 0,0 UV-I 0 W/m 10,5 C 12,6 C 4,8 km/h (1 Bft) 96,15 %
11.06.2016 03:30 12,6 C 87 % 1008,5 hPa 0,0 l/m 4,4 km/h (1 Bft) S-SW 205 0 min 0,000 mm 0,0 UV-I 0 W/m 10,5 C 12,6 C 6,4 km/h (2 Bft) 95,83 %
11.06.2016 03:31 12,6 C 87 % 1008,5 hPa 0,0 l/m 4,0 km/h (1 Bft) S-SW 205 0 min 0,000 mm 0,0 UV-I 0 W/m 10,5 C 12,6 C 6,4 km/h (2 Bft) 100,00 %
11.06.2016 03:32 12,6 C 87 % 1008,5 hPa 0,0 l/m 3,8 km/h (1 Bft) S-SW 205 0 min 0,000 mm 0,0 UV-I 0 W/m 10,5 C 12,6 C 4,8 km/h (1 Bft) 95,83 %
11.06.2016 03:33 12,5 C 87 % 1008,5 hPa 0,0 l/m 2,7 km/h (1 Bft) S-SW 205 0 min 0,000 mm 0,0 UV-I 0 W/m 10,4 C 12,5 C 3,2 km/h (1 Bft) 100,00 %
11.06.2016 03:34 12,5 C 87 % 1008,5 hPa 0,0 l/m 2,8 km/h (1 Bft) S-SW 205 0 min 0,000 mm 0,0 UV-I 0 W/m 10,4 C 12,5 C 4,8 km/h (1 Bft) 95,83 %
11.06.2016 03:35 12,5 C 87 % 1008,5 hPa 0,0 l/m 3,2 km/h (1 Bft) S-SW 205 0 min 0,000 mm 0,0 UV-I 0 W/m 10,4 C 12,5 C 4,8 km/h (1 Bft) 100,00 %
11.06.2016 03:36 12,5 C 87 % 1008,5 hPa 0,0 l/m 4,1 km/h (1 Bft) S-SW 205 0 min 0,000 mm 0,0 UV-I 0 W/m 10,4 C 12,5 C 6,4 km/h (2 Bft) 95,83 %
11.06.2016 03:37 12,5 C 87 % 1008,5 hPa 0,0 l/m 4,2 km/h (1 Bft) S-SW 205 0 min 0,000 mm 0,0 UV-I 0 W/m 10,4 C 12,5 C 4,8 km/h (1 Bft) 100,00 %
11.06.2016 03:38 12,5 C 87 % 1008,5 hPa 0,0 l/m 3,4 km/h (1 Bft) S-SW 205 0 min 0,000 mm 0,0 UV-I 0 W/m 10,4 C 12,5 C 4,8 km/h (1 Bft) 95,83 %
11.06.2016 03:39 12,5 C 87 % 1008,5 hPa 0,0 l/m 2,8 km/h (1 Bft) S-SW 203 0 min 0,000 mm 0,0 UV-I 0 W/m 10,4 C 12,5 C 4,8 km/h (1 Bft) 95,65 %
11.06.2016 03:40 12,5 C 87 % 1008,4 hPa 0,0 l/m 3,6 km/h (1 Bft) S-SW 202 0 min 0,000 mm 0,0 UV-I 0 W/m 10,4 C 12,5 C 4,8 km/h (1 Bft) 100,00 %
11.06.2016 03:41 12,5 C 87 % 1008,5 hPa 0,0 l/m 3,4 km/h (1 Bft) S-SW 200 0 min 0,000 mm 0,0 UV-I 0 W/m 10,4 C 12,5 C 4,8 km/h (1 Bft) 91,30 %
11.06.2016 03:42 12,5 C 88 % 1008,4 hPa 0,0 l/m 4,1 km/h (1 Bft) S-SW 195 0 min 0,000 mm 0,0 UV-I 0 W/m 10,6 C 12,5 C 4,8 km/h (1 Bft) 100,00 %
11.06.2016 03:43 12,5 C 88 % 1008,4 hPa 0,0 l/m 4,4 km/h (1 Bft) S-SW 194 0 min 0,000 mm 0,0 UV-I 0 W/m 10,6 C 12,5 C 4,8 km/h (1 Bft) 95,65 %
11.06.2016 03:44 12,5 C 88 % 1008,4 hPa 0,0 l/m 3,2 km/h (1 Bft) S-SW 194 0 min 0,000 mm 0,0 UV-I 0 W/m 10,6 C 12,5 C 4,8 km/h (1 Bft) 95,83 %
11.06.2016 03:45 12,5 C 88 % 1008,4 hPa 0,0 l/m 3,4 km/h (1 Bft) S-SW 192 0 min 0,000 mm 0,0 UV-I 0 W/m 10,6 C 12,5 C 4,8 km/h (1 Bft) 93,33 %
11.06.2016 03:46 12,5 C 88 % 1008,4 hPa 0,0 l/m 3,9 km/h (1 Bft) S-SW 198 0 min 0,000 mm 0,0 UV-I 0 W/m 10,6 C 12,5 C 6,4 km/h (2 Bft) 100,00 %
11.06.2016 03:47 12,5 C 88 % 1008,4 hPa 0,0 l/m 4,4 km/h (1 Bft) S-SW 198 0 min 0,000 mm 0,0 UV-I 0 W/m 10,6 C 12,5 C 4,8 km/h (1 Bft) 96,30 %
11.06.2016 03:48 12,5 C 88 % 1008,4 hPa 0,0 l/m 3,7 km/h (1 Bft) S-SW 198 0 min 0,000 mm 0,0 UV-I 0 W/m 10,6 C 12,5 C 4,8 km/h (1 Bft) 95,65 %
11.06.2016 03:49 12,5 C 87 % 1008,4 hPa 0,0 l/m 4,4 km/h (1 Bft) S-SW 196 0 min 0,000 mm 0,0 UV-I 0 W/m 10,4 C 12,5 C 6,4 km/h (2 Bft) 100,00 %
11.06.2016 03:50 12,5 C 87 % 1008,4 hPa 0,0 l/m 4,2 km/h (1 Bft) S-SW 196 0 min 0,000 mm 0,0 UV-I 0 W/m 10,4 C 12,5 C 4,8 km/h (1 Bft) 95,65 %
11.06.2016 03:51 12,5 C 87 % 1008,4 hPa 0,0 l/m 3,5 km/h (1 Bft) S-SW 196 0 min 0,000 mm 0,0 UV-I 0 W/m 10,4 C 12,5 C 4,8 km/h (1 Bft) 100,00 %
11.06.2016 03:52 12,5 C 87 % 1008,4 hPa 0,0 l/m 4,3 km/h (1 Bft) S-SW 192 0 min 0,000 mm 0,0 UV-I 0 W/m 10,4 C 12,5 C 4,8 km/h (1 Bft) 95,65 %
11.06.2016 03:53 12,6 C 87 % 1008,4 hPa 0,0 l/m 4,4 km/h (1 Bft) S-SW 192 0 min 0,000 mm 0,0 UV-I 0 W/m 10,5 C 12,6 C 6,4 km/h (2 Bft) 100,00 %
11.06.2016 03:54 12,5 C 87 % 1008,4 hPa 0,0 l/m 3,4 km/h (1 Bft) S-SW 192 0 min 0,000 mm 0,0 UV-I 0 W/m 10,4 C 12,5 C 4,8 km/h (1 Bft) 95,65 %
11.06.2016 03:55 12,5 C 88 % 1008,4 hPa 0,0 l/m 4,3 km/h (1 Bft) S-SW 192 0 min 0,000 mm 0,0 UV-I 0 W/m 10,6 C 12,5 C 6,4 km/h (2 Bft) 100,00 %
11.06.2016 03:56 12,4 C 88 % 1008,4 hPa 0,0 l/m 4,2 km/h (1 Bft) SW 217 0 min 0,000 mm 0,0 UV-I 0 W/m 10,5 C 12,4 C 6,4 km/h (2 Bft) 100,00 %
11.06.2016 03:57 12,4 C 88 % 1008,4 hPa 0,0 l/m 3,8 km/h (1 Bft) S-SW 213 0 min 0,000 mm 0,0 UV-I 0 W/m 10,5 C 12,4 C 4,8 km/h (1 Bft) 100,00 %
11.06.2016 03:58 12,4 C 88 % 1008,4 hPa 0,0 l/m 4,1 km/h (1 Bft) S-SW 207 0 min 0,000 mm 0,0 UV-I 0 W/m 10,5 C 12,4 C 4,8 km/h (1 Bft) 100,00 %
11.06.2016 03:59 12,4 C 88 % 1008,4 hPa 0,0 l/m 4,3 km/h (1 Bft) S-SW 207 0 min 0,000 mm 0,0 UV-I 0 W/m 10,5 C 12,4 C 6,4 km/h (2 Bft) 96,30 %
11.06.2016 04:00 12,4 C 88 % 1008,4 hPa 0,0 l/m 3,3 km/h (1 Bft) S-SW 207 0 min 0,000 mm 0,0 UV-I 0 W/m 10,5 C 12,4 C 4,8 km/h (1 Bft) 100,00 %
11.06.2016 04:02 12,4 C 88 % 1008,4 hPa 0,0 l/m 3,6 km/h (1 Bft) S-SW 208 0 min 0,000 mm 0,0 UV-I 0 W/m 10,5 C 12,4 C 4,8 km/h (1 Bft) 100,00 %
11.06.2016 04:03 12,4 C 88 % 1008,4 hPa 0,0 l/m 4,3 km/h (1 Bft) S-SW 208 0 min 0,000 mm 0,0 UV-I 0 W/m 10,5 C 12,4 C 6,4 km/h (2 Bft) 100,00 %
11.06.2016 04:04 12,4 C 88 % 1008,4 hPa 0,0 l/m 4,3 km/h (1 Bft) S-SW 208 0 min 0,000 mm 0,0 UV-I 0 W/m 10,5 C 12,4 C 4,8 km/h (1 Bft) 100,00 %
11.06.2016 04:05 12,4 C 88 % 1008,4 hPa 0,0 l/m 4,6 km/h (1 Bft) S-SW 207 0 min 0,000 mm 0,0 UV-I 0 W/m 10,5 C 12,4 C 6,4 km/h (2 Bft) 100,00 %
11.06.2016 04:06 12,3 C 88 % 1008,4 hPa 0,0 l/m 4,2 km/h (1 Bft) S-SW 202 0 min 0,000 mm 0,0 UV-I 0 W/m 10,4 C 12,3 C 6,4 km/h (2 Bft) 100,00 %
11.06.2016 04:07 12,3 C 88 % 1008,4 hPa 0,0 l/m 4,2 km/h (1 Bft) S-SW 202 0 min 0,000 mm 0,0 UV-I 0 W/m 10,4 C 12,3 C 4,8 km/h (1 Bft) 100,00 %
11.06.2016 04:08 12,3 C 88 % 1008,4 hPa 0,0 l/m 4,1 km/h (1 Bft) S-SW 202 0 min 0,000 mm 0,0 UV-I 0 W/m 10,4 C 12,3 C 6,4 km/h (2 Bft) 95,83 %
11.06.2016 04:09 12,3 C 88 % 1008,4 hPa 0,0 l/m 2,8 km/h (1 Bft) S-SW 202 0 min 0,000 mm 0,0 UV-I 0 W/m 10,4 C 12,3 C 4,8 km/h (1 Bft) 100,00 %
11.06.2016 04:10 12,3 C 88 % 1008,4 hPa 0,0 l/m 2,5 km/h (1 Bft) S-SW 202 0 min 0,000 mm 0,0 UV-I 0 W/m 10,4 C 12,3 C 4,8 km/h (1 Bft) 100,00 %
11.06.2016 04:11 12,3 C 89 % 1008,4 hPa 0,0 l/m 3,8 km/h (1 Bft) S 184 0 min 0,000 mm 0,0 UV-I 0 W/m 10,5 C 12,3 C 6,4 km/h (2 Bft) 100,00 %
11.06.2016 04:12 12,3 C 88 % 1008,4 hPa 0,0 l/m 4,1 km/h (1 Bft) S-SW 196 0 min 0,000 mm 0,0 UV-I 0 W/m 10,4 C 12,3 C 4,8 km/h (1 Bft) 100,00 %
11.06.2016 04:13 12,3 C 88 % 1008,4 hPa 0,0 l/m 3,5 km/h (1 Bft) S-SW 196 0 min 0,000 mm 0,0 UV-I 0 W/m 10,4 C 12,3 C 4,8 km/h (1 Bft) 95,65 %
11.06.2016 04:14 12,3 C 88 % 1008,3 hPa 0,0 l/m 2,1 km/h (1 Bft) S-SW 196 0 min 0,000 mm 0,0 UV-I 0 W/m 10,4 C 12,3 C 3,2 km/h (1 Bft) 100,00 %
11.06.2016 04:15 12,3 C 88 % 1008,3 hPa 0,0 l/m 3,0 km/h (1 Bft) S-SW 196 0 min 0,000 mm 0,0 UV-I 0 W/m 10,4 C 12,3 C 3,2 km/h (1 Bft) 100,00 %
11.06.2016 04:16 12,3 C 88 % 1008,3 hPa 0,0 l/m 2,9 km/h (1 Bft) S-SW 196 0 min 0,000 mm 0,0 UV-I 0 W/m 10,4 C 12,3 C 3,2 km/h (1 Bft) 100,00 %
11.06.2016 04:17 12,3 C 88 % 1008,3 hPa 0,0 l/m 3,3 km/h (1 Bft) S-SW 196 0 min 0,000 mm 0,0 UV-I 0 W/m 10,4 C 12,3 C 4,8 km/h (1 Bft) 100,00 %
11.06.2016 04:18 12,4 C 88 % 1008,3 hPa 0,0 l/m 2,8 km/h (1 Bft) S-SW 196 0 min 0,000 mm 0,0 UV-I 0 W/m 10,5 C 12,4 C 3,2 km/h (1 Bft) 100,00 %
11.06.2016 04:19 12,4 C 88 % 1008,3 hPa 0,0 l/m 2,9 km/h (1 Bft) S-SW 196 0 min 0,000 mm 0,0 UV-I 0 W/m 10,5 C 12,4 C 3,2 km/h (1 Bft) 95,65 %
11.06.2016 04:20 12,4 C 88 % 1008,4 hPa 0,0 l/m 2,1 km/h (1 Bft) S-SW 196 0 min 0,000 mm 0,0 UV-I 0 W/m 10,5 C 12,4 C 3,2 km/h (1 Bft) 100,00 %
11.06.2016 04:21 12,4 C 88 % 1008,4 hPa 0,0 l/m 2,0 km/h (1 Bft) S-SW 196 0 min 0,000 mm 0,0 UV-I 0 W/m 10,5 C 12,4 C 3,2 km/h (1 Bft) 100,00 %
11.06.2016 04:22 12,4 C 88 % 1008,4 hPa 0,0 l/m 1,7 km/h (1 Bft) S-SW 196 0 min 0,000 mm 0,0 UV-I 0 W/m 10,5 C 12,4 C 4,8 km/h (1 Bft) 100,00 %
11.06.2016 04:23 12,3 C 88 % 1008,3 hPa 0,0 l/m 1,9 km/h (1 Bft) S-SW 196 0 min 0,000 mm 0,0 UV-I 0 W/m 10,4 C 12,3 C 3,2 km/h (1 Bft) 100,00 %
11.06.2016 04:24 12,3 C 89 % 1008,3 hPa 0,0 l/m 3,1 km/h (1 Bft) S-SW 196 0 min 0,000 mm 0,0 UV-I 0 W/m 10,5 C 12,3 C 4,8 km/h (1 Bft) 100,00 %
11.06.2016 04:25 12,3 C 89 % 1008,3 hPa 0,0 l/m 1,9 km/h (1 Bft) S-SW 196 0 min 0,000 mm 0,0 UV-I 0 W/m 10,5 C 12,3 C 3,2 km/h (1 Bft) 100,00 %
11.06.2016 04:26 12,3 C 89 % 1008,3 hPa 0,0 l/m 2,1 km/h (1 Bft) S-SW 196 0 min 0,000 mm 0,0 UV-I 0 W/m 10,5 C 12,3 C 3,2 km/h (1 Bft) 95,83 %
11.06.2016 04:27 12,3 C 89 % 1008,3 hPa 0,0 l/m 2,1 km/h (1 Bft) S-SW 196 0 min 0,000 mm 0,0 UV-I 0 W/m 10,5 C 12,3 C 3,2 km/h (1 Bft) 100,00 %
11.06.2016 04:28 12,3 C 89 % 1008,3 hPa 0,0 l/m 2,8 km/h (1 Bft) S-SW 195 0 min 0,000 mm 0,0 UV-I 0 W/m 10,5 C 12,3 C 4,8 km/h (1 Bft) 100,00 %
11.06.2016 04:29 12,3 C 89 % 1008,3 hPa 0,0 l/m 3,2 km/h (1 Bft) S-SW 195 0 min 0,000 mm 0,0 UV-I 0 W/m 10,5 C 12,3 C 4,8 km/h (1 Bft) 100,00 %
11.06.2016 04:30 12,3 C 89 % 1008,3 hPa 0,0 l/m 2,3 km/h (1 Bft) S-SW 195 0 min 0,000 mm 0,0 UV-I 0 W/m 10,5 C 12,3 C 4,8 km/h (1 Bft) 100,00 %
11.06.2016 04:31 12,3 C 89 % 1008,3 hPa 0,0 l/m 2,3 km/h (1 Bft) S-SW 195 0 min 0,000 mm 0,0 UV-I 0 W/m 10,5 C 12,3 C 4,8 km/h (1 Bft) 100,00 %
11.06.2016 04:32 12,3 C 89 % 1008,3 hPa 0,0 l/m 3,6 km/h (1 Bft) S-SW 195 0 min 0,000 mm 0,0 UV-I 0 W/m 10,5 C 12,3 C 4,8 km/h (1 Bft) 100,00 %
11.06.2016 04:33 12,3 C 89 % 1008,3 hPa 0,0 l/m 3,2 km/h (1 Bft) S-SW 195 0 min 0,000 mm 0,0 UV-I 0 W/m 10,5 C 12,3 C 4,8 km/h (1 Bft) 100,00 %
11.06.2016 04:34 12,2 C 89 % 1008,3 hPa 0,0 l/m 3,6 km/h (1 Bft) S-SW 195 0 min 0,000 mm 0,0 UV-I 0 W/m 10,4 C 12,2 C 4,8 km/h (1 Bft) 100,00 %
11.06.2016 04:35 12,2 C 89 % 1008,4 hPa 0,0 l/m 4,8 km/h (1 Bft) S-SW 195 0 min 0,000 mm 0,0 UV-I 0 W/m 10,4 C 12,2 C 6,4 km/h (2 Bft) 100,00 %
11.06.2016 04:36 12,2 C 89 % 1008,4 hPa 0,0 l/m 3,2 km/h (1 Bft) S-SW 197 0 min 0,000 mm 0,0 UV-I 0 W/m 10,4 C 12,2 C 4,8 km/h (1 Bft) 95,65 %
11.06.2016 04:37 12,2 C 89 % 1008,3 hPa 0,0 l/m 2,9 km/h (1 Bft) S-SW 197 0 min 0,000 mm 0,0 UV-I 0 W/m 10,4 C 12,2 C 4,8 km/h (1 Bft) 100,00 %
11.06.2016 04:38 12,2 C 89 % 1008,3 hPa 0,0 l/m 4,7 km/h (1 Bft) S-SW 200 0 min 0,000 mm 0,0 UV-I 0 W/m 10,4 C 12,2 C 6,4 km/h (2 Bft) 96,15 %
11.06.2016 04:39 12,1 C 89 % 1008,3 hPa 0,0 l/m 5,0 km/h (1 Bft) S-SW 205 0 min 0,000 mm 0,0 UV-I 0 W/m 10,3 C 12,1 C 6,4 km/h (2 Bft) 100,00 %
11.06.2016 04:40 12,1 C 89 % 1008,4 hPa 0,0 l/m 4,9 km/h (1 Bft) S 189 0 min 0,000 mm 0,0 UV-I 0 W/m 10,3 C 12,1 C 6,4 km/h (2 Bft) 100,00 %
11.06.2016 04:41 12,1 C 89 % 1008,3 hPa 0,0 l/m 5,5 km/h (1 Bft) S-SW 200 0 min 0,000 mm 0,0 UV-I 0 W/m 10,3 C 12,1 C 6,4 km/h (2 Bft) 100,00 %
11.06.2016 04:42 12,1 C 89 % 1008,3 hPa 0,0 l/m 4,6 km/h (1 Bft) S-SW 202 0 min 0,000 mm 0,0 UV-I 0 W/m 10,3 C 12,1 C 6,4 km/h (2 Bft) 100,00 %
11.06.2016 04:43 12,1 C 89 % 1008,3 hPa 0,0 l/m 4,5 km/h (1 Bft) S-SW 201 0 min 0,000 mm 0,0 UV-I 0 W/m 10,3 C 12,1 C 6,4 km/h (2 Bft) 100,00 %
11.06.2016 04:44 12,1 C 89 % 1008,3 hPa 0,0 l/m 4,5 km/h (1 Bft) S-SW 204 0 min 0,000 mm 0,0 UV-I 0 W/m 10,3 C 12,1 C 6,4 km/h (2 Bft) 100,00 %
11.06.2016 04:45 12,1 C 89 % 1008,4 hPa 0,0 l/m 3,7 km/h (1 Bft) S-SW 204 0 min 0,000 mm 0,0 UV-I 0 W/m 10,3 C 12,1 C 4,8 km/h (1 Bft) 100,00 %
11.06.2016 04:46 12,1 C 89 % 1008,4 hPa 0,0 l/m 4,5 km/h (1 Bft) S-SW 197 0 min 0,000 mm 0,0 UV-I 0 W/m 10,3 C 12,1 C 6,4 km/h (2 Bft) 100,00 %
11.06.2016 04:47 12,1 C 89 % 1008,3 hPa 0,0 l/m 3,0 km/h (1 Bft) S-SW 197 0 min 0,000 mm 0,0 UV-I 0 W/m 10,3 C 12,1 C 4,8 km/h (1 Bft) 100,00 %
11.06.2016 04:48 12,1 C 89 % 1008,4 hPa 0,0 l/m 2,4 km/h (1 Bft) S-SW 197 0 min 0,000 mm 0,0 UV-I 0 W/m 10,3 C 12,1 C 4,8 km/h (1 Bft) 95,83 %
11.06.2016 04:49 12,1 C 89 % 1008,4 hPa 0,0 l/m 2,8 km/h (1 Bft) S-SW 197 0 min 0,000 mm 0,0 UV-I 0 W/m 10,3 C 12,1 C 4,8 km/h (1 Bft) 100,00 %
11.06.2016 04:50 12,1 C 89 % 1008,3 hPa 0,0 l/m 1,7 km/h (1 Bft) S-SW 197 0 min 0,000 mm 0,0 UV-I 0 W/m 10,3 C 12,1 C 3,2 km/h (1 Bft) 100,00 %
11.06.2016 04:51 12,1 C 90 % 1008,4 hPa 0,0 l/m 3,2 km/h (1 Bft) S-SW 197 0 min 0,000 mm 0,0 UV-I 0 W/m 10,5 C 12,1 C 4,8 km/h (1 Bft) 100,00 %
11.06.2016 04:52 12,1 C 90 % 1008,4 hPa 0,0 l/m 1,9 km/h (1 Bft) S-SW 197 0 min 0,000 mm 0,0 UV-I 0 W/m 10,5 C 12,1 C 3,2 km/h (1 Bft) 100,00 %
11.06.2016 04:53 12,0 C 90 % 1008,4 hPa 0,0 l/m 1,6 km/h (1 Bft) S-SW 197 0 min 0,000 mm 0,0 UV-I 0 W/m 10,4 C 12,0 C 3,2 km/h (1 Bft) 100,00 %
11.06.2016 04:54 12,0 C 90 % 1008,4 hPa 0,0 l/m 0,9 km/h (0 Bft) S-SW 197 0 min 0,000 mm 0,0 UV-I 0 W/m 10,4 C 12,0 C 1,6 km/h (1 Bft) 100,00 %
11.06.2016 04:55 11,9 C 90 % 1008,3 hPa 0,0 l/m 0,0 km/h (0 Bft) S-SW 197 0 min 0,000 mm 0,0 UV-I 0 W/m 10,3 C 11,9 C 0,0 km/h (0 Bft) 100,00 %
11.06.2016 04:56 11,9 C 90 % 1008,3 hPa 0,0 l/m 0,1 km/h (0 Bft) S-SW 197 0 min 0,000 mm 0,0 UV-I 0 W/m 10,3 C 11,9 C 1,6 km/h (1 Bft) 100,00 %
11.06.2016 04:57 11,9 C 90 % 1008,3 hPa 0,0 l/m 0,8 km/h (0 Bft) S-SW 197 0 min 0,000 mm 0,0 UV-I 0 W/m 10,3 C 11,9 C 1,6 km/h (1 Bft) 95,65 %
11.06.2016 04:58 11,9 C 90 % 1008,3 hPa 0,0 l/m 1,3 km/h (1 Bft) S-SW 197 0 min 0,000 mm 0,0 UV-I 0 W/m 10,3 C 11,9 C 3,2 km/h (1 Bft) 100,00 %
11.06.2016 04:59 11,9 C 90 % 1008,3 hPa 0,0 l/m 1,5 km/h (1 Bft) S-SW 197 0 min 0,000 mm 0,0 UV-I 0 W/m 10,3 C 11,9 C 3,2 km/h (1 Bft) 91,30 %
11.06.2016 05:00 11,9 C 90 % 1008,3 hPa 0,0 l/m 3,0 km/h (1 Bft) S-SW 197 0 min 0,000 mm 0,0 UV-I 0 W/m 10,3 C 11,9 C 3,2 km/h (1 Bft) 100,00 %
11.06.2016 05:01 11,8 C 90 % 1008,3 hPa 0,0 l/m 3,1 km/h (1 Bft) S-SW 197 0 min 0,000 mm 0,0 UV-I 0 W/m 10,2 C 11,8 C 3,2 km/h (1 Bft) 100,00 %
11.06.2016 05:02 11,8 C 89 % 1008,3 hPa 0,0 l/m 3,0 km/h (1 Bft) S-SW 197 0 min 0,000 mm 0,0 UV-I 0 W/m 10,0 C 11,8 C 3,2 km/h (1 Bft) 100,00 %
11.06.2016 05:03 11,7 C 89 % 1008,3 hPa 0,0 l/m 2,9 km/h (1 Bft) S-SW 197 0 min 0,000 mm 0,0 UV-I 0 W/m 9,9 C 11,7 C 3,2 km/h (1 Bft) 100,00 %
11.06.2016 05:04 11,7 C 90 % 1008,3 hPa 0,0 l/m 2,5 km/h (1 Bft) S-SW 197 0 min 0,000 mm 0,0 UV-I 0 W/m 10,1 C 11,7 C 3,2 km/h (1 Bft) 100,00 %
11.06.2016 05:05 11,6 C 90 % 1008,3 hPa 0,0 l/m 3,0 km/h (1 Bft) S-SW 197 0 min 0,000 mm 0,0 UV-I 0 W/m 10,0 C 11,6 C 3,2 km/h (1 Bft) 100,00 %
11.06.2016 05:06 11,5 C 90 % 1008,3 hPa 0,0 l/m 3,2 km/h (1 Bft) S-SW 196 0 min 0,000 mm 0,0 UV-I 0 W/m 9,9 C 11,5 C 4,8 km/h (1 Bft) 100,00 %
11.06.2016 05:07 11,4 C 90 % 1008,2 hPa 0,0 l/m 3,8 km/h (1 Bft) S-SW 196 0 min 0,000 mm 0,0 UV-I 0 W/m 9,8 C 11,4 C 4,8 km/h (1 Bft) 95,83 %
11.06.2016 05:08 11,3 C 90 % 1008,2 hPa 0,0 l/m 3,6 km/h (1 Bft) S-SW 196 0 min 0,000 mm 0,0 UV-I 2 W/m 9,7 C 11,3 C 4,8 km/h (1 Bft) 100,00 %
11.06.2016 05:09 11,2 C 90 % 1008,2 hPa 0,0 l/m 3,4 km/h (1 Bft) S-SW 196 0 min 0,000 mm 0,0 UV-I 5 W/m 9,6 C 11,2 C 4,8 km/h (1 Bft) 100,00 %
11.06.2016 05:10 11,3 C 91 % 1008,2 hPa 0,0 l/m 3,6 km/h (1 Bft) S-SW 196 0 min 0,000 mm 0,0 UV-I 5 W/m 9,9 C 11,3 C 4,8 km/h (1 Bft) 100,00 %
11.06.2016 05:11 11,2 C 91 % 1008,2 hPa 0,0 l/m 3,7 km/h (1 Bft) S-SW 196 0 min 0,000 mm 0,0 UV-I 5 W/m 9,8 C 11,2 C 4,8 km/h (1 Bft) 100,00 %
11.06.2016 05:12 11,2 C 91 % 1008,2 hPa 0,0 l/m 3,9 km/h (1 Bft) S 186 0 min 0,000 mm 0,0 UV-I 7 W/m 9,8 C 11,2 C 4,8 km/h (1 Bft) 100,00 %
11.06.2016 05:13 11,3 C 91 % 1008,2 hPa 0,0 l/m 3,2 km/h (1 Bft) S 182 0 min 0,000 mm 0,0 UV-I 7 W/m 9,9 C 11,3 C 4,8 km/h (1 Bft) 100,00 %
11.06.2016 05:14 11,3 C 91 % 1008,2 hPa 0,0 l/m 2,7 km/h (1 Bft) S 182 0 min 0,000 mm 0,0 UV-I 7 W/m 9,9 C 11,3 C 4,8 km/h (1 Bft) 100,00 %
11.06.2016 05:15 11,3 C 91 % 1008,2 hPa 0,0 l/m 1,2 km/h (1 Bft) S 182 0 min 0,000 mm 0,0 UV-I 8 W/m 9,9 C 11,3 C 3,2 km/h (1 Bft) 99,36 %
11.06.2016 05:16 11,3 C 92 % 1008,2 hPa 0,0 l/m 2,1 km/h (1 Bft) S 182 1 min 0,000 mm 0,0 UV-I 9 W/m 10,0 C 11,3 C 4,8 km/h (1 Bft) 100,00 %
11.06.2016 05:17 11,3 C 92 % 1008,2 hPa 0,0 l/m 1,1 km/h (1 Bft) S 182 0 min 0,000 mm 0,0 UV-I 9 W/m 10,0 C 11,3 C 1,6 km/h (1 Bft) 100,00 %
11.06.2016 05:18 11,3 C 92 % 1008,2 hPa 0,0 l/m 0,7 km/h (0 Bft) S 182 1 min 0,000 mm 0,0 UV-I 11 W/m 10,0 C 11,3 C 3,2 km/h (1 Bft) 95,65 %
11.06.2016 05:19 11,3 C 92 % 1008,2 hPa 0,0 l/m 1,3 km/h (1 Bft) S 182 0 min 0,000 mm 0,0 UV-I 11 W/m 10,0 C 11,3 C 3,2 km/h (1 Bft) 100,00 %
11.06.2016 05:20 11,3 C 92 % 1008,2 hPa 0,0 l/m 0,6 km/h (0 Bft) S 182 0 min 0,000 mm 0,0 UV-I 11 W/m 10,0 C 11,3 C 1,6 km/h (1 Bft) 100,00 %
11.06.2016 05:21 11,3 C 92 % 1008,3 hPa 0,0 l/m 2,2 km/h (1 Bft) S 181 0 min 0,000 mm 0,0 UV-I 12 W/m 10,0 C 11,3 C 3,2 km/h (1 Bft) 100,00 %
11.06.2016 05:22 11,3 C 92 % 1008,3 hPa 0,0 l/m 2,3 km/h (1 Bft) S 180 0 min 0,000 mm 0,0 UV-I 13 W/m 10,0 C 11,3 C 3,2 km/h (1 Bft) 100,00 %
11.06.2016 05:23 11,3 C 92 % 1008,3 hPa 0,0 l/m 2,1 km/h (1 Bft) S 178 0 min 0,000 mm 0,0 UV-I 14 W/m 10,0 C 11,3 C 3,2 km/h (1 Bft) 95,65 %
11.06.2016 05:24 11,3 C 92 % 1008,3 hPa 0,0 l/m 1,4 km/h (1 Bft) S 178 0 min 0,000 mm 0,0 UV-I 16 W/m 10,0 C 11,3 C 3,2 km/h (1 Bft) 95,83 %
11.06.2016 05:25 11,3 C 92 % 1008,3 hPa 0,0 l/m 0,7 km/h (0 Bft) S 178 0 min 0,000 mm 0,0 UV-I 16 W/m 10,0 C 11,3 C 3,2 km/h (1 Bft) 91,30 %
11.06.2016 05:26 11,4 C 92 % 1008,3 hPa 0,0 l/m 0,7 km/h (0 Bft) S 178 0 min 0,000 mm 0,0 UV-I 18 W/m 10,1 C 11,4 C 1,6 km/h (1 Bft) 100,00 %
11.06.2016 05:27 11,4 C 91 % 1008,3 hPa 0,0 l/m 0,1 km/h (0 Bft) S 178 0 min 0,000 mm 0,0 UV-I 19 W/m 10,0 C 11,4 C 1,6 km/h (1 Bft) 91,30 %
11.06.2016 05:28 11,4 C 91 % 1008,3 hPa 0,0 l/m 0,0 km/h (0 Bft) S 178 0 min 0,000 mm 0,0 UV-I 21 W/m 10,0 C 11,4 C 0,0 km/h (0 Bft) 100,00 %
11.06.2016 05:29 11,4 C 91 % 1008,3 hPa 0,0 l/m 0,5 km/h (0 Bft) S 178 0 min 0,000 mm 0,0 UV-I 21 W/m 10,0 C 11,4 C 1,6 km/h (1 Bft) 91,30 %
11.06.2016 05:30 11,4 C 91 % 1008,3 hPa 0,0 l/m 0,9 km/h (0 Bft) S 178 0 min 0,000 mm 0,0 UV-I 23 W/m 10,0 C 11,4 C 1,6 km/h (1 Bft) 100,00 %
11.06.2016 05:31 11,4 C 91 % 1008,3 hPa 0,0 l/m 1,4 km/h (1 Bft) S 178 0 min 0,000 mm 0,0 UV-I 25 W/m 10,0 C 11,4 C 3,2 km/h (1 Bft) 95,65 %
11.06.2016 05:32 11,4 C 91 % 1008,2 hPa 0,0 l/m 1,5 km/h (1 Bft) S 178 0 min 0,000 mm 0,0 UV-I 25 W/m 10,0 C 11,4 C 1,6 km/h (1 Bft) 96,30 %
11.06.2016 05:33 11,4 C 91 % 1008,3 hPa 0,0 l/m 1,6 km/h (1 Bft) S 178 0 min 0,000 mm 0,0 UV-I 26 W/m 10,0 C 11,4 C 1,6 km/h (1 Bft) 95,65 %
11.06.2016 05:34 11,3 C 91 % 1008,2 hPa 0,0 l/m 1,3 km/h (1 Bft) S 178 0 min 0,000 mm 0,0 UV-I 26 W/m 9,9 C 11,3 C 1,6 km/h (1 Bft) 95,83 %
11.06.2016 05:35 11,3 C 91 % 1008,3 hPa 0,0 l/m 0,6 km/h (0 Bft) S 178 0 min 0,000 mm 0,0 UV-I 26 W/m 9,9 C 11,3 C 1,6 km/h (1 Bft) 91,30 %
11.06.2016 05:36 11,3 C 91 % 1008,2 hPa 0,0 l/m 1,5 km/h (1 Bft) S 178 0 min 0,000 mm 0,0 UV-I 28 W/m 9,9 C 11,3 C 1,6 km/h (1 Bft) 95,83 %
11.06.2016 05:37 11,3 C 91 % 1008,2 hPa 0,0 l/m 1,2 km/h (1 Bft) S 178 0 min 0,000 mm 0,0 UV-I 28 W/m 9,9 C 11,3 C 1,6 km/h (1 Bft) 100,00 %
11.06.2016 05:38 11,3 C 91 % 1008,2 hPa 0,0 l/m 1,8 km/h (1 Bft) S 178 0 min 0,000 mm 0,0 UV-I 28 W/m 9,9 C 11,3 C 3,2 km/h (1 Bft) 93,33 %
11.06.2016 05:39 11,3 C 92 % 1008,2 hPa 0,0 l/m 1,5 km/h (1 Bft) S 178 0 min 0,000 mm 0,0 UV-I 29 W/m 10,0 C 11,3 C 3,2 km/h (1 Bft) 100,00 %
11.06.2016 05:40 11,3 C 92 % 1008,2 hPa 0,0 l/m 2,0 km/h (1 Bft) S 178 0 min 0,000 mm 0,0 UV-I 30 W/m 10,0 C 11,3 C 3,2 km/h (1 Bft) 95,83 %
11.06.2016 05:41 11,2 C 91 % 1008,2 hPa 0,0 l/m 2,5 km/h (1 Bft) S 178 0 min 0,000 mm 0,0 UV-I 30 W/m 9,8 C 11,2 C 3,2 km/h (1 Bft) 91,30 %
11.06.2016 05:42 11,2 C 91 % 1008,2 hPa 0,0 l/m 2,2 km/h (1 Bft) S 178 0 min 0,000 mm 0,0 UV-I 30 W/m 9,8 C 11,2 C 3,2 km/h (1 Bft) 100,00 %
11.06.2016 05:43 11,2 C 91 % 1008,2 hPa 0,0 l/m 3,0 km/h (1 Bft) S 178 0 min 0,000 mm 0,0 UV-I 30 W/m 9,8 C 11,2 C 3,2 km/h (1 Bft) 95,65 %
11.06.2016 05:44 11,2 C 92 % 1008,2 hPa 0,0 l/m 3,4 km/h (1 Bft) S 178 0 min 0,000 mm 0,0 UV-I 30 W/m 9,9 C 11,2 C 4,8 km/h (1 Bft) 95,83 %
11.06.2016 05:45 11,2 C 92 % 1008,2 hPa 0,0 l/m 3,0 km/h (1 Bft) S 178 0 min 0,000 mm 0,0 UV-I 31 W/m 9,9 C 11,2 C 4,8 km/h (1 Bft) 95,83 %
11.06.2016 05:46 11,2 C 92 % 1008,2 hPa 0,0 l/m 3,3 km/h (1 Bft) S 178 0 min 0,000 mm 0,0 UV-I 32 W/m 9,9 C 11,2 C 4,8 km/h (1 Bft) 100,00 %
11.06.2016 05:47 11,2 C 92 % 1008,1 hPa 0,0 l/m 3,9 km/h (1 Bft) S 178 0 min 0,000 mm 0,0 UV-I 32 W/m 9,9 C 11,2 C 4,8 km/h (1 Bft) 91,67 %
11.06.2016 05:48 11,2 C 92 % 1008,1 hPa 0,0 l/m 4,2 km/h (1 Bft) S 178 0 min 0,000 mm 0,0 UV-I 32 W/m 9,9 C 11,2 C 4,8 km/h (1 Bft) 86,96 %
11.06.2016 05:49 11,2 C 92 % 1008,1 hPa 0,0 l/m 4,0 km/h (1 Bft) S 178 0 min 0,000 mm 0,0 UV-I 32 W/m 9,9 C 11,2 C 4,8 km/h (1 Bft) 100,00 %
11.06.2016 05:50 11,1 C 92 % 1008,1 hPa 0,0 l/m 4,4 km/h (1 Bft) S-SO 167 0 min 0,000 mm 0,0 UV-I 32 W/m 9,8 C 11,1 C 6,4 km/h (2 Bft) 95,65 %
11.06.2016 05:51 11,1 C 92 % 1008,1 hPa 0,0 l/m 5,7 km/h (1 Bft) S-SO 167 0 min 0,000 mm 0,0 UV-I 33 W/m 9,8 C 11,1 C 6,4 km/h (2 Bft) 100,00 %
11.06.2016 05:52 11,1 C 92 % 1008,1 hPa 0,0 l/m 4,8 km/h (1 Bft) S-SO 156 0 min 0,000 mm 0,0 UV-I 33 W/m 9,8 C 11,1 C 8,0 km/h (2 Bft) 96,15 %
11.06.2016 05:53 11,1 C 92 % 1008,1 hPa 0,0 l/m 3,7 km/h (1 Bft) S-SO 156 0 min 0,000 mm 0,0 UV-I 35 W/m 9,8 C 11,1 C 4,8 km/h (1 Bft) 100,00 %
11.06.2016 05:54 11,2 C 92 % 1008,1 hPa 0,0 l/m 3,2 km/h (1 Bft) S-SO 156 0 min 0,000 mm 0,0 UV-I 35 W/m 9,9 C 11,2 C 4,8 km/h (1 Bft) 95,65 %
11.06.2016 05:55 11,2 C 92 % 1008,1 hPa 0,0 l/m 2,3 km/h (1 Bft) S-SO 156 0 min 0,000 mm 0,0 UV-I 37 W/m 9,9 C 11,2 C 3,2 km/h (1 Bft) 95,83 %
11.06.2016 05:56 11,3 C 92 % 1008,1 hPa 0,0 l/m 0,7 km/h (0 Bft) S-SO 156 0 min 0,000 mm 0,0 UV-I 38 W/m 10,0 C 11,3 C 1,6 km/h (1 Bft) 100,00 %
11.06.2016 05:57 11,3 C 92 % 1008,2 hPa 0,0 l/m 1,5 km/h (1 Bft) S-SO 156 0 min 0,000 mm 0,0 UV-I 40 W/m 10,0 C 11,3 C 3,2 km/h (1 Bft) 100,00 %
11.06.2016 05:58 11,3 C 92 % 1008,2 hPa 0,0 l/m 1,1 km/h (1 Bft) S-SO 156 0 min 0,000 mm 0,0 UV-I 42 W/m 10,0 C 11,3 C 3,2 km/h (1 Bft) 100,00 %
11.06.2016 05:59 11,4 C 92 % 1008,2 hPa 0,0 l/m 1,1 km/h (1 Bft) S-SO 156 0 min 0,000 mm 0,0 UV-I 44 W/m 10,1 C 11,4 C 3,2 km/h (1 Bft) 100,00 %
11.06.2016 06:00 11,4 C 92 % 1008,2 hPa 0,0 l/m 1,1 km/h (1 Bft) S-SO 155 0 min 0,000 mm 0,0 UV-I 46 W/m 10,1 C 11,4 C 3,2 km/h (1 Bft) 95,65 %
11.06.2016 06:01 11,4 C 92 % 1008,2 hPa 0,0 l/m 1,6 km/h (1 Bft) S-SO 155 0 min 0,026 mm 0,0 UV-I 46 W/m 10,1 C 11,4 C 3,2 km/h (1 Bft) 100,00 %
11.06.2016 06:02 11,4 C 92 % 1008,1 hPa 0,0 l/m 2,1 km/h (1 Bft) S-SO 155 0 min 0,000 mm 0,0 UV-I 48 W/m 10,1 C 11,4 C 3,2 km/h (1 Bft) 100,00 %
11.06.2016 06:03 11,4 C 92 % 1008,2 hPa 0,0 l/m 1,3 km/h (1 Bft) S-SO 155 0 min 0,000 mm 0,0 UV-I 49 W/m 10,1 C 11,4 C 1,6 km/h (1 Bft) 100,00 %
11.06.2016 06:04 11,4 C 92 % 1008,2 hPa 0,0 l/m 1,0 km/h (0 Bft) S-SO 155 0 min 0,000 mm 0,0 UV-I 51 W/m 10,1 C 11,4 C 3,2 km/h (1 Bft) 100,00 %
11.06.2016 06:05 11,5 C 92 % 1008,2 hPa 0,0 l/m 0,3 km/h (0 Bft) S-SO 155 0 min 0,000 mm 0,0 UV-I 51 W/m 10,2 C 11,5 C 1,6 km/h (1 Bft) 95,83 %
11.06.2016 06:06 11,5 C 92 % 1008,2 hPa 0,0 l/m 0,3 km/h (0 Bft) S-SO 155 0 min 0,000 mm 0,0 UV-I 53 W/m 10,2 C 11,5 C 1,6 km/h (1 Bft) 95,65 %
11.06.2016 06:07 11,6 C 92 % 1008,2 hPa 0,0 l/m 0,0 km/h (0 Bft) S-SO 155 0 min 0,000 mm 0,0 UV-I 53 W/m 10,3 C 11,6 C 0,0 km/h (0 Bft) 100,00 %
11.06.2016 06:08 11,6 C 92 % 1008,2 hPa 0,0 l/m 0,0 km/h (0 Bft) S-SO 155 0 min 0,000 mm 0,0 UV-I 54 W/m 10,3 C 11,6 C 0,0 km/h (0 Bft) 100,00 %
11.06.2016 06:09 11,7 C 92 % 1008,2 hPa 0,0 l/m 0,0 km/h (0 Bft) S-SO 155 0 min 0,000 mm 0,0 UV-I 54 W/m 10,4 C 11,7 C 0,0 km/h (0 Bft) 100,00 %
11.06.2016 06:10 11,8 C 92 % 1008,2 hPa 0,0 l/m 0,0 km/h (0 Bft) S-SO 155 0 min 0,000 mm 0,0 UV-I 53 W/m 10,5 C 11,8 C 0,0 km/h (0 Bft) 100,00 %
11.06.2016 06:11 11,8 C 92 % 1008,2 hPa 0,0 l/m 0,0 km/h (0 Bft) S-SO 155 0 min 0,000 mm 0,0 UV-I 53 W/m 10,5 C 11,8 C 0,0 km/h (0 Bft) 100,00 %
11.06.2016 06:12 11,8 C 92 % 1008,2 hPa 0,0 l/m 0,2 km/h (0 Bft) S-SO 155 0 min 0,000 mm 0,0 UV-I 51 W/m 10,5 C 11,8 C 1,6 km/h (1 Bft) 100,00 %
11.06.2016 06:13 11,8 C 92 % 1008,2 hPa 0,0 l/m 0,9 km/h (0 Bft) S-SO 155 0 min 0,000 mm 0,0 UV-I 51 W/m 10,5 C 11,8 C 1,6 km/h (1 Bft) 100,00 %
11.06.2016 06:14 11,9 C 92 % 1008,2 hPa 0,0 l/m 0,7 km/h (0 Bft) S-SO 155 0 min 0,000 mm 0,0 UV-I 51 W/m 10,6 C 11,9 C 1,6 km/h (1 Bft) 100,00 %
11.06.2016 06:15 11,8 C 92 % 1008,2 hPa 0,0 l/m 0,6 km/h (0 Bft) S-SO 155 0 min 0,000 mm 0,0 UV-I 51 W/m 10,5 C 11,8 C 1,6 km/h (1 Bft) 100,00 %
11.06.2016 06:16 11,8 C 91 % 1008,2 hPa 0,0 l/m 0,9 km/h (0 Bft) S-SO 155 0 min 0,000 mm 0,0 UV-I 51 W/m 10,4 C 11,8 C 1,6 km/h (1 Bft) 100,00 %
11.06.2016 06:17 11,8 C 91 % 1008,2 hPa 0,0 l/m 1,1 km/h (1 Bft) S-SO 155 0 min 0,000 mm 0,0 UV-I 53 W/m 10,4 C 11,8 C 1,6 km/h (1 Bft) 100,00 %
11.06.2016 06:18 11,7 C 91 % 1008,3 hPa 0,0 l/m 0,2 km/h (0 Bft) S-SO 155 0 min 0,000 mm 0,0 UV-I 53 W/m 10,3 C 11,7 C 1,6 km/h (1 Bft) 100,00 %
11.06.2016 06:19 11,7 C 91 % 1008,3 hPa 0,0 l/m 0,0 km/h (0 Bft) S-SO 155 0 min 0,000 mm 0,0 UV-I 53 W/m 10,3 C 11,7 C 0,0 km/h (0 Bft) 100,00 %
11.06.2016 06:20 11,6 C 91 % 1008,3 hPa 0,0 l/m 0,0 km/h (0 Bft) S-SO 155 0 min 0,000 mm 0,0 UV-I 54 W/m 10,2 C 11,6 C 0,0 km/h (0 Bft) 100,00 %
11.06.2016 06:21 11,6 C 91 % 1008,3 hPa 0,0 l/m 0,1 km/h (0 Bft) S-SO 155 0 min 0,000 mm 0,0 UV-I 55 W/m 10,2 C 11,6 C 1,6 km/h (1 Bft) 100,00 %
11.06.2016 06:22 11,6 C 91 % 1008,3 hPa 0,0 l/m 0,5 km/h (0 Bft) S-SO 155 0 min 0,000 mm 0,0 UV-I 58 W/m 10,2 C 11,6 C 1,6 km/h (1 Bft) 100,00 %
11.06.2016 06:23 11,6 C 91 % 1008,3 hPa 0,0 l/m 0,3 km/h (0 Bft) S-SO 155 0 min 0,000 mm 0,0 UV-I 58 W/m 10,2 C 11,6 C 1,6 km/h (1 Bft) 100,00 %
11.06.2016 06:24 11,6 C 91 % 1008,3 hPa 0,0 l/m 0,2 km/h (0 Bft) S-SO 155 0 min 0,000 mm 0,0 UV-I 60 W/m 10,2 C 11,6 C 1,6 km/h (1 Bft) 100,00 %
11.06.2016 06:25 11,5 C 91 % 1008,3 hPa 0,0 l/m 0,8 km/h (0 Bft) S-SO 155 0 min 0,000 mm 0,0 UV-I 60 W/m 10,1 C 11,5 C 1,6 km/h (1 Bft) 100,00 %
11.06.2016 06:26 11,5 C 91 % 1008,3 hPa 0,0 l/m 0,0 km/h (0 Bft) S-SO 155 0 min 0,000 mm 0,0 UV-I 60 W/m 10,1 C 11,5 C 0,0 km/h (0 Bft) 100,00 %
11.06.2016 06:27 11,6 C 92 % 1008,3 hPa 0,0 l/m 0,0 km/h (0 Bft) S-SO 155 0 min 0,000 mm 0,0 UV-I 60 W/m 10,3 C 11,6 C 0,0 km/h (0 Bft) 100,00 %
11.06.2016 06:28 11,6 C 92 % 1008,3 hPa 0,0 l/m 0,1 km/h (0 Bft) S-SO 155 0 min 0,000 mm 0,0 UV-I 62 W/m 10,3 C 11,6 C 1,6 km/h (1 Bft) 100,00 %
11.06.2016 06:29 11,7 C 92 % 1008,4 hPa 0,0 l/m 0,0 km/h (0 Bft) S-SO 155 0 min 0,000 mm 0,0 UV-I 62 W/m 10,4 C 11,7 C 0,0 km/h (0 Bft) 100,00 %
11.06.2016 06:30 11,7 C 92 % 1008,3 hPa 0,0 l/m 0,0 km/h (0 Bft) S-SO 155 0 min 0,000 mm 0,0 UV-I 64 W/m 10,4 C 11,7 C 0,0 km/h (0 Bft) 100,00 %
11.06.2016 06:31 11,8 C 92 % 1008,3 hPa 0,0 l/m 0,0 km/h (0 Bft) S-SO 155 0 min 0,000 mm 0,0 UV-I 72 W/m 10,5 C 11,8 C 0,0 km/h (0 Bft) 100,00 %
11.06.2016 06:32 11,9 C 92 % 1008,3 hPa 0,0 l/m 0,3 km/h (0 Bft) S-SO 155 0 min 0,000 mm 0,0 UV-I 83 W/m 10,6 C 11,9 C 1,6 km/h (1 Bft) 100,00 %
11.06.2016 06:33 11,9 C 92 % 1008,3 hPa 0,0 l/m 0,5 km/h (0 Bft) S-SO 155 0 min 0,000 mm 0,0 UV-I 76 W/m 10,6 C 11,9 C 1,6 km/h (1 Bft) 100,00 %
11.06.2016 06:34 11,9 C 92 % 1008,3 hPa 0,0 l/m 0,9 km/h (0 Bft) S-SO 155 0 min 0,000 mm 0,0 UV-I 69 W/m 10,6 C 11,9 C 1,6 km/h (1 Bft) 100,00 %
11.06.2016 06:35 12,0 C 92 % 1008,3 hPa 0,0 l/m 0,5 km/h (0 Bft) S-SO 155 0 min 0,000 mm 0,0 UV-I 77 W/m 10,7 C 12,0 C 1,6 km/h (1 Bft) 100,00 %
11.06.2016 06:36 12,0 C 92 % 1008,4 hPa 0,0 l/m 0,4 km/h (0 Bft) S-SO 155 0 min 0,000 mm 0,0 UV-I 91 W/m 10,7 C 12,0 C 1,6 km/h (1 Bft) 100,00 %
11.06.2016 06:37 12,1 C 91 % 1008,4 hPa 0,0 l/m 0,1 km/h (0 Bft) S-SO 155 0 min 0,000 mm 0,0 UV-I 102 W/m 10,7 C 12,1 C 1,6 km/h (1 Bft) 100,00 %
11.06.2016 06:38 12,1 C 91 % 1008,4 hPa 0,0 l/m 0,0 km/h (0 Bft) S-SO 155 0 min 0,000 mm 0,0 UV-I 111 W/m 10,7 C 12,1 C 0,0 km/h (0 Bft) 95,65 %
11.06.2016 06:39 12,1 C 91 % 1008,4 hPa 0,0 l/m 0,1 km/h (0 Bft) S-SO 155 0 min 0,000 mm 0,0 UV-I 119 W/m 10,7 C 12,1 C 1,6 km/h (1 Bft) 100,00 %
11.06.2016 06:40 12,2 C 91 % 1008,4 hPa 0,0 l/m 0,0 km/h (0 Bft) S-SO 155 0 min 0,000 mm 0,0 UV-I 120 W/m 10,8 C 12,2 C 0,0 km/h (0 Bft) 100,00 %
11.06.2016 06:41 12,2 C 91 % 1008,4 hPa 0,0 l/m 0,0 km/h (0 Bft) S-SO 155 0 min 0,000 mm 0,0 UV-I 125 W/m 10,8 C 12,2 C 0,0 km/h (0 Bft) 100,00 %
11.06.2016 06:42 12,3 C 90 % 1008,4 hPa 0,0 l/m 0,0 km/h (0 Bft) S-SO 155 1 min 0,000 mm 0,0 UV-I 133 W/m 10,7 C 12,3 C 0,0 km/h (0 Bft) 95,65 %
11.06.2016 06:43 12,3 C 90 % 1008,4 hPa 0,0 l/m 0,0 km/h (0 Bft) S-SO 155 1 min 0,000 mm 0,0 UV-I 135 W/m 10,7 C 12,3 C 0,0 km/h (0 Bft) 100,00 %
11.06.2016 06:44 12,4 C 90 % 1008,4 hPa 0,0 l/m 0,0 km/h (0 Bft) S-SO 155 0 min 0,000 mm 0,0 UV-I 130 W/m 10,8 C 12,4 C 0,0 km/h (0 Bft) 100,00 %
11.06.2016 06:45 12,5 C 90 % 1008,4 hPa 0,0 l/m 0,0 km/h (0 Bft) S-SO 155 0 min 0,000 mm 0,0 UV-I 130 W/m 10,9 C 12,5 C 0,0 km/h (0 Bft) 100,00 %
11.06.2016 06:46 12,6 C 89 % 1008,4 hPa 0,0 l/m 0,0 km/h (0 Bft) S-SO 155 1 min 0,000 mm 0,0 UV-I 134 W/m 10,8 C 12,6 C 0,0 km/h (0 Bft) 100,00 %
11.06.2016 06:47 12,6 C 89 % 1008,4 hPa 0,0 l/m 1,3 km/h (1 Bft) S-SO 155 1 min 0,000 mm 0,0 UV-I 138 W/m 10,8 C 12,6 C 3,2 km/h (1 Bft) 100,00 %
11.06.2016 06:48 12,7 C 89 % 1008,4 hPa 0,0 l/m 0,9 km/h (0 Bft) S-SO 155 1 min 0,000 mm 0,0 UV-I 137 W/m 10,9 C 12,7 C 1,6 km/h (1 Bft) 100,00 %
11.06.2016 06:49 12,7 C 89 % 1008,4 hPa 0,0 l/m 0,0 km/h (0 Bft) S-SO 155 1 min 0,000 mm 0,0 UV-I 165 W/m 10,9 C 12,7 C 0,0 km/h (0 Bft) 100,00 %
11.06.2016 06:50 12,8 C 89 % 1008,4 hPa 0,0 l/m 0,4 km/h (0 Bft) S-SO 155 1 min 0,000 mm 0,0 UV-I 189 W/m 11,0 C 12,8 C 1,6 km/h (1 Bft) 100,00 %
11.06.2016 06:51 12,8 C 89 % 1008,4 hPa 0,0 l/m 0,3 km/h (0 Bft) S-SO 155 1 min 0,000 mm 0,0 UV-I 196 W/m 11,0 C 12,8 C 1,6 km/h (1 Bft) 95,65 %
11.06.2016 06:52 12,9 C 89 % 1008,4 hPa 0,0 l/m 1,8 km/h (1 Bft) S-SO 155 1 min 0,000 mm 0,0 UV-I 212 W/m 11,1 C 12,9 C 3,2 km/h (1 Bft) 100,00 %
11.06.2016 06:53 13,1 C 89 % 1008,5 hPa 0,0 l/m 2,4 km/h (1 Bft) S-SO 155 1 min 0,000 mm 0,0 UV-I 236 W/m 11,3 C 13,1 C 3,2 km/h (1 Bft) 100,00 %
11.06.2016 06:54 13,2 C 89 % 1008,5 hPa 0,0 l/m 2,8 km/h (1 Bft) S-SO 155 1 min 0,000 mm 0,0 UV-I 229 W/m 11,4 C 13,2 C 3,2 km/h (1 Bft) 100,00 %
11.06.2016 06:55 13,2 C 88 % 1008,5 hPa 0,0 l/m 2,5 km/h (1 Bft) S-SO 155 1 min 0,000 mm 0,0 UV-I 214 W/m 11,3 C 13,2 C 3,2 km/h (1 Bft) 100,00 %
11.06.2016 06:56 13,2 C 88 % 1008,5 hPa 0,0 l/m 1,3 km/h (1 Bft) S-SO 155 1 min 0,000 mm 0,0 UV-I 187 W/m 11,3 C 13,2 C 3,2 km/h (1 Bft) 100,00 %
11.06.2016 06:57 13,3 C 88 % 1008,5 hPa 0,0 l/m 2,3 km/h (1 Bft) S-SO 155 1 min 0,000 mm 0,0 UV-I 172 W/m 11,4 C 13,3 C 3,2 km/h (1 Bft) 100,00 %
11.06.2016 06:58 13,3 C 88 % 1008,5 hPa 0,0 l/m 0,9 km/h (0 Bft) S-SO 155 0 min 0,000 mm 0,0 UV-I 142 W/m 11,4 C 13,3 C 1,6 km/h (1 Bft) 100,00 %
11.06.2016 06:59 13,4 C 88 % 1008,5 hPa 0,0 l/m 1,4 km/h (1 Bft) S-SO 155 0 min 0,000 mm 0,0 UV-I 130 W/m 11,5 C 13,4 C 1,6 km/h (1 Bft) 100,00 %
11.06.2016 07:00 13,5 C 88 % 1008,5 hPa 0,0 l/m 1,7 km/h (1 Bft) S-SO 155 0 min 0,051 mm 0,0 UV-I 123 W/m 11,6 C 13,5 C 3,2 km/h (1 Bft) 100,00 %
11.06.2016 07:01 13,5 C 86 % 1008,5 hPa 0,0 l/m 1,0 km/h (0 Bft) S-SO 155 0 min 0,000 mm 0,0 UV-I 121 W/m 11,2 C 13,5 C 1,6 km/h (1 Bft) 100,00 %
11.06.2016 07:02 13,6 C 85 % 1008,5 hPa 0,0 l/m 0,1 km/h (0 Bft) S-SO 155 0 min 0,000 mm 0,0 UV-I 122 W/m 11,1 C 13,6 C 1,6 km/h (1 Bft) 100,00 %
11.06.2016 07:03 13,6 C 86 % 1008,5 hPa 0,0 l/m 0,1 km/h (0 Bft) S-SO 155 0 min 0,000 mm 0,0 UV-I 123 W/m 11,3 C 13,6 C 1,6 km/h (1 Bft) 100,00 %
11.06.2016 07:04 13,6 C 85 % 1008,5 hPa 0,0 l/m 1,2 km/h (1 Bft) S-SO 155 0 min 0,000 mm 0,0 UV-I 125 W/m 11,1 C 13,6 C 3,2 km/h (1 Bft) 95,83 %
11.06.2016 07:05 13,6 C 85 % 1008,5 hPa 0,0 l/m 1,5 km/h (1 Bft) S-SO 155 0 min 0,000 mm 0,0 UV-I 129 W/m 11,1 C 13,6 C 1,6 km/h (1 Bft) 100,00 %
11.06.2016 07:06 13,7 C 85 % 1008,5 hPa 0,0 l/m 0,0 km/h (0 Bft) S-SO 155 0 min 0,000 mm 0,0 UV-I 131 W/m 11,2 C 13,7 C 0,0 km/h (0 Bft) 100,00 %
11.06.2016 07:07 13,7 C 86 % 1008,5 hPa 0,0 l/m 0,1 km/h (0 Bft) S-SO 155 0 min 0,000 mm 0,0 UV-I 132 W/m 11,4 C 13,7 C 1,6 km/h (1 Bft) 100,00 %
11.06.2016 07:08 13,7 C 85 % 1008,5 hPa 0,0 l/m 0,6 km/h (0 Bft) S-SO 155 0 min 0,000 mm 0,0 UV-I 132 W/m 11,2 C 13,7 C 1,6 km/h (1 Bft) 95,65 %
11.06.2016 07:09 13,7 C 84 % 1008,5 hPa 0,0 l/m 2,5 km/h (1 Bft) S-SO 155 0 min 0,000 mm 0,0 UV-I 132 W/m 11,0 C 13,7 C 3,2 km/h (1 Bft) 100,00 %
11.06.2016 07:10 13,7 C 85 % 1008,5 hPa 0,0 l/m 1,9 km/h (1 Bft) S-SO 155 0 min 0,000 mm 0,0 UV-I 132 W/m 11,2 C 13,7 C 3,2 km/h (1 Bft) 95,65 %
11.06.2016 07:11 13,8 C 85 % 1008,5 hPa 0,0 l/m 1,7 km/h (1 Bft) S-SO 155 0 min 0,000 mm 0,0 UV-I 132 W/m 11,3 C 13,8 C 3,2 km/h (1 Bft) 100,00 %
11.06.2016 07:12 13,8 C 84 % 1008,5 hPa 0,0 l/m 0,7 km/h (0 Bft) S-SO 155 0 min 0,000 mm 0,0 UV-I 133 W/m 11,1 C 13,8 C 1,6 km/h (1 Bft) 100,00 %
11.06.2016 07:13 13,8 C 85 % 1008,5 hPa 0,0 l/m 0,2 km/h (0 Bft) S-SO 155 0 min 0,000 mm 0,0 UV-I 135 W/m 11,3 C 13,8 C 1,6 km/h (1 Bft) 100,00 %
11.06.2016 07:14 13,8 C 85 % 1008,4 hPa 0,0 l/m 0,5 km/h (0 Bft) S-SO 155 0 min 0,000 mm 0,0 UV-I 138 W/m 11,3 C 13,8 C 1,6 km/h (1 Bft) 100,00 %
11.06.2016 07:15 13,8 C 84 % 1008,5 hPa 0,0 l/m 0,0 km/h (0 Bft) S-SO 155 0 min 0,000 mm 0,0 UV-I 149 W/m 11,1 C 13,8 C 0,0 km/h (0 Bft) 100,00 %
11.06.2016 07:16 13,9 C 85 % 1008,5 hPa 0,0 l/m 0,1 km/h (0 Bft) S-SO 155 0 min 0,000 mm 0,0 UV-I 162 W/m 11,4 C 13,9 C 1,6 km/h (1 Bft) 100,00 %
11.06.2016 07:17 13,9 C 84 % 1008,5 hPa 0,0 l/m 0,0 km/h (0 Bft) S-SO 155 0 min 0,000 mm 0,0 UV-I 157 W/m 11,2 C 13,9 C 0,0 km/h (0 Bft) 95,83 %
11.06.2016 07:18 14,0 C 85 % 1008,5 hPa 0,0 l/m 0,0 km/h (0 Bft) S-SO 155 0 min 0,000 mm 0,0 UV-I 155 W/m 11,5 C 14,0 C 0,0 km/h (0 Bft) 100,00 %
11.06.2016 07:19 14,1 C 85 % 1008,5 hPa 0,0 l/m 0,0 km/h (0 Bft) S-SO 155 0 min 0,000 mm 0,0 UV-I 159 W/m 11,6 C 14,1 C 0,0 km/h (0 Bft) 100,00 %
11.06.2016 07:20 14,1 C 85 % 1008,4 hPa 0,0 l/m 0,2 km/h (0 Bft) S-SO 155 0 min 0,000 mm 0,0 UV-I 163 W/m 11,6 C 14,1 C 1,6 km/h (1 Bft) 100,00 %
11.06.2016 07:21 14,2 C 83 % 1008,5 hPa 0,0 l/m 0,5 km/h (0 Bft) S-SO 155 0 min 0,000 mm 0,0 UV-I 161 W/m 11,4 C 14,2 C 1,6 km/h (1 Bft) 100,00 %
11.06.2016 07:22 14,2 C 83 % 1008,5 hPa 0,0 l/m 1,5 km/h (1 Bft) S-SO 155 0 min 0,000 mm 0,5 UV-I 167 W/m 11,4 C 14,2 C 3,2 km/h (1 Bft) 100,00 %
11.06.2016 07:23 14,2 C 83 % 1008,5 hPa 0,0 l/m 0,8 km/h (0 Bft) S-SO 155 0 min 0,000 mm 0,5 UV-I 181 W/m 11,4 C 14,2 C 1,6 km/h (1 Bft) 100,00 %
11.06.2016 07:24 14,2 C 83 % 1008,5 hPa 0,0 l/m 1,3 km/h (1 Bft) S-SO 155 1 min 0,000 mm 0,5 UV-I 192 W/m 11,4 C 14,2 C 3,2 km/h (1 Bft) 100,00 %
11.06.2016 07:25 14,2 C 84 % 1008,5 hPa 0,0 l/m 1,3 km/h (1 Bft) S-SO 155 1 min 0,000 mm 0,5 UV-I 194 W/m 11,5 C 14,2 C 3,2 km/h (1 Bft) 100,00 %
11.06.2016 07:26 14,2 C 83 % 1008,5 hPa 0,0 l/m 0,8 km/h (0 Bft) S-SO 155 1 min 0,000 mm 0,5 UV-I 195 W/m 11,4 C 14,2 C 1,6 km/h (1 Bft) 100,00 %
11.06.2016 07:27 14,2 C 83 % 1008,5 hPa 0,0 l/m 1,0 km/h (0 Bft) S-SO 155 1 min 0,000 mm 0,5 UV-I 201 W/m 11,4 C 14,2 C 3,2 km/h (1 Bft) 100,00 %
11.06.2016 07:28 14,2 C 83 % 1008,5 hPa 0,0 l/m 0,9 km/h (0 Bft) S-SO 155 1 min 0,000 mm 0,6 UV-I 218 W/m 11,4 C 14,2 C 3,2 km/h (1 Bft) 100,00 %
11.06.2016 07:29 14,2 C 83 % 1008,5 hPa 0,0 l/m 2,3 km/h (1 Bft) S-SO 155 1 min 0,000 mm 0,6 UV-I 235 W/m 11,4 C 14,2 C 3,2 km/h (1 Bft) 91,30 %
11.06.2016 07:30 14,2 C 83 % 1008,5 hPa 0,0 l/m 1,3 km/h (1 Bft) S-SO 155 1 min 0,000 mm 0,6 UV-I 231 W/m 11,4 C 14,2 C 1,6 km/h (1 Bft) 100,00 %
11.06.2016 07:31 14,2 C 83 % 1008,6 hPa 0,0 l/m 1,9 km/h (1 Bft) S-SO 155 1 min 0,000 mm 0,6 UV-I 215 W/m 11,4 C 14,2 C 3,2 km/h (1 Bft) 95,65 %
11.06.2016 07:32 14,3 C 84 % 1008,6 hPa 0,0 l/m 2,1 km/h (1 Bft) S-SO 155 1 min 0,000 mm 0,6 UV-I 212 W/m 11,6 C 14,3 C 3,2 km/h (1 Bft) 100,00 %
11.06.2016 07:33 14,3 C 85 % 1008,6 hPa 0,0 l/m 2,3 km/h (1 Bft) S-SO 156 1 min 0,000 mm 0,6 UV-I 216 W/m 11,8 C 14,3 C 3,2 km/h (1 Bft) 95,65 %
11.06.2016 07:34 14,3 C 84 % 1008,6 hPa 0,0 l/m 2,4 km/h (1 Bft) S-SO 156 1 min 0,000 mm 0,6 UV-I 240 W/m 11,6 C 14,3 C 3,2 km/h (1 Bft) 95,83 %
11.06.2016 07:35 14,4 C 85 % 1008,6 hPa 0,0 l/m 1,8 km/h (1 Bft) S-SO 156 1 min 0,000 mm 0,6 UV-I 278 W/m 11,9 C 14,4 C 3,2 km/h (1 Bft) 100,00 %
11.06.2016 07:36 14,4 C 84 % 1008,6 hPa 0,0 l/m 1,9 km/h (1 Bft) S-SO 156 1 min 0,000 mm 0,7 UV-I 292 W/m 11,7 C 14,4 C 4,8 km/h (1 Bft) 91,67 %
11.06.2016 07:37 14,4 C 84 % 1008,6 hPa 0,0 l/m 0,9 km/h (0 Bft) S-SO 156 1 min 0,000 mm 0,7 UV-I 299 W/m 11,7 C 14,4 C 1,6 km/h (1 Bft) 95,65 %
11.06.2016 07:38 14,4 C 84 % 1008,6 hPa 0,0 l/m 0,9 km/h (0 Bft) S-SO 156 1 min 0,000 mm 0,7 UV-I 302 W/m 11,7 C 14,4 C 1,6 km/h (1 Bft) 91,67 %
11.06.2016 07:39 14,4 C 84 % 1008,6 hPa 0,0 l/m 0,1 km/h (0 Bft) S-SO 156 1 min 0,000 mm 0,6 UV-I 237 W/m 11,7 C 14,4 C 1,6 km/h (1 Bft) 100,00 %
11.06.2016 07:40 14,5 C 85 % 1008,6 hPa 0,0 l/m 0,1 km/h (0 Bft) S-SO 156 1 min 0,000 mm 0,7 UV-I 239 W/m 12,0 C 14,5 C 1,6 km/h (1 Bft) 95,83 %
11.06.2016 07:41 14,6 C 84 % 1008,6 hPa 0,0 l/m 1,1 km/h (1 Bft) S-SO 156 1 min 0,000 mm 0,7 UV-I 236 W/m 11,9 C 14,6 C 3,2 km/h (1 Bft) 100,00 %
11.06.2016 07:42 14,5 C 84 % 1008,6 hPa 0,0 l/m 1,8 km/h (1 Bft) S-SO 156 0 min 0,000 mm 0,7 UV-I 214 W/m 11,8 C 14,5 C 3,2 km/h (1 Bft) 97,56 %
11.06.2016 07:43 14,5 C 83 % 1008,6 hPa 0,0 l/m 0,8 km/h (0 Bft) S-SO 156 0 min 0,000 mm 0,7 UV-I 206 W/m 11,6 C 14,5 C 3,2 km/h (1 Bft) 91,30 %
11.06.2016 07:44 14,5 C 83 % 1008,7 hPa 0,0 l/m 0,9 km/h (0 Bft) S-SO 156 1 min 0,000 mm 0,7 UV-I 225 W/m 11,6 C 14,5 C 1,6 km/h (1 Bft) 100,00 %
11.06.2016 07:45 14,6 C 84 % 1008,7 hPa 0,0 l/m 0,1 km/h (0 Bft) S-SO 156 1 min 0,000 mm 0,7 UV-I 240 W/m 11,9 C 14,6 C 1,6 km/h (1 Bft) 95,83 %
11.06.2016 07:46 14,6 C 84 % 1008,7 hPa 0,0 l/m 1,3 km/h (1 Bft) S-SO 156 1 min 0,000 mm 0,8 UV-I 286 W/m 11,9 C 14,6 C 1,6 km/h (1 Bft) 100,00 %
11.06.2016 07:47 14,6 C 84 % 1008,7 hPa 0,0 l/m 0,9 km/h (0 Bft) S-SO 156 1 min 0,000 mm 0,7 UV-I 227 W/m 11,9 C 14,6 C 3,2 km/h (1 Bft) 95,83 %
11.06.2016 07:48 14,6 C 84 % 1008,7 hPa 0,0 l/m 1,7 km/h (1 Bft) S-SO 156 0 min 0,000 mm 0,7 UV-I 215 W/m 11,9 C 14,6 C 3,2 km/h (1 Bft) 95,65 %
11.06.2016 07:49 14,6 C 84 % 1008,8 hPa 0,0 l/m 0,3 km/h (0 Bft) S-SO 156 1 min 0,000 mm 0,8 UV-I 254 W/m 11,9 C 14,6 C 1,6 km/h (1 Bft) 95,83 %
11.06.2016 07:50 14,6 C 84 % 1008,8 hPa 0,0 l/m 1,0 km/h (0 Bft) S-SO 156 1 min 0,000 mm 0,8 UV-I 277 W/m 11,9 C 14,6 C 1,6 km/h (1 Bft) 91,30 %
11.06.2016 07:51 14,7 C 85 % 1008,8 hPa 0,0 l/m 1,9 km/h (1 Bft) S-SO 156 1 min 0,000 mm 0,9 UV-I 353 W/m 12,2 C 14,7 C 3,2 km/h (1 Bft) 100,00 %
11.06.2016 07:52 14,7 C 85 % 1008,8 hPa 0,0 l/m 2,2 km/h (1 Bft) S-SO 156 1 min 0,000 mm 0,9 UV-I 378 W/m 12,2 C 14,7 C 3,2 km/h (1 Bft) 95,65 %
11.06.2016 07:53 14,8 C 85 % 1008,8 hPa 0,0 l/m 0,8 km/h (0 Bft) S-SO 156 1 min 0,000 mm 0,9 UV-I 385 W/m 12,3 C 14,8 C 3,2 km/h (1 Bft) 100,00 %
11.06.2016 07:54 14,8 C 86 % 1008,7 hPa 0,0 l/m 2,0 km/h (1 Bft) S-SO 156 1 min 0,000 mm 0,9 UV-I 366 W/m 12,5 C 14,8 C 3,2 km/h (1 Bft) 95,65 %
11.06.2016 07:55 14,9 C 83 % 1008,7 hPa 0,0 l/m 1,4 km/h (1 Bft) S-SO 156 1 min 0,000 mm 0,9 UV-I 364 W/m 12,0 C 14,9 C 1,6 km/h (1 Bft) 100,00 %
11.06.2016 07:56 14,9 C 85 % 1008,7 hPa 0,0 l/m 1,5 km/h (1 Bft) S-SO 156 1 min 0,000 mm 0,9 UV-I 366 W/m 12,4 C 14,9 C 3,2 km/h (1 Bft) 95,65 %
11.06.2016 07:57 14,9 C 83 % 1008,7 hPa 0,0 l/m 1,7 km/h (1 Bft) S-SO 156 1 min 0,000 mm 0,9 UV-I 290 W/m 12,0 C 14,9 C 3,2 km/h (1 Bft) 100,00 %
11.06.2016 07:58 15,0 C 84 % 1008,7 hPa 0,0 l/m 0,5 km/h (0 Bft) S-SO 156 1 min 0,000 mm 0,8 UV-I 268 W/m 12,3 C 15,0 C 1,6 km/h (1 Bft) 95,65 %
11.06.2016 07:59 15,1 C 84 % 1008,8 hPa 0,0 l/m 1,9 km/h (1 Bft) S-SO 156 1 min 0,000 mm 0,9 UV-I 270 W/m 12,4 C 15,1 C 3,2 km/h (1 Bft) 100,00 %
11.06.2016 08:00 15,1 C 83 % 1008,8 hPa 0,0 l/m 2,5 km/h (1 Bft) S-SO 157 0 min 0,101 mm 0,8 UV-I 239 W/m 12,2 C 15,1 C 8,0 km/h (2 Bft) 95,83 %
11.06.2016 08:01 15,1 C 84 % 1008,8 hPa 0,0 l/m 2,9 km/h (1 Bft) S-SO 157 0 min 0,000 mm 0,8 UV-I 239 W/m 12,4 C 15,1 C 4,8 km/h (1 Bft) 91,30 %
11.06.2016 08:02 15,1 C 83 % 1008,8 hPa 0,0 l/m 3,4 km/h (1 Bft) S-SO 157 0 min 0,000 mm 0,8 UV-I 229 W/m 12,2 C 15,1 C 4,8 km/h (1 Bft) 100,00 %
11.06.2016 08:03 15,1 C 83 % 1008,8 hPa 0,0 l/m 3,1 km/h (1 Bft) S-SO 157 0 min 0,000 mm 0,8 UV-I 208 W/m 12,2 C 15,1 C 4,8 km/h (1 Bft) 100,00 %
11.06.2016 08:04 15,1 C 83 % 1008,8 hPa 0,0 l/m 3,7 km/h (1 Bft) S-SO 158 0 min 0,000 mm 0,8 UV-I 192 W/m 12,2 C 15,1 C 8,0 km/h (2 Bft) 95,83 %
11.06.2016 08:05 15,1 C 81 % 1008,8 hPa 0,0 l/m 2,7 km/h (1 Bft) S-SO 158 0 min 0,000 mm 0,8 UV-I 200 W/m 11,9 C 15,1 C 4,8 km/h (1 Bft) 100,00 %
11.06.2016 08:06 15,1 C 82 % 1008,8 hPa 0,0 l/m 2,7 km/h (1 Bft) S-SO 158 0 min 0,000 mm 0,8 UV-I 204 W/m 12,0 C 15,1 C 3,2 km/h (1 Bft) 100,00 %
11.06.2016 08:07 15,0 C 81 % 1008,9 hPa 0,0 l/m 2,5 km/h (1 Bft) S-SO 158 0 min 0,000 mm 0,8 UV-I 191 W/m 11,8 C 15,0 C 4,8 km/h (1 Bft) 100,00 %
11.06.2016 08:08 15,0 C 82 % 1008,8 hPa 0,0 l/m 1,5 km/h (1 Bft) S-SO 158 0 min 0,000 mm 0,9 UV-I 193 W/m 12,0 C 15,0 C 3,2 km/h (1 Bft) 100,00 %
11.06.2016 08:09 15,0 C 83 % 1008,8 hPa 0,0 l/m 2,7 km/h (1 Bft) S-SO 158 0 min 0,000 mm 0,9 UV-I 202 W/m 12,1 C 15,0 C 3,2 km/h (1 Bft) 100,00 %
11.06.2016 08:10 15,0 C 82 % 1008,9 hPa 0,0 l/m 1,9 km/h (1 Bft) S-SO 158 0 min 0,000 mm 0,9 UV-I 209 W/m 12,0 C 15,0 C 3,2 km/h (1 Bft) 96,30 %
11.06.2016 08:11 15,1 C 82 % 1008,9 hPa 0,0 l/m 2,4 km/h (1 Bft) S-SO 158 0 min 0,000 mm 0,9 UV-I 221 W/m 12,0 C 15,1 C 4,8 km/h (1 Bft) 100,00 %
11.06.2016 08:12 15,1 C 83 % 1008,9 hPa 0,0 l/m 2,3 km/h (1 Bft) S-SO 158 0 min 0,000 mm 1,0 UV-I 251 W/m 12,2 C 15,1 C 3,2 km/h (1 Bft) 100,00 %
11.06.2016 08:13 15,1 C 82 % 1008,9 hPa 0,0 l/m 2,9 km/h (1 Bft) S-SO 158 1 min 0,000 mm 1,0 UV-I 262 W/m 12,0 C 15,1 C 4,8 km/h (1 Bft) 100,00 %
11.06.2016 08:14 15,1 C 82 % 1008,9 hPa 0,0 l/m 2,9 km/h (1 Bft) S-SO 158 1 min 0,000 mm 1,1 UV-I 322 W/m 12,0 C 15,1 C 4,8 km/h (1 Bft) 95,83 %
11.06.2016 08:15 15,2 C 83 % 1008,9 hPa 0,0 l/m 3,3 km/h (1 Bft) S-SO 158 1 min 0,000 mm 1,1 UV-I 342 W/m 12,3 C 15,2 C 4,8 km/h (1 Bft) 100,00 %
11.06.2016 08:16 15,2 C 83 % 1008,9 hPa 0,0 l/m 3,2 km/h (1 Bft) S-SO 158 1 min 0,000 mm 1,2 UV-I 386 W/m 12,3 C 15,2 C 4,8 km/h (1 Bft) 100,00 %
11.06.2016 08:17 15,3 C 84 % 1008,9 hPa 0,0 l/m 2,4 km/h (1 Bft) S-SO 158 1 min 0,000 mm 1,2 UV-I 398 W/m 12,6 C 15,3 C 3,2 km/h (1 Bft) 95,65 %
11.06.2016 08:18 15,4 C 83 % 1008,9 hPa 0,0 l/m 1,7 km/h (1 Bft) S-SO 158 1 min 0,000 mm 1,1 UV-I 353 W/m 12,5 C 15,4 C 3,2 km/h (1 Bft) 100,00 %
11.06.2016 08:19 15,4 C 83 % 1008,9 hPa 0,0 l/m 1,5 km/h (1 Bft) S-SO 158 1 min 0,000 mm 1,1 UV-I 305 W/m 12,5 C 15,4 C 3,2 km/h (1 Bft) 100,00 %
11.06.2016 08:20 15,5 C 82 % 1008,9 hPa 0,0 l/m 4,1 km/h (1 Bft) S-SO 159 0 min 0,000 mm 1,0 UV-I 268 W/m 12,4 C 15,5 C 6,4 km/h (2 Bft) 100,00 %
11.06.2016 08:21 15,5 C 81 % 1008,9 hPa 0,0 l/m 2,1 km/h (1 Bft) S-SO 159 0 min 0,000 mm 1,0 UV-I 261 W/m 12,3 C 15,5 C 3,2 km/h (1 Bft) 100,00 %
11.06.2016 08:22 15,4 C 81 % 1009,0 hPa 0,0 l/m 1,2 km/h (1 Bft) S-SO 159 0 min 0,000 mm 1,0 UV-I 269 W/m 12,2 C 15,4 C 3,2 km/h (1 Bft) 100,00 %
11.06.2016 08:23 15,4 C 82 % 1008,9 hPa 0,0 l/m 1,5 km/h (1 Bft) S-SO 159 0 min 0,000 mm 1,0 UV-I 262 W/m 12,3 C 15,4 C 3,2 km/h (1 Bft) 100,00 %
11.06.2016 08:24 15,4 C 82 % 1009,0 hPa 0,0 l/m 1,5 km/h (1 Bft) S-SO 159 0 min 0,000 mm 1,0 UV-I 246 W/m 12,3 C 15,4 C 1,6 km/h (1 Bft) 100,00 %
11.06.2016 08:25 15,4 C 81 % 1009,0 hPa 0,0 l/m 0,6 km/h (0 Bft) S-SO 159 0 min 0,000 mm 1,1 UV-I 248 W/m 12,2 C 15,4 C 3,2 km/h (1 Bft) 100,00 %
11.06.2016 08:26 15,4 C 82 % 1009,0 hPa 0,0 l/m 2,3 km/h (1 Bft) S-SO 159 0 min 0,000 mm 1,1 UV-I 257 W/m 12,3 C 15,4 C 6,4 km/h (2 Bft) 95,65 %
11.06.2016 08:27 15,4 C 83 % 1009,0 hPa 0,0 l/m 2,4 km/h (1 Bft) S-SO 159 0 min 0,000 mm 1,1 UV-I 269 W/m 12,5 C 15,4 C 6,4 km/h (2 Bft) 100,00 %
11.06.2016 08:28 15,4 C 81 % 1009,0 hPa 0,0 l/m 3,1 km/h (1 Bft) S-SO 159 0 min 0,000 mm 1,1 UV-I 277 W/m 12,2 C 15,4 C 6,4 km/h (2 Bft) 100,00 %
11.06.2016 08:29 15,4 C 81 % 1009,0 hPa 0,0 l/m 2,1 km/h (1 Bft) S-SO 159 1 min 0,000 mm 1,1 UV-I 288 W/m 12,2 C 15,4 C 6,4 km/h (2 Bft) 95,83 %
11.06.2016 08:30 15,4 C 83 % 1009,0 hPa 0,0 l/m 3,4 km/h (1 Bft) S-SO 159 1 min 0,000 mm 1,2 UV-I 312 W/m 12,5 C 15,4 C 6,4 km/h (2 Bft) 95,65 %
11.06.2016 08:31 15,5 C 82 % 1009,0 hPa 0,0 l/m 2,8 km/h (1 Bft) S-SO 159 1 min 0,000 mm 1,2 UV-I 337 W/m 12,4 C 15,5 C 6,4 km/h (2 Bft) 100,00 %
11.06.2016 08:32 15,6 C 82 % 1009,0 hPa 0,0 l/m 2,5 km/h (1 Bft) S-SO 159 1 min 0,000 mm 1,1 UV-I 327 W/m 12,5 C 15,6 C 3,2 km/h (1 Bft) 100,00 %
11.06.2016 08:33 15,6 C 81 % 1009,0 hPa 0,0 l/m 1,0 km/h (0 Bft) S-SO 159 1 min 0,000 mm 1,2 UV-I 342 W/m 12,3 C 15,6 C 1,6 km/h (1 Bft) 100,00 %
11.06.2016 08:34 15,7 C 81 % 1009,0 hPa 0,0 l/m 0,4 km/h (0 Bft) S-SO 159 1 min 0,000 mm 1,2 UV-I 363 W/m 12,4 C 15,7 C 1,6 km/h (1 Bft) 100,00 %
11.06.2016 08:35 15,7 C 81 % 1009,0 hPa 0,0 l/m 0,6 km/h (0 Bft) S-SO 159 1 min 0,000 mm 1,2 UV-I 343 W/m 12,4 C 15,7 C 1,6 km/h (1 Bft) 100,00 %
11.06.2016 08:36 15,7 C 82 % 1008,9 hPa 0,0 l/m 1,5 km/h (1 Bft) S-SO 159 1 min 0,000 mm 1,2 UV-I 356 W/m 12,6 C 15,7 C 3,2 km/h (1 Bft) 95,65 %
11.06.2016 08:37 15,8 C 81 % 1009,0 hPa 0,0 l/m 2,7 km/h (1 Bft) S-SO 159 1 min 0,000 mm 1,2 UV-I 370 W/m 12,5 C 15,8 C 6,4 km/h (2 Bft) 100,00 %
11.06.2016 08:38 15,8 C 81 % 1009,0 hPa 0,0 l/m 3,5 km/h (1 Bft) S-SO 160 1 min 0,000 mm 1,2 UV-I 336 W/m 12,5 C 15,8 C 6,4 km/h (2 Bft) 100,00 %
11.06.2016 08:39 15,8 C 80 % 1008,9 hPa 0,0 l/m 3,8 km/h (1 Bft) S-SO 160 0 min 0,000 mm 1,1 UV-I 286 W/m 12,4 C 15,8 C 6,4 km/h (2 Bft) 100,00 %
11.06.2016 08:40 15,8 C 80 % 1008,9 hPa 0,0 l/m 2,6 km/h (1 Bft) S-SO 160 0 min 0,000 mm 1,2 UV-I 290 W/m 12,4 C 15,8 C 6,4 km/h (2 Bft) 100,00 %
11.06.2016 08:41 15,8 C 82 % 1008,9 hPa 0,0 l/m 1,6 km/h (1 Bft) S-SO 160 1 min 0,000 mm 1,2 UV-I 325 W/m 12,7 C 15,8 C 3,2 km/h (1 Bft) 100,00 %
11.06.2016 08:42 15,9 C 82 % 1008,9 hPa 0,0 l/m 1,7 km/h (1 Bft) S-SO 160 1 min 0,000 mm 1,2 UV-I 312 W/m 12,8 C 15,9 C 3,2 km/h (1 Bft) 100,00 %
11.06.2016 08:43 16,0 C 82 % 1008,9 hPa 0,0 l/m 1,9 km/h (1 Bft) S-SO 160 0 min 0,000 mm 1,2 UV-I 297 W/m 12,9 C 16,0 C 3,2 km/h (1 Bft) 100,00 %
11.06.2016 08:44 16,0 C 82 % 1009,0 hPa 0,0 l/m 1,7 km/h (1 Bft) S-SO 160 1 min 0,000 mm 1,2 UV-I 303 W/m 12,9 C 16,0 C 3,2 km/h (1 Bft) 100,00 %
11.06.2016 08:45 16,1 C 81 % 1009,0 hPa 0,0 l/m 1,3 km/h (1 Bft) S-SO 160 1 min 0,000 mm 1,2 UV-I 312 W/m 12,8 C 16,1 C 3,2 km/h (1 Bft) 100,00 %
11.06.2016 08:46 16,1 C 80 % 1009,0 hPa 0,0 l/m 1,9 km/h (1 Bft) S-SO 160 1 min 0,000 mm 1,2 UV-I 304 W/m 12,6 C 16,1 C 3,2 km/h (1 Bft) 100,00 %
11.06.2016 08:47 16,0 C 81 % 1009,0 hPa 0,0 l/m 1,2 km/h (1 Bft) S-SO 160 0 min 0,000 mm 1,2 UV-I 282 W/m 12,7 C 16,0 C 1,6 km/h (1 Bft) 95,65 %
11.06.2016 08:48 16,0 C 80 % 1009,0 hPa 0,0 l/m 0,1 km/h (0 Bft) S-SO 160 0 min 0,000 mm 1,1 UV-I 258 W/m 12,5 C 16,0 C 1,6 km/h (1 Bft) 95,83 %
11.06.2016 08:49 16,0 C 80 % 1009,0 hPa 0,0 l/m 0,5 km/h (0 Bft) S-SO 160 0 min 0,000 mm 1,0 UV-I 238 W/m 12,5 C 16,0 C 1,6 km/h (1 Bft) 100,00 %
11.06.2016 08:50 16,0 C 82 % 1009,0 hPa 0,0 l/m 0,9 km/h (0 Bft) S-SO 160 0 min 0,000 mm 1,0 UV-I 231 W/m 12,9 C 16,0 C 3,2 km/h (1 Bft) 100,00 %
11.06.2016 08:51 16,0 C 81 % 1009,0 hPa 0,0 l/m 2,3 km/h (1 Bft) S-SO 160 0 min 0,000 mm 1,0 UV-I 217 W/m 12,7 C 16,0 C 3,2 km/h (1 Bft) 100,00 %
11.06.2016 08:52 16,1 C 79 % 1009,0 hPa 0,0 l/m 1,6 km/h (1 Bft) S-SO 160 0 min 0,000 mm 1,0 UV-I 205 W/m 12,5 C 16,1 C 3,2 km/h (1 Bft) 100,00 %
11.06.2016 08:53 16,0 C 79 % 1009,0 hPa 0,0 l/m 0,0 km/h (0 Bft) S-SO 160 0 min 0,000 mm 1,0 UV-I 198 W/m 12,4 C 16,0 C 0,0 km/h (0 Bft) 100,00 %
11.06.2016 08:54 16,0 C 79 % 1009,0 hPa 0,0 l/m 0,0 km/h (0 Bft) S-SO 160 0 min 0,000 mm 1,0 UV-I 195 W/m 12,4 C 16,0 C 0,0 km/h (0 Bft) 100,00 %
11.06.2016 08:55 16,0 C 80 % 1009,0 hPa 0,0 l/m 0,0 km/h (0 Bft) S-SO 160 0 min 0,000 mm 1,0 UV-I 195 W/m 12,5 C 16,0 C 0,0 km/h (0 Bft) 100,00 %
11.06.2016 08:56 16,1 C 81 % 1009,0 hPa 0,0 l/m 0,0 km/h (0 Bft) S-SO 160 0 min 0,000 mm 1,0 UV-I 198 W/m 12,8 C 16,1 C 0,0 km/h (0 Bft) 100,00 %
11.06.2016 08:57 16,1 C 82 % 1009,0 hPa 0,0 l/m 0,0 km/h (0 Bft) S-SO 160 0 min 0,000 mm 1,1 UV-I 202 W/m 13,0 C 16,1 C 0,0 km/h (0 Bft) 100,00 %
11.06.2016 08:58 16,1 C 82 % 1009,0 hPa 0,0 l/m 0,3 km/h (0 Bft) S-SO 160 0 min 0,000 mm 1,1 UV-I 209 W/m 13,0 C 16,1 C 1,6 km/h (1 Bft) 100,00 %
11.06.2016 08:59 16,2 C 82 % 1009,0 hPa 0,0 l/m 0,8 km/h (0 Bft) S-SO 160 0 min 0,000 mm 1,1 UV-I 215 W/m 13,1 C 16,2 C 1,6 km/h (1 Bft) 100,00 %
11.06.2016 09:00 16,2 C 82 % 1009,0 hPa 0,0 l/m 0,5 km/h (0 Bft) S-SO 160 0 min 0,153 mm 1,2 UV-I 222 W/m 13,1 C 16,2 C 1,6 km/h (1 Bft) 100,00 %
11.06.2016 09:01 16,2 C 82 % 1009,0 hPa 0,0 l/m 0,0 km/h (0 Bft) S-SO 160 0 min 0,000 mm 1,2 UV-I 231 W/m 13,1 C 16,2 C 0,0 km/h (0 Bft) 100,00 %
11.06.2016 09:02 16,3 C 82 % 1009,0 hPa 0,0 l/m 0,0 km/h (0 Bft) S-SO 160 0 min 0,000 mm 1,2 UV-I 239 W/m 13,2 C 16,3 C 0,0 km/h (0 Bft) 100,00 %
11.06.2016 09:03 16,3 C 83 % 1009,1 hPa 0,0 l/m 0,1 km/h (0 Bft) S-SO 160 0 min 0,000 mm 1,2 UV-I 247 W/m 13,4 C 16,3 C 1,6 km/h (1 Bft) 100,00 %
11.06.2016 09:04 16,3 C 84 % 1009,0 hPa 0,0 l/m 0,4 km/h (0 Bft) S-SO 160 0 min 0,000 mm 1,2 UV-I 254 W/m 13,6 C 16,3 C 1,6 km/h (1 Bft) 100,00 %
11.06.2016 09:05 16,4 C 82 % 1009,1 hPa 0,0 l/m 0,0 km/h (0 Bft) S-SO 160 0 min 0,000 mm 1,3 UV-I 261 W/m 13,3 C 16,4 C 0,0 km/h (0 Bft) 100,00 %
11.06.2016 09:06 16,4 C 82 % 1009,1 hPa 0,0 l/m 1,0 km/h (0 Bft) S-SO 160 0 min 0,000 mm 1,3 UV-I 265 W/m 13,3 C 16,4 C 1,6 km/h (1 Bft) 100,00 %
11.06.2016 09:07 16,4 C 81 % 1009,1 hPa 0,0 l/m 0,7 km/h (0 Bft) S-SO 160 0 min 0,000 mm 1,3 UV-I 268 W/m 13,1 C 16,4 C 1,6 km/h (1 Bft) 100,00 %
11.06.2016 09:08 16,4 C 81 % 1009,1 hPa 0,0 l/m 0,6 km/h (0 Bft) S-SO 160 0 min 0,000 mm 1,3 UV-I 275 W/m 13,1 C 16,4 C 1,6 km/h (1 Bft) 100,00 %
11.06.2016 09:09 16,4 C 80 % 1009,1 hPa 0,0 l/m 0,0 km/h (0 Bft) S-SO 160 0 min 0,000 mm 1,3 UV-I 273 W/m 12,9 C 16,4 C 0,0 km/h (0 Bft) 100,00 %
11.06.2016 09:10 16,4 C 81 % 1009,2 hPa 0,0 l/m 0,2 km/h (0 Bft) S-SO 160 0 min 0,000 mm 1,3 UV-I 264 W/m 13,1 C 16,4 C 1,6 km/h (1 Bft) 100,00 %
11.06.2016 09:11 16,4 C 80 % 1009,1 hPa 0,0 l/m 0,2 km/h (0 Bft) S-SO 160 0 min 0,000 mm 1,3 UV-I 258 W/m 12,9 C 16,4 C 1,6 km/h (1 Bft) 100,00 %
11.06.2016 09:12 16,4 C 80 % 1009,1 hPa 0,0 l/m 0,5 km/h (0 Bft) S-SO 160 0 min 0,000 mm 1,3 UV-I 257 W/m 12,9 C 16,4 C 1,6 km/h (1 Bft) 95,65 %
11.06.2016 09:13 16,4 C 81 % 1009,2 hPa 0,0 l/m 0,0 km/h (0 Bft) S-SO 160 0 min 0,000 mm 1,3 UV-I 258 W/m 13,1 C 16,4 C 0,0 km/h (0 Bft) 100,00 %
11.06.2016 09:14 16,4 C 81 % 1009,1 hPa 0,0 l/m 0,1 km/h (0 Bft) S-SO 160 0 min 0,000 mm 1,3 UV-I 261 W/m 13,1 C 16,4 C 1,6 km/h (1 Bft) 100,00 %
11.06.2016 09:15 16,4 C 81 % 1009,2 hPa 0,0 l/m 1,2 km/h (1 Bft) S-SO 160 0 min 0,000 mm 1,3 UV-I 266 W/m 13,1 C 16,4 C 3,2 km/h (1 Bft) 100,00 %
11.06.2016 09:16 16,5 C 82 % 1009,2 hPa 0,0 l/m 1,0 km/h (0 Bft) S-SO 160 0 min 0,000 mm 1,4 UV-I 270 W/m 13,4 C 16,5 C 3,2 km/h (1 Bft) 100,00 %
11.06.2016 09:17 16,5 C 82 % 1009,2 hPa 0,0 l/m 0,0 km/h (0 Bft) S-SO 160 0 min 0,000 mm 1,4 UV-I 276 W/m 13,4 C 16,5 C 0,0 km/h (0 Bft) 100,00 %
11.06.2016 09:18 16,5 C 81 % 1009,1 hPa 0,0 l/m 0,2 km/h (0 Bft) S-SO 160 0 min 0,000 mm 1,4 UV-I 283 W/m 13,2 C 16,5 C 1,6 km/h (1 Bft) 95,65 %
11.06.2016 09:19 16,6 C 82 % 1009,1 hPa 0,0 l/m 1,1 km/h (1 Bft) S-SO 160 0 min 0,000 mm 1,5 UV-I 289 W/m 13,5 C 16,6 C 3,2 km/h (1 Bft) 95,83 %
11.06.2016 09:20 16,6 C 83 % 1009,1 hPa 0,0 l/m 4,2 km/h (1 Bft) O-NO 61 0 min 0,000 mm 1,5 UV-I 296 W/m 13,7 C 16,6 C 4,8 km/h (1 Bft) 100,00 %
11.06.2016 09:21 16,6 C 82 % 1009,1 hPa 0,0 l/m 1,8 km/h (1 Bft) O-NO 61 0 min 0,000 mm 1,5 UV-I 299 W/m 13,5 C 16,6 C 3,2 km/h (1 Bft) 100,00 %
11.06.2016 09:22 16,6 C 80 % 1009,1 hPa 0,0 l/m 1,0 km/h (0 Bft) O-NO 61 0 min 0,000 mm 1,5 UV-I 298 W/m 13,1 C 16,6 C 1,6 km/h (1 Bft) 100,00 %
11.06.2016 09:23 16,6 C 80 % 1009,1 hPa 0,0 l/m 0,8 km/h (0 Bft) O-NO 61 0 min 0,000 mm 1,5 UV-I 299 W/m 13,1 C 16,6 C 3,2 km/h (1 Bft) 100,00 %
11.06.2016 09:24 16,6 C 82 % 1009,1 hPa 0,0 l/m 3,3 km/h (1 Bft) O-NO 61 0 min 0,000 mm 1,5 UV-I 302 W/m 13,5 C 16,6 C 4,8 km/h (1 Bft) 91,67 %
11.06.2016 09:25 16,6 C 81 % 1009,1 hPa 0,0 l/m 3,9 km/h (1 Bft) O-NO 61 0 min 0,000 mm 1,5 UV-I 305 W/m 13,3 C 16,6 C 4,8 km/h (1 Bft) 100,00 %
11.06.2016 09:26 16,7 C 80 % 1009,1 hPa 0,0 l/m 3,7 km/h (1 Bft) O-NO 60 0 min 0,000 mm 1,5 UV-I 310 W/m 13,2 C 16,7 C 4,8 km/h (1 Bft) 100,00 %
11.06.2016 09:27 16,7 C 82 % 1009,1 hPa 0,0 l/m 2,1 km/h (1 Bft) O-NO 60 0 min 0,000 mm 1,5 UV-I 303 W/m 13,6 C 16,7 C 3,2 km/h (1 Bft) 100,00 %
11.06.2016 09:28 16,8 C 81 % 1009,1 hPa 0,0 l/m 3,7 km/h (1 Bft) O-NO 60 0 min 0,000 mm 1,5 UV-I 302 W/m 13,5 C 16,8 C 4,8 km/h (1 Bft) 100,00 %
11.06.2016 09:29 16,8 C 81 % 1009,1 hPa 0,0 l/m 3,1 km/h (1 Bft) O-NO 60 0 min 0,000 mm 1,5 UV-I 301 W/m 13,5 C 16,8 C 4,8 km/h (1 Bft) 82,61 %
11.06.2016 09:30 16,8 C 80 % 1009,1 hPa 0,0 l/m 1,9 km/h (1 Bft) O-NO 60 0 min 0,000 mm 1,5 UV-I 307 W/m 13,3 C 16,8 C 3,2 km/h (1 Bft) 100,00 %
11.06.2016 09:31 16,8 C 81 % 1009,1 hPa 0,0 l/m 2,9 km/h (1 Bft) O-NO 60 0 min 0,000 mm 1,5 UV-I 312 W/m 13,5 C 16,8 C 4,8 km/h (1 Bft) 95,65 %
11.06.2016 09:32 16,8 C 81 % 1009,0 hPa 0,0 l/m 3,6 km/h (1 Bft) O-NO 60 0 min 0,000 mm 1,5 UV-I 308 W/m 13,5 C 16,8 C 4,8 km/h (1 Bft) 100,00 %
11.06.2016 09:33 16,8 C 81 % 1009,0 hPa 0,0 l/m 5,1 km/h (1 Bft) NO 44 0 min 0,000 mm 1,5 UV-I 304 W/m 13,5 C 16,8 C 8,0 km/h (2 Bft) 95,65 %
11.06.2016 09:34 16,8 C 82 % 1009,0 hPa 0,0 l/m 4,6 km/h (1 Bft) NO 40 0 min 0,000 mm 1,5 UV-I 300 W/m 13,7 C 16,8 C 6,4 km/h (2 Bft) 100,00 %
11.06.2016 09:35 16,9 C 82 % 1009,0 hPa 0,0 l/m 5,0 km/h (1 Bft) NO 50 0 min 0,000 mm 1,5 UV-I 290 W/m 13,8 C 16,9 C 6,4 km/h (2 Bft) 91,30 %
11.06.2016 09:36 16,9 C 81 % 1008,9 hPa 0,0 l/m 3,2 km/h (1 Bft) NO 49 0 min 0,000 mm 1,5 UV-I 285 W/m 13,6 C 16,9 C 4,8 km/h (1 Bft) 96,30 %
11.06.2016 09:37 16,8 C 81 % 1008,9 hPa 0,0 l/m 5,7 km/h (1 Bft) NO 40 0 min 0,000 mm 1,5 UV-I 283 W/m 13,5 C 16,8 C 8,0 km/h (2 Bft) 100,00 %
11.06.2016 09:38 16,8 C 82 % 1009,0 hPa 0,0 l/m 6,1 km/h (2 Bft) NO 40 0 min 0,000 mm 1,5 UV-I 284 W/m 13,7 C 16,8 C 6,4 km/h (2 Bft) 95,83 %
11.06.2016 09:39 16,8 C 82 % 1008,9 hPa 0,0 l/m 5,6 km/h (1 Bft) NO 42 0 min 0,000 mm 1,5 UV-I 286 W/m 13,7 C 16,8 C 6,4 km/h (2 Bft) 100,00 %
11.06.2016 09:40 16,8 C 81 % 1008,9 hPa 0,0 l/m 5,5 km/h (1 Bft) NO 42 0 min 0,000 mm 1,5 UV-I 287 W/m 13,5 C 16,8 C 8,0 km/h (2 Bft) 96,30 %
11.06.2016 09:41 16,8 C 81 % 1008,9 hPa 0,0 l/m 4,4 km/h (1 Bft) NO 42 0 min 0,000 mm 1,6 UV-I 288 W/m 13,5 C 16,8 C 6,4 km/h (2 Bft) 96,15 %
11.06.2016 09:42 16,8 C 81 % 1008,9 hPa 0,0 l/m 4,6 km/h (1 Bft) NO 42 0 min 0,000 mm 1,6 UV-I 292 W/m 13,5 C 16,8 C 6,4 km/h (2 Bft) 100,00 %
11.06.2016 09:43 16,8 C 81 % 1008,9 hPa 0,0 l/m 4,1 km/h (1 Bft) NO 42 0 min 0,000 mm 1,6 UV-I 295 W/m 13,5 C 16,8 C 4,8 km/h (1 Bft) 100,00 %
11.06.2016 09:44 16,8 C 82 % 1008,9 hPa 0,0 l/m 2,9 km/h (1 Bft) NO 42 0 min 0,000 mm 1,6 UV-I 299 W/m 13,7 C 16,8 C 3,2 km/h (1 Bft) 95,65 %
11.06.2016 09:45 16,8 C 81 % 1009,0 hPa 0,0 l/m 2,8 km/h (1 Bft) NO 42 0 min 0,000 mm 1,7 UV-I 304 W/m 13,5 C 16,8 C 4,8 km/h (1 Bft) 95,83 %
11.06.2016 09:46 16,8 C 80 % 1009,0 hPa 0,0 l/m 3,8 km/h (1 Bft) N-NO 33 0 min 0,000 mm 1,7 UV-I 310 W/m 13,3 C 16,8 C 6,4 km/h (2 Bft) 100,00 %
11.06.2016 09:47 16,8 C 81 % 1009,0 hPa 0,0 l/m 4,4 km/h (1 Bft) N-NO 32 0 min 0,000 mm 1,8 UV-I 316 W/m 13,5 C 16,8 C 6,4 km/h (2 Bft) 95,83 %
11.06.2016 09:48 16,8 C 81 % 1009,0 hPa 0,0 l/m 2,2 km/h (1 Bft) N-NO 32 0 min 0,000 mm 1,8 UV-I 329 W/m 13,5 C 16,8 C 3,2 km/h (1 Bft) 100,00 %
11.06.2016 09:49 16,9 C 81 % 1009,0 hPa 0,0 l/m 3,4 km/h (1 Bft) NO 35 0 min 0,000 mm 1,9 UV-I 348 W/m 13,6 C 16,9 C 4,8 km/h (1 Bft) 91,67 %
11.06.2016 09:50 16,9 C 81 % 1009,1 hPa 0,0 l/m 4,3 km/h (1 Bft) NO 35 0 min 0,000 mm 2,0 UV-I 373 W/m 13,6 C 16,9 C 4,8 km/h (1 Bft) 100,00 %
11.06.2016 09:51 17,0 C 80 % 1009,0 hPa 0,0 l/m 3,6 km/h (1 Bft) NO 35 1 min 0,000 mm 2,0 UV-I 392 W/m 13,5 C 17,0 C 6,4 km/h (2 Bft) 95,83 %
11.06.2016 09:52 17,0 C 79 % 1009,0 hPa 0,0 l/m 1,3 km/h (1 Bft) N-NO 31 1 min 0,000 mm 2,1 UV-I 407 W/m 13,3 C 17,0 C 3,2 km/h (1 Bft) 95,65 %
11.06.2016 09:53 17,0 C 80 % 1009,1 hPa 0,0 l/m 2,3 km/h (1 Bft) N-NO 25 1 min 0,000 mm 2,0 UV-I 388 W/m 13,5 C 17,0 C 4,8 km/h (1 Bft) 100,00 %
11.06.2016 09:54 17,0 C 79 % 1009,1 hPa 0,0 l/m 2,5 km/h (1 Bft) N-NO 25 1 min 0,000 mm 2,1 UV-I 410 W/m 13,3 C 17,0 C 4,8 km/h (1 Bft) 95,65 %
11.06.2016 09:55 17,1 C 81 % 1009,1 hPa 0,0 l/m 0,7 km/h (0 Bft) N-NO 25 1 min 0,000 mm 2,0 UV-I 402 W/m 13,8 C 17,1 C 3,2 km/h (1 Bft) 100,00 %
11.06.2016 09:56 17,1 C 79 % 1009,1 hPa 0,0 l/m 0,1 km/h (0 Bft) N-NO 25 1 min 0,000 mm 2,0 UV-I 391 W/m 13,4 C 17,1 C 1,6 km/h (1 Bft) 100,00 %
11.06.2016 09:57 17,1 C 80 % 1009,1 hPa 0,0 l/m 2,5 km/h (1 Bft) N-NO 25 0 min 0,000 mm 2,0 UV-I 369 W/m 13,6 C 17,1 C 4,8 km/h (1 Bft) 95,83 %
11.06.2016 09:58 17,2 C 81 % 1009,2 hPa 0,0 l/m 1,3 km/h (1 Bft) NO 49 0 min 0,000 mm 1,8 UV-I 348 W/m 13,9 C 17,2 C 3,2 km/h (1 Bft) 95,83 %
11.06.2016 09:59 17,2 C 81 % 1009,2 hPa 0,0 l/m 2,8 km/h (1 Bft) NO 49 0 min 0,000 mm 1,8 UV-I 330 W/m 13,9 C 17,2 C 4,8 km/h (1 Bft) 96,15 %
11.06.2016 10:00 17,2 C 80 % 1009,1 hPa 0,0 l/m 2,4 km/h (1 Bft) O 80 0 min 0,000 mm 1,8 UV-I 317 W/m 13,7 C 17,2 C 4,8 km/h (1 Bft) 100,00 %
11.06.2016 10:01 17,2 C 79 % 1009,2 hPa 0,0 l/m 2,9 km/h (1 Bft) O 94 0 min 0,177 mm 1,8 UV-I 311 W/m 13,5 C 17,2 C 4,8 km/h (1 Bft) 95,83 %
11.06.2016 10:02 17,2 C 79 % 1009,2 hPa 0,0 l/m 1,9 km/h (1 Bft) O 94 0 min 0,000 mm 1,7 UV-I 300 W/m 13,5 C 17,2 C 3,2 km/h (1 Bft) 100,00 %
11.06.2016 10:03 17,1 C 79 % 1009,2 hPa 0,0 l/m 1,9 km/h (1 Bft) S-SO 159 0 min 0,000 mm 1,7 UV-I 290 W/m 13,4 C 17,1 C 6,4 km/h (2 Bft) 100,00 %
11.06.2016 10:04 17,1 C 77 % 1009,2 hPa 0,0 l/m 2,6 km/h (1 Bft) S-SO 159 0 min 0,000 mm 1,7 UV-I 281 W/m 13,0 C 17,1 C 6,4 km/h (2 Bft) 95,83 %
11.06.2016 10:05 17,1 C 77 % 1009,2 hPa 0,0 l/m 1,7 km/h (1 Bft) S-SO 159 0 min 0,000 mm 1,7 UV-I 274 W/m 13,0 C 17,1 C 3,2 km/h (1 Bft) 95,65 %
11.06.2016 10:06 17,1 C 78 % 1009,2 hPa 0,0 l/m 1,4 km/h (1 Bft) S-SO 159 0 min 0,000 mm 1,7 UV-I 275 W/m 13,2 C 17,1 C 1,6 km/h (1 Bft) 95,83 %
11.06.2016 10:07 17,0 C 77 % 1009,2 hPa 0,0 l/m 0,1 km/h (0 Bft) S-SO 159 0 min 0,000 mm 1,7 UV-I 284 W/m 12,9 C 17,0 C 1,6 km/h (1 Bft) 92,86 %
11.06.2016 10:08 17,0 C 77 % 1009,2 hPa 0,0 l/m 0,3 km/h (0 Bft) S-SO 159 0 min 0,000 mm 1,8 UV-I 297 W/m 12,9 C 17,0 C 1,6 km/h (1 Bft) 100,00 %
11.06.2016 10:09 17,0 C 79 % 1009,2 hPa 0,0 l/m 0,3 km/h (0 Bft) S-SO 159 0 min 0,000 mm 1,9 UV-I 316 W/m 13,3 C 17,0 C 1,6 km/h (1 Bft) 95,65 %
11.06.2016 10:10 17,1 C 79 % 1009,2 hPa 0,0 l/m 0,5 km/h (0 Bft) S-SO 159 0 min 0,000 mm 2,1 UV-I 337 W/m 13,4 C 17,1 C 1,6 km/h (1 Bft) 100,00 %
11.06.2016 10:11 17,1 C 78 % 1009,2 hPa 0,0 l/m 1,9 km/h (1 Bft) S-SO 159 0 min 0,000 mm 2,1 UV-I 355 W/m 13,2 C 17,1 C 3,2 km/h (1 Bft) 95,65 %
11.06.2016 10:12 17,2 C 77 % 1009,2 hPa 0,0 l/m 0,8 km/h (0 Bft) S-SO 159 0 min 0,000 mm 2,1 UV-I 370 W/m 13,1 C 17,2 C 1,6 km/h (1 Bft) 100,00 %
11.06.2016 10:13 17,1 C 78 % 1009,2 hPa 0,0 l/m 0,3 km/h (0 Bft) S-SO 159 0 min 0,000 mm 2,1 UV-I 373 W/m 13,2 C 17,1 C 1,6 km/h (1 Bft) 100,00 %
11.06.2016 10:14 17,1 C 78 % 1009,2 hPa 0,0 l/m 0,5 km/h (0 Bft) S-SO 159 0 min 0,000 mm 2,0 UV-I 334 W/m 13,2 C 17,1 C 1,6 km/h (1 Bft) 100,00 %
11.06.2016 10:15 17,1 C 77 % 1009,2 hPa 0,0 l/m 0,1 km/h (0 Bft) S-SO 159 0 min 0,000 mm 1,9 UV-I 311 W/m 13,0 C 17,1 C 1,6 km/h (1 Bft) 100,00 %
11.06.2016 10:16 17,1 C 79 % 1009,2 hPa 0,0 l/m 0,7 km/h (0 Bft) S-SO 159 0 min 0,000 mm 1,9 UV-I 298 W/m 13,4 C 17,1 C 1,6 km/h (1 Bft) 95,83 %
11.06.2016 10:17 17,2 C 78 % 1009,2 hPa 0,0 l/m 0,2 km/h (0 Bft) S-SO 159 0 min 0,000 mm 1,9 UV-I 294 W/m 13,3 C 17,2 C 1,6 km/h (1 Bft) 95,83 %
11.06.2016 10:18 17,2 C 79 % 1009,2 hPa 0,0 l/m 0,0 km/h (0 Bft) S-SO 159 0 min 0,000 mm 2,0 UV-I 302 W/m 13,5 C 17,2 C 0,0 km/h (0 Bft) 100,00 %
11.06.2016 10:19 17,2 C 79 % 1009,2 hPa 0,0 l/m 0,1 km/h (0 Bft) S-SO 159 0 min 0,000 mm 2,0 UV-I 314 W/m 13,5 C 17,2 C 1,6 km/h (1 Bft) 100,00 %
11.06.2016 10:20 17,3 C 80 % 1009,1 hPa 0,0 l/m 0,1 km/h (0 Bft) S-SO 159 0 min 0,000 mm 2,1 UV-I 326 W/m 13,8 C 17,3 C 1,6 km/h (1 Bft) 95,65 %
11.06.2016 10:21 17,4 C 79 % 1009,2 hPa 0,0 l/m 0,6 km/h (0 Bft) S-SO 159 0 min 0,000 mm 2,2 UV-I 337 W/m 13,7 C 17,4 C 3,2 km/h (1 Bft) 100,00 %
11.06.2016 10:22 17,5 C 78 % 1009,1 hPa 0,0 l/m 1,3 km/h (1 Bft) S-SO 159 0 min 0,000 mm 2,3 UV-I 352 W/m 13,6 C 17,5 C 1,6 km/h (1 Bft) 95,65 %
11.06.2016 10:23 17,6 C 82 % 1009,1 hPa 0,0 l/m 0,1 km/h (0 Bft) S-SO 159 0 min 0,000 mm 2,3 UV-I 368 W/m 14,5 C 17,6 C 1,6 km/h (1 Bft) 100,00 %
11.06.2016 10:24 17,7 C 81 % 1009,1 hPa 0,0 l/m 0,1 km/h (0 Bft) S-SO 159 0 min 0,000 mm 2,4 UV-I 381 W/m 14,4 C 17,7 C 1,6 km/h (1 Bft) 100,00 %
11.06.2016 10:25 17,8 C 79 % 1009,1 hPa 0,0 l/m 1,0 km/h (0 Bft) S-SO 159 0 min 0,000 mm 2,5 UV-I 414 W/m 14,1 C 17,8 C 1,6 km/h (1 Bft) 100,00 %
11.06.2016 10:26 17,8 C 78 % 1009,1 hPa 0,0 l/m 0,2 km/h (0 Bft) S-SO 159 1 min 0,000 mm 2,6 UV-I 450 W/m 13,9 C 17,8 C 1,6 km/h (1 Bft) 95,65 %
11.06.2016 10:27 17,7 C 78 % 1009,1 hPa 0,0 l/m 0,3 km/h (0 Bft) S-SO 159 1 min 0,000 mm 2,8 UV-I 504 W/m 13,8 C 17,7 C 1,6 km/h (1 Bft) 100,00 %
11.06.2016 10:28 17,7 C 79 % 1009,1 hPa 0,0 l/m 1,3 km/h (1 Bft) S-SO 159 1 min 0,000 mm 2,7 UV-I 471 W/m 14,0 C 17,7 C 1,6 km/h (1 Bft) 96,15 %
11.06.2016 10:29 17,7 C 78 % 1009,2 hPa 0,0 l/m 0,4 km/h (0 Bft) S-SO 159 0 min 0,000 mm 2,6 UV-I 414 W/m 13,8 C 17,7 C 1,6 km/h (1 Bft) 100,00 %
11.06.2016 10:30 17,7 C 77 % 1009,1 hPa 0,0 l/m 1,5 km/h (1 Bft) S-SO 159 0 min 0,000 mm 2,5 UV-I 390 W/m 13,6 C 17,7 C 1,6 km/h (1 Bft) 100,00 %
11.06.2016 10:31 17,7 C 77 % 1009,1 hPa 0,0 l/m 1,5 km/h (1 Bft) S-SO 159 0 min 0,000 mm 2,4 UV-I 377 W/m 13,6 C 17,7 C 3,2 km/h (1 Bft) 100,00 %
11.06.2016 10:32 17,7 C 76 % 1009,1 hPa 0,0 l/m 2,4 km/h (1 Bft) S-SO 159 0 min 0,000 mm 2,4 UV-I 369 W/m 13,4 C 17,7 C 3,2 km/h (1 Bft) 100,00 %
11.06.2016 10:33 17,7 C 75 % 1009,1 hPa 0,0 l/m 1,8 km/h (1 Bft) S-SO 159 0 min 0,000 mm 2,4 UV-I 363 W/m 13,2 C 17,7 C 3,2 km/h (1 Bft) 100,00 %
11.06.2016 10:34 17,7 C 76 % 1009,1 hPa 0,0 l/m 0,3 km/h (0 Bft) S-SO 159 0 min 0,000 mm 2,3 UV-I 357 W/m 13,4 C 17,7 C 1,6 km/h (1 Bft) 100,00 %
11.06.2016 10:35 17,6 C 76 % 1009,1 hPa 0,0 l/m 0,1 km/h (0 Bft) S-SO 159 0 min 0,000 mm 2,3 UV-I 351 W/m 13,3 C 17,6 C 1,6 km/h (1 Bft) 100,00 %
11.06.2016 10:37 17,8 C 79 % 1009,1 hPa 0,0 l/m 0,5 km/h (0 Bft) S-SO 159 0 min 0,000 mm 2,3 UV-I 346 W/m 14,1 C 17,8 C 1,6 km/h (1 Bft) 100,00 %
11.06.2016 10:38 17,8 C 80 % 1009,1 hPa 0,0 l/m 1,1 km/h (1 Bft) S-SO 163 0 min 0,000 mm 2,3 UV-I 347 W/m 14,3 C 17,8 C 3,2 km/h (1 Bft) 100,00 %
11.06.2016 10:39 17,9 C 79 % 1009,1 hPa 0,0 l/m 0,6 km/h (0 Bft) S 169 0 min 0,000 mm 2,3 UV-I 352 W/m 14,2 C 17,9 C 3,2 km/h (1 Bft) 100,00 %
11.06.2016 10:40 17,9 C 79 % 1009,2 hPa 0,0 l/m 1,6 km/h (1 Bft) S 171 0 min 0,000 mm 2,3 UV-I 357 W/m 14,2 C 17,9 C 3,2 km/h (1 Bft) 95,83 %
11.06.2016 10:41 17,9 C 77 % 1009,2 hPa 0,0 l/m 1,0 km/h (0 Bft) S 171 0 min 0,000 mm 2,4 UV-I 366 W/m 13,8 C 17,9 C 3,2 km/h (1 Bft) 100,00 %
11.06.2016 10:42 17,9 C 78 % 1009,2 hPa 0,0 l/m 0,5 km/h (0 Bft) S 171 0 min 0,000 mm 2,3 UV-I 363 W/m 14,0 C 17,9 C 1,6 km/h (1 Bft) 100,00 %
11.06.2016 10:43 18,0 C 76 % 1009,2 hPa 0,0 l/m 0,1 km/h (0 Bft) S 171 0 min 0,000 mm 2,3 UV-I 363 W/m 13,7 C 18,0 C 1,6 km/h (1 Bft) 100,00 %
11.06.2016 10:44 18,0 C 78 % 1009,2 hPa 0,0 l/m 0,1 km/h (0 Bft) S 171 0 min 0,000 mm 2,3 UV-I 360 W/m 14,1 C 18,0 C 1,6 km/h (1 Bft) 100,00 %
11.06.2016 10:45 18,1 C 77 % 1009,2 hPa 0,0 l/m 0,6 km/h (0 Bft) S 171 0 min 0,000 mm 2,3 UV-I 353 W/m 14,0 C 18,1 C 1,6 km/h (1 Bft) 100,00 %
11.06.2016 10:46 18,1 C 78 % 1009,2 hPa 0,0 l/m 0,3 km/h (0 Bft) S 171 0 min 0,000 mm 2,3 UV-I 345 W/m 14,2 C 18,1 C 1,6 km/h (1 Bft) 100,00 %
11.06.2016 10:47 18,1 C 77 % 1009,3 hPa 0,0 l/m 1,3 km/h (1 Bft) S 171 0 min 0,000 mm 2,3 UV-I 338 W/m 14,0 C 18,1 C 1,6 km/h (1 Bft) 100,00 %
11.06.2016 10:48 18,1 C 76 % 1009,3 hPa 0,0 l/m 1,1 km/h (1 Bft) S 171 0 min 0,000 mm 2,3 UV-I 339 W/m 13,8 C 18,1 C 3,2 km/h (1 Bft) 100,00 %
11.06.2016 10:49 18,1 C 79 % 1009,3 hPa 0,0 l/m 0,1 km/h (0 Bft) S 171 0 min 0,000 mm 2,4 UV-I 344 W/m 14,4 C 18,1 C 1,6 km/h (1 Bft) 100,00 %
11.06.2016 10:50 18,2 C 78 % 1009,3 hPa 0,0 l/m 0,1 km/h (0 Bft) S 171 0 min 0,000 mm 2,4 UV-I 355 W/m 14,3 C 18,2 C 1,6 km/h (1 Bft) 91,67 %
11.06.2016 10:51 18,2 C 77 % 1009,3 hPa 0,0 l/m 0,8 km/h (0 Bft) S 175 0 min 0,000 mm 2,6 UV-I 380 W/m 14,1 C 18,2 C 3,2 km/h (1 Bft) 100,00 %
11.06.2016 10:52 18,2 C 77 % 1009,3 hPa 0,0 l/m 0,5 km/h (0 Bft) S 175 0 min 0,000 mm 2,7 UV-I 405 W/m 14,1 C 18,2 C 1,6 km/h (1 Bft) 100,00 %
11.06.2016 10:53 18,2 C 75 % 1009,3 hPa 0,0 l/m 0,2 km/h (0 Bft) S 175 0 min 0,000 mm 2,8 UV-I 430 W/m 13,7 C 18,2 C 1,6 km/h (1 Bft) 91,30 %
11.06.2016 10:54 18,3 C 78 % 1009,3 hPa 0,0 l/m 0,7 km/h (0 Bft) S 175 1 min 0,000 mm 3,0 UV-I 458 W/m 14,4 C 18,3 C 3,2 km/h (1 Bft) 100,00 %
11.06.2016 10:55 18,3 C 76 % 1009,3 hPa 0,0 l/m 2,7 km/h (1 Bft) S 182 1 min 0,000 mm 2,9 UV-I 447 W/m 14,0 C 18,3 C 4,8 km/h (1 Bft) 100,00 %
11.06.2016 10:57 18,3 C 76 % 1009,3 hPa 0,0 l/m 1,9 km/h (1 Bft) S 182 2 min 0,000 mm 3,0 UV-I 455 W/m 14,0 C 18,3 C 4,8 km/h (1 Bft) 95,74 %
11.06.2016 10:58 18,4 C 76 % 1009,3 hPa 0,0 l/m 0,3 km/h (0 Bft) S 182 1 min 0,000 mm 3,2 UV-I 493 W/m 14,1 C 18,4 C 1,6 km/h (1 Bft) 91,67 %
11.06.2016 10:59 18,3 C 75 % 1009,3 hPa 0,0 l/m 0,1 km/h (0 Bft) S 182 1 min 0,000 mm 3,2 UV-I 490 W/m 13,8 C 18,3 C 1,6 km/h (1 Bft) 100,00 %
11.06.2016 11:00 18,3 C 74 % 1009,3 hPa 0,0 l/m 0,7 km/h (0 Bft) S 182 1 min 0,204 mm 3,5 UV-I 492 W/m 13,6 C 18,3 C 1,6 km/h (1 Bft) 100,00 %
11.06.2016 11:01 18,3 C 77 % 1009,3 hPa 0,0 l/m 1,7 km/h (1 Bft) S 182 1 min 0,000 mm 3,9 UV-I 492 W/m 14,2 C 18,3 C 3,2 km/h (1 Bft) 100,00 %
11.06.2016 11:02 18,4 C 76 % 1009,3 hPa 0,0 l/m 1,6 km/h (1 Bft) S 182 1 min 0,000 mm 3,8 UV-I 492 W/m 14,1 C 18,4 C 3,2 km/h (1 Bft) 100,00 %
11.06.2016 11:03 18,4 C 75 % 1009,3 hPa 0,0 l/m 0,5 km/h (0 Bft) S 182 1 min 0,000 mm 3,5 UV-I 512 W/m 13,9 C 18,4 C 1,6 km/h (1 Bft) 100,00 %
11.06.2016 11:04 18,4 C 77 % 1009,3 hPa 0,0 l/m 0,0 km/h (0 Bft) S 182 1 min 0,000 mm 4,0 UV-I 515 W/m 14,3 C 18,4 C 0,0 km/h (0 Bft) 95,65 %
11.06.2016 11:05 18,4 C 76 % 1009,3 hPa 0,0 l/m 1,5 km/h (1 Bft) S 182 1 min 0,000 mm 4,1 UV-I 578 W/m 14,1 C 18,4 C 3,2 km/h (1 Bft) 100,00 %
11.06.2016 11:06 18,4 C 74 % 1009,3 hPa 0,0 l/m 0,8 km/h (0 Bft) S 182 1 min 0,000 mm 4,1 UV-I 716 W/m 13,7 C 18,4 C 1,6 km/h (1 Bft) 100,00 %
11.06.2016 11:07 18,4 C 75 % 1009,3 hPa 0,0 l/m 0,9 km/h (0 Bft) S 182 1 min 0,000 mm 4,1 UV-I 726 W/m 13,9 C 18,4 C 1,6 km/h (1 Bft) 100,00 %
11.06.2016 11:08 18,5 C 76 % 1009,3 hPa 0,0 l/m 1,9 km/h (1 Bft) S 182 1 min 0,000 mm 4,3 UV-I 721 W/m 14,2 C 18,5 C 3,2 km/h (1 Bft) 92,31 %
11.06.2016 11:09 18,6 C 79 % 1009,3 hPa 0,0 l/m 3,2 km/h (1 Bft) NO 53 1 min 0,000 mm 4,0 UV-I 652 W/m 14,9 C 18,6 C 6,4 km/h (2 Bft) 100,00 %
11.06.2016 11:10 18,8 C 80 % 1009,3 hPa 0,0 l/m 3,0 km/h (1 Bft) NO 53 1 min 0,000 mm 3,8 UV-I 596 W/m 15,3 C 18,8 C 4,8 km/h (1 Bft) 95,65 %
11.06.2016 11:11 19,1 C 79 % 1009,3 hPa 0,0 l/m 1,7 km/h (1 Bft) N-NW 344 1 min 0,000 mm 3,7 UV-I 575 W/m 15,4 C 19,1 C 3,2 km/h (1 Bft) 100,00 %
11.06.2016 11:12 19,2 C 76 % 1009,3 hPa 0,0 l/m 0,7 km/h (0 Bft) N-NW 348 1 min 0,000 mm 3,5 UV-I 541 W/m 14,9 C 19,2 C 1,6 km/h (1 Bft) 100,00 %
11.06.2016 11:13 19,2 C 78 % 1009,3 hPa 0,0 l/m 2,3 km/h (1 Bft) N 5 1 min 0,000 mm 3,6 UV-I 564 W/m 15,3 C 19,2 C 3,2 km/h (1 Bft) 100,00 %
11.06.2016 11:14 19,2 C 75 % 1009,3 hPa 0,0 l/m 2,1 km/h (1 Bft) N 5 1 min 0,000 mm 3,8 UV-I 574 W/m 14,7 C 19,2 C 3,2 km/h (1 Bft) 100,00 %
11.06.2016 11:15 19,2 C 76 % 1009,3 hPa 0,0 l/m 1,5 km/h (1 Bft) N 5 1 min 0,000 mm 3,9 UV-I 588 W/m 14,9 C 19,2 C 3,2 km/h (1 Bft) 100,00 %
11.06.2016 11:16 19,3 C 75 % 1009,2 hPa 0,0 l/m 1,1 km/h (1 Bft) N 9 1 min 0,000 mm 3,8 UV-I 589 W/m 14,8 C 19,3 C 1,6 km/h (1 Bft) 100,00 %
11.06.2016 11:17 19,2 C 71 % 1009,2 hPa 0,0 l/m 2,5 km/h (1 Bft) W-SW 242 1 min 0,000 mm 3,6 UV-I 561 W/m 13,8 C 19,2 C 4,8 km/h (1 Bft) 100,00 %
11.06.2016 11:18 19,2 C 73 % 1009,3 hPa 0,0 l/m 4,4 km/h (1 Bft) W-SW 246 1 min 0,000 mm 3,9 UV-I 526 W/m 14,2 C 19,2 C 6,4 km/h (2 Bft) 100,00 %
11.06.2016 11:19 19,2 C 70 % 1009,2 hPa 0,0 l/m 2,9 km/h (1 Bft) W 275 1 min 0,000 mm 4,0 UV-I 564 W/m 13,6 C 19,2 C 4,8 km/h (1 Bft) 100,00 %
11.06.2016 11:20 19,1 C 70 % 1009,2 hPa 0,0 l/m 2,3 km/h (1 Bft) W 277 1 min 0,000 mm 3,7 UV-I 580 W/m 13,5 C 19,1 C 4,8 km/h (1 Bft) 100,00 %
11.06.2016 11:21 19,1 C 72 % 1009,2 hPa 0,0 l/m 3,4 km/h (1 Bft) W 277 1 min 0,000 mm 3,5 UV-I 576 W/m 13,9 C 19,1 C 4,8 km/h (1 Bft) 100,00 %
11.06.2016 11:22 19,1 C 69 % 1009,2 hPa 0,0 l/m 1,7 km/h (1 Bft) W 277 0 min 0,000 mm 3,4 UV-I 446 W/m 13,3 C 19,1 C 3,2 km/h (1 Bft) 95,83 %
11.06.2016 11:23 19,1 C 70 % 1009,2 hPa 0,0 l/m 0,4 km/h (0 Bft) W 277 1 min 0,000 mm 3,6 UV-I 479 W/m 13,5 C 19,1 C 1,6 km/h (1 Bft) 95,65 %
11.06.2016 11:24 19,0 C 69 % 1009,2 hPa 0,0 l/m 2,1 km/h (1 Bft) W 278 1 min 0,000 mm 3,8 UV-I 524 W/m 13,2 C 19,0 C 3,2 km/h (1 Bft) 100,00 %
11.06.2016 11:25 18,9 C 72 % 1009,2 hPa 0,0 l/m 2,8 km/h (1 Bft) N-NW 343 1 min 0,000 mm 3,7 UV-I 501 W/m 13,7 C 18,9 C 4,8 km/h (1 Bft) 100,00 %
11.06.2016 11:26 19,0 C 71 % 1009,1 hPa 0,0 l/m 2,4 km/h (1 Bft) N 355 1 min 0,000 mm 4,7 UV-I 485 W/m 13,6 C 19,0 C 4,8 km/h (1 Bft) 100,00 %
11.06.2016 11:27 19,1 C 72 % 1009,2 hPa 0,0 l/m 2,5 km/h (1 Bft) N 355 1 min 0,000 mm 4,8 UV-I 737 W/m 13,9 C 19,1 C 3,2 km/h (1 Bft) 100,00 %
11.06.2016 11:28 19,2 C 73 % 1009,1 hPa 0,0 l/m 1,7 km/h (1 Bft) N 355 1 min 0,000 mm 4,3 UV-I 670 W/m 14,2 C 19,2 C 3,2 km/h (1 Bft) 100,00 %
11.06.2016 11:29 19,3 C 72 % 1009,1 hPa 0,0 l/m 3,8 km/h (1 Bft) SW 217 1 min 0,000 mm 4,1 UV-I 677 W/m 14,1 C 19,3 C 4,8 km/h (1 Bft) 95,65 %
11.06.2016 11:30 19,3 C 69 % 1009,1 hPa 0,0 l/m 4,5 km/h (1 Bft) SW 223 1 min 0,000 mm 3,5 UV-I 549 W/m 13,5 C 19,3 C 6,4 km/h (2 Bft) 95,83 %
11.06.2016 11:31 19,3 C 70 % 1009,1 hPa 0,0 l/m 3,1 km/h (1 Bft) S-SO 162 0 min 0,000 mm 3,7 UV-I 451 W/m 13,7 C 19,3 C 6,4 km/h (2 Bft) 92,31 %
11.06.2016 11:32 19,2 C 69 % 1009,1 hPa 0,0 l/m 2,9 km/h (1 Bft) S-SO 162 0 min 0,000 mm 4,5 UV-I 455 W/m 13,4 C 19,2 C 6,4 km/h (2 Bft) 100,00 %
11.06.2016 11:33 19,2 C 68 % 1009,1 hPa 0,0 l/m 2,3 km/h (1 Bft) S-SO 162 0 min 0,000 mm 5,1 UV-I 455 W/m 13,1 C 19,2 C 3,2 km/h (1 Bft) 95,65 %
11.06.2016 11:34 19,2 C 68 % 1009,1 hPa 0,0 l/m 2,6 km/h (1 Bft) S-SO 162 1 min 0,000 mm 5,0 UV-I 561 W/m 13,1 C 19,2 C 6,4 km/h (2 Bft) 100,00 %
11.06.2016 11:35 19,2 C 69 % 1009,1 hPa 0,0 l/m 3,6 km/h (1 Bft) S 191 1 min 0,000 mm 5,2 UV-I 846 W/m 13,4 C 19,2 C 6,4 km/h (2 Bft) 91,67 %
11.06.2016 11:36 19,2 C 71 % 1009,1 hPa 0,0 l/m 0,1 km/h (0 Bft) S 191 1 min 0,000 mm 5,4 UV-I 898 W/m 13,8 C 19,2 C 1,6 km/h (1 Bft) 100,00 %
11.06.2016 11:37 19,3 C 70 % 1009,1 hPa 0,0 l/m 1,3 km/h (1 Bft) S 191 1 min 0,000 mm 5,2 UV-I 898 W/m 13,7 C 19,3 C 3,2 km/h (1 Bft) 95,83 %
11.06.2016 11:38 19,3 C 71 % 1009,1 hPa 0,0 l/m 2,1 km/h (1 Bft) S-SW 211 1 min 0,000 mm 5,2 UV-I 839 W/m 13,9 C 19,3 C 3,2 km/h (1 Bft) 91,30 %
11.06.2016 11:39 19,3 C 69 % 1009,1 hPa 0,0 l/m 1,7 km/h (1 Bft) S-SW 212 1 min 0,000 mm 5,4 UV-I 876 W/m 13,5 C 19,3 C 3,2 km/h (1 Bft) 95,83 %
11.06.2016 11:40 19,5 C 71 % 1009,1 hPa 0,0 l/m 1,4 km/h (1 Bft) SW 215 1 min 0,000 mm 5,6 UV-I 887 W/m 14,1 C 19,5 C 3,2 km/h (1 Bft) 96,15 %
11.06.2016 11:41 19,6 C 69 % 1009,1 hPa 0,0 l/m 1,1 km/h (1 Bft) SW 215 1 min 0,000 mm 5,2 UV-I 889 W/m 13,8 C 19,6 C 1,6 km/h (1 Bft) 100,00 %
11.06.2016 11:42 19,7 C 66 % 1009,1 hPa 0,0 l/m 0,9 km/h (0 Bft) SW 215 1 min 0,000 mm 4,8 UV-I 780 W/m 13,2 C 19,7 C 1,6 km/h (1 Bft) 95,65 %
11.06.2016 11:43 19,8 C 71 % 1009,0 hPa 0,0 l/m 0,9 km/h (0 Bft) SW 215 1 min 0,000 mm 4,6 UV-I 650 W/m 14,4 C 19,8 C 1,6 km/h (1 Bft) 100,00 %
11.06.2016 11:44 19,9 C 68 % 1009,0 hPa 0,0 l/m 2,5 km/h (1 Bft) W-SW 256 1 min 0,000 mm 4,6 UV-I 592 W/m 13,8 C 19,9 C 3,2 km/h (1 Bft) 86,96 %
11.06.2016 11:45 19,9 C 68 % 1009,0 hPa 0,0 l/m 1,5 km/h (1 Bft) W 260 1 min 0,000 mm 4,4 UV-I 606 W/m 13,8 C 19,9 C 3,2 km/h (1 Bft) 95,83 %
11.06.2016 11:46 19,9 C 70 % 1009,1 hPa 0,0 l/m 3,1 km/h (1 Bft) N 5 1 min 0,000 mm 5,2 UV-I 606 W/m 14,3 C 19,9 C 4,8 km/h (1 Bft) 100,00 %
11.06.2016 11:47 20,1 C 73 % 1009,0 hPa 0,0 l/m 4,5 km/h (1 Bft) N-NO 26 1 min 0,000 mm 5,2 UV-I 632 W/m 15,1 C 20,1 C 6,4 km/h (2 Bft) 95,83 %
11.06.2016 11:48 20,1 C 69 % 1009,0 hPa 0,0 l/m 4,7 km/h (1 Bft) NO 51 1 min 0,000 mm 5,1 UV-I 659 W/m 14,2 C 20,1 C 6,4 km/h (2 Bft) 100,00 %
11.06.2016 11:49 20,2 C 70 % 1009,0 hPa 0,0 l/m 3,0 km/h (1 Bft) NO 52 1 min 0,000 mm 5,0 UV-I 656 W/m 14,5 C 20,2 C 6,4 km/h (2 Bft) 95,83 %
11.06.2016 11:50 20,3 C 69 % 1009,0 hPa 0,0 l/m 2,4 km/h (1 Bft) NO 52 1 min 0,000 mm 5,4 UV-I 728 W/m 14,4 C 20,3 C 4,8 km/h (1 Bft) 100,00 %
11.06.2016 11:51 20,4 C 71 % 1009,0 hPa 0,0 l/m 2,3 km/h (1 Bft) NO 52 1 min 0,000 mm 5,2 UV-I 741 W/m 15,0 C 20,4 C 4,8 km/h (1 Bft) 96,30 %
11.06.2016 11:52 20,5 C 69 % 1008,9 hPa 0,0 l/m 3,3 km/h (1 Bft) NO 50 1 min 0,000 mm 5,4 UV-I 751 W/m 14,6 C 20,5 C 4,8 km/h (1 Bft) 95,65 %
11.06.2016 11:53 20,6 C 68 % 1009,0 hPa 0,0 l/m 1,7 km/h (1 Bft) NO 44 1 min 0,000 mm 5,8 UV-I 804 W/m 14,5 C 20,6 C 3,2 km/h (1 Bft) 100,00 %
11.06.2016 11:54 20,7 C 74 % 1009,0 hPa 0,0 l/m 0,8 km/h (0 Bft) O-NO 65 1 min 0,000 mm 5,8 UV-I 917 W/m 15,9 C 20,7 C 1,6 km/h (1 Bft) 95,65 %
11.06.2016 11:55 20,8 C 68 % 1009,0 hPa 0,0 l/m 1,0 km/h (0 Bft) N-NO 18 1 min 0,000 mm 6,0 UV-I 966 W/m 14,7 C 20,8 C 1,6 km/h (1 Bft) 100,00 %
11.06.2016 11:56 20,9 C 71 % 1009,0 hPa 0,0 l/m 1,5 km/h (1 Bft) N 360 1 min 0,000 mm 6,2 UV-I 983 W/m 15,4 C 20,9 C 3,2 km/h (1 Bft) 91,67 %
11.06.2016 11:57 21,0 C 69 % 1008,9 hPa 0,0 l/m 1,2 km/h (1 Bft) N 11 1 min 0,000 mm 6,2 UV-I 954 W/m 15,1 C 21,0 C 3,2 km/h (1 Bft) 100,00 %
11.06.2016 11:58 21,2 C 73 % 1008,9 hPa 0,0 l/m 1,9 km/h (1 Bft) N-NO 21 1 min 0,000 mm 5,9 UV-I 931 W/m 16,2 C 21,2 C 3,2 km/h (1 Bft) 95,83 %
11.06.2016 11:59 21,2 C 68 % 1008,9 hPa 0,0 l/m 4,2 km/h (1 Bft) S-SO 155 1 min 0,000 mm 5,8 UV-I 856 W/m 15,1 C 21,2 C 6,4 km/h (2 Bft) 100,00 %
11.06.2016 12:00 21,2 C 67 % 1008,9 hPa 0,0 l/m 4,2 km/h (1 Bft) O 90 1 min 0,406 mm 5,9 UV-I 821 W/m 14,8 C 21,2 C 6,4 km/h (2 Bft) 95,83 %
11.06.2016 12:01 21,3 C 64 % 1008,9 hPa 0,0 l/m 8,0 km/h (2 Bft) O-NO 63 1 min 0,000 mm 5,7 UV-I 815 W/m 14,2 C 20,7 C 11,3 km/h (2 Bft) 95,65 %
11.06.2016 12:02 21,2 C 65 % 1008,9 hPa 0,0 l/m 5,6 km/h (1 Bft) S-SO 161 1 min 0,000 mm 5,8 UV-I 852 W/m 14,4 C 21,2 C 8,0 km/h (2 Bft) 100,00 %
11.06.2016 12:03 21,2 C 62 % 1008,9 hPa 0,0 l/m 4,2 km/h (1 Bft) S-SO 159 1 min 0,000 mm 5,9 UV-I 863 W/m 13,6 C 21,2 C 6,4 km/h (2 Bft) 95,65 %
11.06.2016 12:04 21,2 C 62 % 1008,9 hPa 0,0 l/m 2,9 km/h (1 Bft) S-SO 148 1 min 0,000 mm 5,8 UV-I 864 W/m 13,6 C 21,2 C 8,0 km/h (2 Bft) 100,00 %
11.06.2016 12:05 21,2 C 62 % 1008,9 hPa 0,0 l/m 6,0 km/h (2 Bft) S-SO 155 1 min 0,000 mm 5,9 UV-I 899 W/m 13,6 C 21,2 C 9,7 km/h (2 Bft) 100,00 %
11.06.2016 12:06 21,2 C 62 % 1009,0 hPa 0,0 l/m 5,6 km/h (1 Bft) S-SO 165 1 min 0,000 mm 6,0 UV-I 903 W/m 13,6 C 21,2 C 9,7 km/h (2 Bft) 100,00 %
11.06.2016 12:07 21,1 C 61 % 1008,9 hPa 0,0 l/m 3,7 km/h (1 Bft) S-SO 152 1 min 0,000 mm 6,0 UV-I 901 W/m 13,3 C 21,1 C 6,4 km/h (2 Bft) 93,75 %
11.06.2016 12:08 21,1 C 64 % 1009,0 hPa 0,0 l/m 2,1 km/h (1 Bft) S-SO 168 1 min 0,000 mm 6,1 UV-I 920 W/m 14,0 C 21,1 C 6,4 km/h (2 Bft) 100,00 %
11.06.2016 12:09 21,0 C 63 % 1008,9 hPa 0,0 l/m 6,4 km/h (2 Bft) S 170 1 min 0,000 mm 6,0 UV-I 880 W/m 13,7 C 21,0 C 9,7 km/h (2 Bft) 100,00 %
11.06.2016 12:10 20,9 C 64 % 1008,9 hPa 0,0 l/m 4,8 km/h (1 Bft) O 98 1 min 0,000 mm 5,9 UV-I 862 W/m 13,8 C 20,9 C 9,7 km/h (2 Bft) 100,00 %
11.06.2016 12:11 20,9 C 64 % 1009,0 hPa 0,0 l/m 5,2 km/h (1 Bft) SO 145 1 min 0,000 mm 6,1 UV-I 907 W/m 13,8 C 20,9 C 9,7 km/h (2 Bft) 100,00 %
11.06.2016 12:12 21,1 C 63 % 1009,0 hPa 0,0 l/m 8,8 km/h (2 Bft) O-SO 117 1 min 0,000 mm 6,2 UV-I 954 W/m 13,8 C 20,2 C 12,9 km/h (3 Bft) 95,83 %
11.06.2016 12:13 21,1 C 64 % 1009,0 hPa 0,0 l/m 8,7 km/h (2 Bft) O-SO 116 1 min 0,000 mm 6,1 UV-I 924 W/m 14,0 C 20,3 C 11,3 km/h (2 Bft) 100,00 %
11.06.2016 12:14 21,1 C 60 % 1009,0 hPa 0,0 l/m 3,4 km/h (1 Bft) O-SO 123 1 min 0,000 mm 6,0 UV-I 950 W/m 13,0 C 21,1 C 9,7 km/h (2 Bft) 100,00 %
11.06.2016 12:15 21,2 C 64 % 1008,9 hPa 0,0 l/m 3,5 km/h (1 Bft) O-SO 113 1 min 0,000 mm 6,2 UV-I 938 W/m 14,1 C 21,2 C 6,4 km/h (2 Bft) 100,00 %
11.06.2016 12:16 21,3 C 63 % 1008,9 hPa 0,0 l/m 2,9 km/h (1 Bft) SO 137 1 min 0,000 mm 5,8 UV-I 840 W/m 14,0 C 21,3 C 6,4 km/h (2 Bft) 100,00 %
11.06.2016 12:17 21,3 C 60 % 1008,9 hPa 0,0 l/m 2,3 km/h (1 Bft) SO 131 1 min 0,000 mm 5,7 UV-I 833 W/m 13,2 C 21,3 C 4,8 km/h (1 Bft) 100,00 %
11.06.2016 12:18 21,3 C 59 % 1008,9 hPa 0,0 l/m 1,4 km/h (1 Bft) SO 145 1 min 0,000 mm 5,8 UV-I 880 W/m 13,0 C 21,3 C 3,2 km/h (1 Bft) 100,00 %
11.06.2016 12:19 21,3 C 60 % 1009,0 hPa 0,0 l/m 4,8 km/h (1 Bft) W 271 1 min 0,000 mm 5,3 UV-I 889 W/m 13,2 C 21,3 C 9,7 km/h (2 Bft) 100,00 %
11.06.2016 12:20 21,2 C 59 % 1009,0 hPa 0,0 l/m 4,1 km/h (1 Bft) W-NW 302 1 min 0,000 mm 5,8 UV-I 795 W/m 12,9 C 21,2 C 9,7 km/h (2 Bft) 100,00 %
11.06.2016 12:21 21,2 C 62 % 1008,9 hPa 0,0 l/m 2,4 km/h (1 Bft) W-NW 292 1 min 0,000 mm 6,1 UV-I 827 W/m 13,6 C 21,2 C 4,8 km/h (1 Bft) 100,00 %
11.06.2016 12:22 21,3 C 64 % 1009,0 hPa 0,0 l/m 5,2 km/h (1 Bft) W-SW 247 1 min 0,000 mm 5,9 UV-I 924 W/m 14,2 C 21,3 C 6,4 km/h (2 Bft) 100,00 %
11.06.2016 12:23 21,3 C 60 % 1009,0 hPa 0,0 l/m 4,2 km/h (1 Bft) N 355 1 min 0,000 mm 5,9 UV-I 910 W/m 13,2 C 21,3 C 6,4 km/h (2 Bft) 100,00 %
11.06.2016 12:24 21,3 C 60 % 1009,0 hPa 0,0 l/m 4,1 km/h (1 Bft) O-NO 64 1 min 0,000 mm 5,7 UV-I 869 W/m 13,2 C 21,3 C 4,8 km/h (1 Bft) 95,65 %
11.06.2016 12:25 21,2 C 59 % 1009,0 hPa 0,0 l/m 2,5 km/h (1 Bft) S 186 1 min 0,000 mm 5,7 UV-I 854 W/m 12,9 C 21,2 C 4,8 km/h (1 Bft) 100,00 %
11.06.2016 12:26 21,2 C 58 % 1009,0 hPa 0,0 l/m 2,1 km/h (1 Bft) S 186 1 min 0,000 mm 5,9 UV-I 920 W/m 12,6 C 21,2 C 3,2 km/h (1 Bft) 100,00 %
11.06.2016 12:27 21,2 C 59 % 1009,0 hPa 0,0 l/m 1,9 km/h (1 Bft) S-SW 198 1 min 0,000 mm 5,7 UV-I 869 W/m 12,9 C 21,2 C 6,4 km/h (2 Bft) 100,00 %
11.06.2016 12:28 21,2 C 55 % 1009,0 hPa 0,0 l/m 1,7 km/h (1 Bft) SW 236 1 min 0,000 mm 5,2 UV-I 797 W/m 11,8 C 21,2 C 6,4 km/h (2 Bft) 100,00 %
11.06.2016 12:29 21,2 C 52 % 1009,1 hPa 0,0 l/m 3,2 km/h (1 Bft) W 265 1 min 0,000 mm 5,0 UV-I 756 W/m 10,9 C 21,2 C 6,4 km/h (2 Bft) 100,00 %
11.06.2016 12:30 21,2 C 50 % 1009,1 hPa 0,0 l/m 3,6 km/h (1 Bft) W-SW 252 1 min 0,000 mm 5,0 UV-I 793 W/m 10,4 C 21,2 C 4,8 km/h (1 Bft) 100,00 %
11.06.2016 12:31 21,2 C 54 % 1009,1 hPa 0,0 l/m 3,7 km/h (1 Bft) SO 144 1 min 0,000 mm 5,0 UV-I 869 W/m 11,5 C 21,2 C 4,8 km/h (1 Bft) 100,00 %
11.06.2016 12:32 21,3 C 55 % 1009,1 hPa 0,0 l/m 3,2 km/h (1 Bft) NO 49 1 min 0,000 mm 4,7 UV-I 900 W/m 11,9 C 21,3 C 4,8 km/h (1 Bft) 100,00 %
11.06.2016 12:35 21,5 C 55 % 1009,1 hPa 0,0 l/m 3,2 km/h (1 Bft) NO 45 3 min 0,000 mm 5,2 UV-I 863 W/m 12,1 C 21,5 C 6,4 km/h (2 Bft) 97,37 %
11.06.2016 12:39 21,4 C 49 % 1009,1 hPa 0,0 l/m 0,1 km/h (0 Bft) W 277 4 min 0,000 mm 4,0 UV-I 546 W/m 10,2 C 21,4 C 1,6 km/h (1 Bft) 99,39 %
11.06.2016 12:40 21,3 C 55 % 1009,1 hPa 0,0 l/m 5,1 km/h (1 Bft) S-SW 199 0 min 0,000 mm 3,7 UV-I 487 W/m 11,9 C 21,3 C 9,7 km/h (2 Bft) 100,00 %
11.06.2016 12:41 21,3 C 54 % 1009,1 hPa 0,0 l/m 5,3 km/h (1 Bft) W-SW 239 1 min 0,000 mm 3,7 UV-I 509 W/m 11,6 C 21,3 C 9,7 km/h (2 Bft) 100,00 %
11.06.2016 12:42 21,2 C 55 % 1009,1 hPa 0,0 l/m 1,5 km/h (1 Bft) W-SW 239 1 min 0,000 mm 3,8 UV-I 522 W/m 11,8 C 21,2 C 3,2 km/h (1 Bft) 98,55 %
11.06.2016 12:43 21,2 C 53 % 1009,0 hPa 0,0 l/m 0,6 km/h (0 Bft) W-SW 241 1 min 0,000 mm 3,7 UV-I 596 W/m 11,2 C 21,2 C 3,2 km/h (1 Bft) 100,00 %
11.06.2016 12:44 21,3 C 57 % 1009,0 hPa 0,0 l/m 2,8 km/h (1 Bft) W-SW 241 1 min 0,000 mm 3,7 UV-I 568 W/m 12,4 C 21,3 C 3,2 km/h (1 Bft) 95,65 %
11.06.2016 12:45 21,3 C 56 % 1009,0 hPa 0,0 l/m 2,8 km/h (1 Bft) W-SW 245 0 min 0,000 mm 3,2 UV-I 432 W/m 12,2 C 21,3 C 3,2 km/h (1 Bft) 100,00 %
11.06.2016 12:46 21,3 C 59 % 1009,1 hPa 0,0 l/m 2,3 km/h (1 Bft) W-SW 254 0 min 0,000 mm 3,1 UV-I 414 W/m 13,0 C 21,3 C 3,2 km/h (1 Bft) 100,00 %
11.06.2016 12:47 21,3 C 56 % 1009,1 hPa 0,0 l/m 3,4 km/h (1 Bft) W 266 0 min 0,000 mm 3,1 UV-I 402 W/m 12,2 C 21,3 C 4,8 km/h (1 Bft) 100,00 %
11.06.2016 12:48 21,3 C 56 % 1009,0 hPa 0,0 l/m 3,1 km/h (1 Bft) W-NW 287 0 min 0,000 mm 3,0 UV-I 403 W/m 12,2 C 21,3 C 6,4 km/h (2 Bft) 100,00 %
11.06.2016 12:49 21,2 C 55 % 1009,0 hPa 0,0 l/m 3,9 km/h (1 Bft) W-NW 297 0 min 0,000 mm 2,9 UV-I 396 W/m 11,8 C 21,2 C 6,4 km/h (2 Bft) 100,00 %
11.06.2016 12:50 21,2 C 58 % 1009,0 hPa 0,0 l/m 3,2 km/h (1 Bft) W-NW 303 0 min 0,000 mm 3,0 UV-I 399 W/m 12,6 C 21,2 C 3,2 km/h (1 Bft) 100,00 %
11.06.2016 12:51 21,1 C 55 % 1009,0 hPa 0,0 l/m 2,3 km/h (1 Bft) NW 304 0 min 0,000 mm 2,9 UV-I 381 W/m 11,7 C 21,1 C 3,2 km/h (1 Bft) 96,30 %
11.06.2016 12:52 21,1 C 57 % 1009,0 hPa 0,0 l/m 1,7 km/h (1 Bft) NW 305 0 min 0,000 mm 2,8 UV-I 368 W/m 12,2 C 21,1 C 3,2 km/h (1 Bft) 100,00 %
11.06.2016 12:53 21,1 C 56 % 1009,0 hPa 0,0 l/m 2,7 km/h (1 Bft) NW 304 0 min 0,000 mm 2,6 UV-I 354 W/m 12,0 C 21,1 C 3,2 km/h (1 Bft) 100,00 %
11.06.2016 12:54 21,1 C 54 % 1009,0 hPa 0,0 l/m 3,1 km/h (1 Bft) NW 304 0 min 0,000 mm 2,5 UV-I 342 W/m 11,4 C 21,1 C 4,8 km/h (1 Bft) 100,00 %
11.06.2016 12:55 21,0 C 55 % 1009,0 hPa 0,0 l/m 1,6 km/h (1 Bft) NW 304 0 min 0,000 mm 2,4 UV-I 331 W/m 11,6 C 21,0 C 3,2 km/h (1 Bft) 100,00 %
11.06.2016 12:56 20,9 C 54 % 1009,0 hPa 0,0 l/m 0,8 km/h (0 Bft) NW 304 0 min 0,000 mm 2,3 UV-I 321 W/m 11,2 C 20,9 C 1,6 km/h (1 Bft) 100,00 %
11.06.2016 12:57 20,9 C 58 % 1009,0 hPa 0,0 l/m 2,6 km/h (1 Bft) NW 304 0 min 0,000 mm 2,3 UV-I 310 W/m 12,3 C 20,9 C 3,2 km/h (1 Bft) 92,31 %
11.06.2016 12:58 20,9 C 57 % 1009,0 hPa 0,0 l/m 1,3 km/h (1 Bft) NW 304 0 min 0,000 mm 2,2 UV-I 300 W/m 12,1 C 20,9 C 3,2 km/h (1 Bft) 100,00 %
11.06.2016 12:59 20,9 C 55 % 1009,0 hPa 0,0 l/m 0,6 km/h (0 Bft) NW 304 0 min 0,000 mm 2,2 UV-I 294 W/m 11,5 C 20,9 C 1,6 km/h (1 Bft) 100,00 %
11.06.2016 13:00 20,9 C 55 % 1009,1 hPa 0,0 l/m 0,9 km/h (0 Bft) NW 304 0 min 0,432 mm 2,1 UV-I 290 W/m 11,5 C 20,9 C 1,6 km/h (1 Bft) 100,00 %
11.06.2016 13:01 20,9 C 55 % 1009,1 hPa 0,0 l/m 1,7 km/h (1 Bft) NW 304 0 min 0,000 mm 2,1 UV-I 290 W/m 11,5 C 20,9 C 3,2 km/h (1 Bft) 100,00 %
11.06.2016 13:02 20,9 C 61 % 1009,0 hPa 0,0 l/m 2,5 km/h (1 Bft) NW 304 0 min 0,000 mm 2,1 UV-I 289 W/m 13,1 C 20,9 C 3,2 km/h (1 Bft) 100,00 %
11.06.2016 13:03 20,9 C 59 % 1009,1 hPa 0,0 l/m 1,5 km/h (1 Bft) NW 304 0 min 0,000 mm 2,1 UV-I 286 W/m 12,6 C 20,9 C 3,2 km/h (1 Bft) 100,00 %
11.06.2016 13:04 20,9 C 64 % 1009,0 hPa 0,0 l/m 0,5 km/h (0 Bft) NW 304 0 min 0,000 mm 2,1 UV-I 285 W/m 13,8 C 20,9 C 1,6 km/h (1 Bft) 100,00 %
11.06.2016 13:05 20,9 C 62 % 1009,1 hPa 0,0 l/m 0,4 km/h (0 Bft) NW 310 0 min 0,000 mm 2,1 UV-I 286 W/m 13,3 C 20,9 C 1,6 km/h (1 Bft) 95,65 %
11.06.2016 13:06 20,8 C 63 % 1009,1 hPa 0,0 l/m 0,6 km/h (0 Bft) NW 310 0 min 0,000 mm 2,2 UV-I 290 W/m 13,5 C 20,8 C 1,6 km/h (1 Bft) 100,00 %
11.06.2016 13:07 20,8 C 63 % 1009,0 hPa 0,0 l/m 0,7 km/h (0 Bft) NW 311 0 min 0,000 mm 2,2 UV-I 295 W/m 13,5 C 20,8 C 1,6 km/h (1 Bft) 95,83 %
11.06.2016 13:08 20,8 C 65 % 1009,1 hPa 0,0 l/m 1,3 km/h (1 Bft) NW 317 0 min 0,000 mm 2,2 UV-I 300 W/m 14,0 C 20,8 C 3,2 km/h (1 Bft) 95,65 %
11.06.2016 13:09 20,7 C 63 % 1009,0 hPa 0,0 l/m 2,5 km/h (1 Bft) N-NW 340 0 min 0,000 mm 2,2 UV-I 307 W/m 13,4 C 20,7 C 3,2 km/h (1 Bft) 100,00 %
11.06.2016 13:10 20,7 C 64 % 1009,0 hPa 0,0 l/m 2,0 km/h (1 Bft) N-NW 338 0 min 0,000 mm 2,3 UV-I 314 W/m 13,6 C 20,7 C 4,8 km/h (1 Bft) 100,00 %
11.06.2016 13:11 20,7 C 67 % 1009,0 hPa 0,0 l/m 3,9 km/h (1 Bft) N 9 0 min 0,000 mm 2,4 UV-I 320 W/m 14,3 C 20,7 C 8,0 km/h (2 Bft) 100,00 %
11.06.2016 13:12 20,7 C 66 % 1009,0 hPa 0,0 l/m 5,1 km/h (1 Bft) N-NW 338 0 min 0,000 mm 2,4 UV-I 325 W/m 14,1 C 20,7 C 12,9 km/h (3 Bft) 100,00 %
11.06.2016 13:13 20,6 C 65 % 1009,0 hPa 0,0 l/m 7,2 km/h (2 Bft) W-NW 288 0 min 0,000 mm 2,4 UV-I 329 W/m 13,8 C 20,3 C 14,5 km/h (3 Bft) 100,00 %
11.06.2016 13:14 20,5 C 67 % 1009,0 hPa 0,0 l/m 3,6 km/h (1 Bft) N-NW 334 0 min 0,000 mm 2,4 UV-I 331 W/m 14,2 C 20,5 C 6,4 km/h (2 Bft) 100,00 %
11.06.2016 13:15 20,4 C 67 % 1009,0 hPa 0,0 l/m 4,5 km/h (1 Bft) NW 324 0 min 0,000 mm 2,4 UV-I 335 W/m 14,1 C 20,4 C 8,0 km/h (2 Bft) 100,00 %
11.06.2016 13:16 20,3 C 68 % 1009,0 hPa 0,0 l/m 3,4 km/h (1 Bft) N 5 0 min 0,000 mm 2,5 UV-I 337 W/m 14,2 C 20,3 C 6,4 km/h (2 Bft) 100,00 %
11.06.2016 13:17 20,2 C 68 % 1009,0 hPa 0,0 l/m 1,7 km/h (1 Bft) NW 313 0 min 0,000 mm 2,5 UV-I 340 W/m 14,1 C 20,2 C 3,2 km/h (1 Bft) 100,00 %
11.06.2016 13:18 20,2 C 71 % 1009,1 hPa 0,0 l/m 1,5 km/h (1 Bft) NW 317 0 min 0,000 mm 2,5 UV-I 343 W/m 14,8 C 20,2 C 4,8 km/h (1 Bft) 95,65 %
11.06.2016 13:19 20,1 C 69 % 1009,0 hPa 0,0 l/m 2,3 km/h (1 Bft) NW 311 0 min 0,000 mm 2,5 UV-I 346 W/m 14,2 C 20,1 C 4,8 km/h (1 Bft) 100,00 %
11.06.2016 13:20 20,1 C 71 % 1009,0 hPa 0,0 l/m 3,6 km/h (1 Bft) NW 320 0 min 0,000 mm 2,5 UV-I 349 W/m 14,7 C 20,1 C 8,0 km/h (2 Bft) 100,00 %
11.06.2016 13:21 20,1 C 70 % 1009,0 hPa 0,0 l/m 3,7 km/h (1 Bft) N 355 0 min 0,000 mm 2,6 UV-I 353 W/m 14,5 C 20,1 C 6,4 km/h (2 Bft) 95,83 %
11.06.2016 13:22 20,1 C 70 % 1009,0 hPa 0,0 l/m 2,5 km/h (1 Bft) N-NW 343 0 min 0,000 mm 2,6 UV-I 356 W/m 14,5 C 20,1 C 4,8 km/h (1 Bft) 95,65 %
11.06.2016 13:23 20,1 C 70 % 1009,0 hPa 0,0 l/m 4,0 km/h (1 Bft) NW 310 0 min 0,000 mm 2,6 UV-I 356 W/m 14,5 C 20,1 C 6,4 km/h (2 Bft) 95,83 %
11.06.2016 13:24 20,0 C 70 % 1009,0 hPa 0,0 l/m 2,7 km/h (1 Bft) N-NO 28 0 min 0,000 mm 2,6 UV-I 353 W/m 14,4 C 20,0 C 4,8 km/h (1 Bft) 95,83 %
11.06.2016 13:25 19,9 C 72 % 1009,0 hPa 0,0 l/m 2,3 km/h (1 Bft) N 350 0 min 0,000 mm 2,6 UV-I 351 W/m 14,7 C 19,9 C 4,8 km/h (1 Bft) 100,00 %
11.06.2016 13:26 19,9 C 73 % 1009,0 hPa 0,0 l/m 2,2 km/h (1 Bft) W-NW 301 0 min 0,000 mm 2,6 UV-I 347 W/m 14,9 C 19,9 C 8,0 km/h (2 Bft) 95,83 %
11.06.2016 13:27 19,9 C 72 % 1009,0 hPa 0,0 l/m 3,1 km/h (1 Bft) N 355 0 min 0,000 mm 2,5 UV-I 343 W/m 14,7 C 19,9 C 8,0 km/h (2 Bft) 100,00 %
11.06.2016 13:28 19,9 C 70 % 1009,0 hPa 0,0 l/m 4,6 km/h (1 Bft) W-NW 302 0 min 0,000 mm 2,5 UV-I 340 W/m 14,3 C 19,9 C 8,0 km/h (2 Bft) 95,83 %
11.06.2016 13:29 19,9 C 72 % 1009,0 hPa 0,0 l/m 1,1 km/h (1 Bft) N-NW 336 0 min 0,000 mm 2,5 UV-I 338 W/m 14,7 C 19,9 C 1,6 km/h (1 Bft) 92,31 %
11.06.2016 13:30 19,9 C 72 % 1009,0 hPa 0,0 l/m 1,7 km/h (1 Bft) NW 305 0 min 0,000 mm 2,5 UV-I 339 W/m 14,7 C 19,9 C 3,2 km/h (1 Bft) 100,00 %
11.06.2016 13:31 19,8 C 70 % 1009,0 hPa 0,0 l/m 2,6 km/h (1 Bft) NW 322 0 min 0,000 mm 2,5 UV-I 341 W/m 14,2 C 19,8 C 4,8 km/h (1 Bft) 92,86 %
11.06.2016 13:32 19,8 C 72 % 1009,0 hPa 0,0 l/m 3,2 km/h (1 Bft) N-NW 337 0 min 0,000 mm 2,5 UV-I 344 W/m 14,6 C 19,8 C 6,4 km/h (2 Bft) 100,00 %
11.06.2016 13:33 19,8 C 71 % 1009,0 hPa 0,0 l/m 1,3 km/h (1 Bft) N-NW 338 0 min 0,000 mm 2,5 UV-I 346 W/m 14,4 C 19,8 C 1,6 km/h (1 Bft) 95,65 %
11.06.2016 13:34 19,8 C 73 % 1008,9 hPa 0,0 l/m 1,5 km/h (1 Bft) NW 319 0 min 0,000 mm 2,5 UV-I 349 W/m 14,8 C 19,8 C 4,8 km/h (1 Bft) 100,00 %
11.06.2016 13:35 19,8 C 71 % 1008,9 hPa 0,0 l/m 3,4 km/h (1 Bft) N 5 0 min 0,000 mm 2,5 UV-I 352 W/m 14,4 C 19,8 C 4,8 km/h (1 Bft) 95,65 %
11.06.2016 13:36 19,8 C 70 % 1008,9 hPa 0,0 l/m 2,6 km/h (1 Bft) N 355 0 min 0,000 mm 2,6 UV-I 359 W/m 14,2 C 19,8 C 4,8 km/h (1 Bft) 100,00 %
11.06.2016 13:37 19,8 C 70 % 1008,9 hPa 0,0 l/m 2,6 km/h (1 Bft) N-NW 327 0 min 0,000 mm 2,6 UV-I 366 W/m 14,2 C 19,8 C 4,8 km/h (1 Bft) 91,30 %
11.06.2016 13:38 19,8 C 72 % 1008,9 hPa 0,0 l/m 2,6 km/h (1 Bft) N-NW 331 0 min 0,000 mm 2,7 UV-I 372 W/m 14,6 C 19,8 C 4,8 km/h (1 Bft) 95,83 %
11.06.2016 13:39 19,8 C 71 % 1008,9 hPa 0,0 l/m 0,8 km/h (0 Bft) N-NW 333 0 min 0,000 mm 2,7 UV-I 376 W/m 14,4 C 19,8 C 1,6 km/h (1 Bft) 100,00 %
11.06.2016 13:40 19,9 C 73 % 1008,9 hPa 0,0 l/m 2,7 km/h (1 Bft) W 275 0 min 0,000 mm 2,7 UV-I 378 W/m 14,9 C 19,9 C 4,8 km/h (1 Bft) 95,83 %
11.06.2016 13:41 19,9 C 71 % 1008,9 hPa 0,0 l/m 1,0 km/h (0 Bft) W 275 0 min 0,000 mm 2,7 UV-I 380 W/m 14,5 C 19,9 C 3,2 km/h (1 Bft) 100,00 %
11.06.2016 13:42 20,0 C 72 % 1008,9 hPa 0,0 l/m 0,3 km/h (0 Bft) W 275 0 min 0,000 mm 2,8 UV-I 381 W/m 14,8 C 20,0 C 1,6 km/h (1 Bft) 95,65 %
11.06.2016 13:43 20,1 C 71 % 1008,9 hPa 0,0 l/m 0,1 km/h (0 Bft) W 275 0 min 0,000 mm 2,8 UV-I 385 W/m 14,7 C 20,1 C 1,6 km/h (1 Bft) 100,00 %
11.06.2016 13:44 20,2 C 73 % 1008,9 hPa 0,0 l/m 1,3 km/h (1 Bft) NW 319 0 min 0,000 mm 2,8 UV-I 387 W/m 15,2 C 20,2 C 3,2 km/h (1 Bft) 86,96 %
11.06.2016 13:45 20,2 C 71 % 1008,9 hPa 0,0 l/m 3,7 km/h (1 Bft) W 268 0 min 0,000 mm 2,8 UV-I 391 W/m 14,8 C 20,2 C 11,3 km/h (2 Bft) 100,00 %
11.06.2016 13:46 20,2 C 70 % 1008,9 hPa 0,0 l/m 3,0 km/h (1 Bft) NW 306 0 min 0,000 mm 2,9 UV-I 392 W/m 14,5 C 20,2 C 6,4 km/h (2 Bft) 91,30 %
11.06.2016 13:47 20,2 C 70 % 1008,9 hPa 0,0 l/m 2,9 km/h (1 Bft) NW 308 0 min 0,000 mm 2,9 UV-I 392 W/m 14,5 C 20,2 C 4,8 km/h (1 Bft) 95,83 %
11.06.2016 13:48 20,2 C 68 % 1008,9 hPa 0,0 l/m 2,6 km/h (1 Bft) NW 315 0 min 0,000 mm 2,9 UV-I 393 W/m 14,1 C 20,2 C 4,8 km/h (1 Bft) 95,65 %
11.06.2016 13:50 20,2 C 70 % 1008,8 hPa 0,0 l/m 1,6 km/h (1 Bft) NW 315 0 min 0,000 mm 3,0 UV-I 398 W/m 14,5 C 20,2 C 6,4 km/h (2 Bft) 98,25 %
11.06.2016 13:55 20,3 C 69 % 1008,8 hPa 0,0 l/m 3,2 km/h (1 Bft) N-NW 337 0 min 0,000 mm 3,3 UV-I 437 W/m 14,4 C 20,3 C 6,4 km/h (2 Bft) 100,00 %
11.06.2016 14:00 20,5 C 69 % 1008,8 hPa 0,0 l/m 3,2 km/h (1 Bft) N-NW 337 5 min 0,229 mm 3,6 UV-I 500 W/m 14,6 C 20,5 C 6,4 km/h (2 Bft) 99,12 %
11.06.2016 14:05 20,6 C 68 % 1008,8 hPa 0,0 l/m 3,2 km/h (1 Bft) N-NW 337 0 min 0,000 mm 3,4 UV-I 454 W/m 14,5 C 20,6 C 8,0 km/h (2 Bft) 97,37 %
11.06.2016 14:07 20,7 C 70 % 1008,8 hPa 0,0 l/m 3,6 km/h (1 Bft) W-NW 288 0 min 0,000 mm 3,4 UV-I 470 W/m 15,0 C 20,7 C 9,7 km/h (2 Bft) 97,75 %
11.06.2016 14:08 20,7 C 67 % 1008,8 hPa 0,0 l/m 5,0 km/h (1 Bft) N-NW 340 1 min 0,000 mm 3,4 UV-I 508 W/m 14,3 C 20,7 C 11,3 km/h (2 Bft) 100,00 %
11.06.2016 14:09 20,7 C 65 % 1008,8 hPa 0,0 l/m 2,7 km/h (1 Bft) N-NW 338 1 min 0,000 mm 3,4 UV-I 498 W/m 13,9 C 20,7 C 4,8 km/h (1 Bft) 96,30 %
11.06.2016 14:10 20,7 C 66 % 1008,8 hPa 0,0 l/m 3,6 km/h (1 Bft) NW 311 0 min 0,000 mm 3,3 UV-I 465 W/m 14,1 C 20,7 C 4,8 km/h (1 Bft) 100,00 %
11.06.2016 14:11 20,7 C 64 % 1008,8 hPa 0,0 l/m 2,8 km/h (1 Bft) W-NW 301 0 min 0,000 mm 3,2 UV-I 450 W/m 13,6 C 20,7 C 4,8 km/h (1 Bft) 100,00 %
11.06.2016 14:12 20,7 C 66 % 1008,8 hPa 0,0 l/m 5,1 km/h (1 Bft) NW 325 0 min 0,000 mm 3,2 UV-I 442 W/m 14,1 C 20,7 C 9,7 km/h (2 Bft) 100,00 %
11.06.2016 14:13 20,7 C 65 % 1008,8 hPa 0,0 l/m 4,0 km/h (1 Bft) W-NW 286 0 min 0,000 mm 3,1 UV-I 437 W/m 13,9 C 20,7 C 6,4 km/h (2 Bft) 100,00 %
11.06.2016 14:14 20,8 C 66 % 1008,8 hPa 0,0 l/m 3,0 km/h (1 Bft) W-NW 286 0 min 0,000 mm 3,1 UV-I 432 W/m 14,2 C 20,8 C 4,8 km/h (1 Bft) 100,00 %
11.06.2016 14:15 20,8 C 67 % 1008,8 hPa 0,0 l/m 2,7 km/h (1 Bft) W 280 0 min 0,000 mm 3,1 UV-I 426 W/m 14,4 C 20,8 C 4,8 km/h (1 Bft) 100,00 %
11.06.2016 14:16 20,8 C 66 % 1008,8 hPa 0,0 l/m 3,1 km/h (1 Bft) W 280 0 min 0,000 mm 3,1 UV-I 425 W/m 14,2 C 20,8 C 4,8 km/h (1 Bft) 100,00 %
11.06.2016 14:17 20,8 C 65 % 1008,8 hPa 0,0 l/m 1,0 km/h (0 Bft) W 280 0 min 0,000 mm 3,1 UV-I 428 W/m 14,0 C 20,8 C 3,2 km/h (1 Bft) 100,00 %
11.06.2016 14:18 20,8 C 66 % 1008,8 hPa 0,0 l/m 2,5 km/h (1 Bft) N-NW 338 0 min 0,000 mm 3,1 UV-I 439 W/m 14,2 C 20,8 C 4,8 km/h (1 Bft) 100,00 %
11.06.2016 14:19 20,8 C 67 % 1008,8 hPa 0,0 l/m 3,6 km/h (1 Bft) W-NW 288 0 min 0,000 mm 3,2 UV-I 446 W/m 14,4 C 20,8 C 6,4 km/h (2 Bft) 95,83 %
11.06.2016 14:20 20,8 C 65 % 1008,8 hPa 0,0 l/m 4,0 km/h (1 Bft) W 266 0 min 0,000 mm 3,1 UV-I 440 W/m 14,0 C 20,8 C 6,4 km/h (2 Bft) 95,65 %
11.06.2016 14:21 20,8 C 66 % 1008,8 hPa 0,0 l/m 3,4 km/h (1 Bft) NW 325 0 min 0,000 mm 3,1 UV-I 435 W/m 14,2 C 20,8 C 6,4 km/h (2 Bft) 95,83 %
11.06.2016 14:22 20,8 C 63 % 1008,8 hPa 0,0 l/m 3,4 km/h (1 Bft) W 267 0 min 0,000 mm 3,0 UV-I 412 W/m 13,5 C 20,8 C 6,4 km/h (2 Bft) 100,00 %
11.06.2016 14:23 20,8 C 64 % 1008,8 hPa 0,0 l/m 2,4 km/h (1 Bft) NW 308 0 min 0,000 mm 2,9 UV-I 395 W/m 13,7 C 20,8 C 4,8 km/h (1 Bft) 100,00 %
11.06.2016 14:24 20,8 C 65 % 1008,8 hPa 0,0 l/m 1,4 km/h (1 Bft) NW 307 0 min 0,000 mm 2,9 UV-I 386 W/m 14,0 C 20,8 C 4,8 km/h (1 Bft) 100,00 %
11.06.2016 14:25 20,8 C 64 % 1008,8 hPa 0,0 l/m 1,6 km/h (1 Bft) NW 323 0 min 0,000 mm 2,8 UV-I 383 W/m 13,7 C 20,8 C 3,2 km/h (1 Bft) 100,00 %
11.06.2016 14:26 20,8 C 66 % 1008,8 hPa 0,0 l/m 3,1 km/h (1 Bft) N 355 0 min 0,000 mm 2,8 UV-I 384 W/m 14,2 C 20,8 C 6,4 km/h (2 Bft) 100,00 %
11.06.2016 14:27 20,7 C 66 % 1008,8 hPa 0,0 l/m 3,0 km/h (1 Bft) NW 306 0 min 0,000 mm 2,8 UV-I 385 W/m 14,1 C 20,7 C 4,8 km/h (1 Bft) 100,00 %
11.06.2016 14:28 20,7 C 66 % 1008,7 hPa 0,0 l/m 2,9 km/h (1 Bft) N-NO 17 0 min 0,000 mm 2,8 UV-I 385 W/m 14,1 C 20,7 C 6,4 km/h (2 Bft) 95,83 %
11.06.2016 14:29 20,7 C 66 % 1008,8 hPa 0,0 l/m 3,2 km/h (1 Bft) W-NW 286 0 min 0,000 mm 2,8 UV-I 386 W/m 14,1 C 20,7 C 4,8 km/h (1 Bft) 95,65 %
11.06.2016 14:30 20,7 C 65 % 1008,8 hPa 0,0 l/m 1,3 km/h (1 Bft) W-NW 294 0 min 0,000 mm 2,7 UV-I 383 W/m 13,9 C 20,7 C 3,2 km/h (1 Bft) 100,00 %
11.06.2016 14:31 20,7 C 66 % 1008,7 hPa 0,0 l/m 3,2 km/h (1 Bft) NW 307 0 min 0,000 mm 2,7 UV-I 378 W/m 14,1 C 20,7 C 6,4 km/h (2 Bft) 100,00 %
11.06.2016 14:32 20,7 C 62 % 1008,7 hPa 0,0 l/m 3,5 km/h (1 Bft) NW 316 0 min 0,000 mm 2,6 UV-I 364 W/m 13,2 C 20,7 C 4,8 km/h (1 Bft) 100,00 %
11.06.2016 14:33 20,7 C 63 % 1008,8 hPa 0,0 l/m 2,1 km/h (1 Bft) NW 317 0 min 0,000 mm 2,5 UV-I 349 W/m 13,4 C 20,7 C 3,2 km/h (1 Bft) 100,00 %
11.06.2016 14:34 20,7 C 66 % 1008,8 hPa 0,0 l/m 1,4 km/h (1 Bft) NW 317 0 min 0,000 mm 2,4 UV-I 340 W/m 14,1 C 20,7 C 3,2 km/h (1 Bft) 100,00 %
11.06.2016 14:35 20,7 C 60 % 1008,8 hPa 0,0 l/m 1,7 km/h (1 Bft) NW 314 0 min 0,000 mm 2,4 UV-I 336 W/m 12,7 C 20,7 C 3,2 km/h (1 Bft) 95,65 %
11.06.2016 14:36 20,7 C 60 % 1008,8 hPa 0,0 l/m 3,8 km/h (1 Bft) W-SW 249 0 min 0,000 mm 2,4 UV-I 337 W/m 12,7 C 20,7 C 4,8 km/h (1 Bft) 100,00 %
11.06.2016 14:37 20,6 C 59 % 1008,8 hPa 0,0 l/m 2,5 km/h (1 Bft) W-SW 257 0 min 0,000 mm 2,4 UV-I 339 W/m 12,3 C 20,6 C 4,8 km/h (1 Bft) 92,31 %
11.06.2016 14:38 20,6 C 60 % 1008,8 hPa 0,0 l/m 4,5 km/h (1 Bft) W-NW 302 0 min 0,000 mm 2,4 UV-I 344 W/m 12,6 C 20,6 C 9,7 km/h (2 Bft) 100,00 %
11.06.2016 14:39 20,6 C 59 % 1008,8 hPa 0,0 l/m 5,7 km/h (1 Bft) W 275 0 min 0,000 mm 2,4 UV-I 349 W/m 12,3 C 20,6 C 9,7 km/h (2 Bft) 100,00 %
11.06.2016 14:40 20,7 C 61 % 1008,8 hPa 0,0 l/m 2,0 km/h (1 Bft) W 275 0 min 0,000 mm 2,5 UV-I 355 W/m 12,9 C 20,7 C 4,8 km/h (1 Bft) 95,83 %
11.06.2016 14:41 20,7 C 61 % 1008,8 hPa 0,0 l/m 1,8 km/h (1 Bft) W 280 0 min 0,000 mm 2,5 UV-I 364 W/m 12,9 C 20,7 C 4,8 km/h (1 Bft) 91,30 %
11.06.2016 14:42 20,7 C 59 % 1008,7 hPa 0,0 l/m 5,3 km/h (1 Bft) W 262 0 min 0,000 mm 2,5 UV-I 368 W/m 12,4 C 20,7 C 11,3 km/h (2 Bft) 100,00 %
11.06.2016 14:43 20,7 C 59 % 1008,8 hPa 0,0 l/m 5,8 km/h (2 Bft) W 279 0 min 0,000 mm 2,6 UV-I 382 W/m 12,4 C 20,7 C 8,0 km/h (2 Bft) 100,00 %
11.06.2016 14:44 20,7 C 60 % 1008,7 hPa 0,0 l/m 3,6 km/h (1 Bft) W 274 0 min 0,000 mm 2,7 UV-I 400 W/m 12,7 C 20,7 C 4,8 km/h (1 Bft) 95,83 %
11.06.2016 14:45 20,8 C 61 % 1008,7 hPa 0,0 l/m 1,5 km/h (1 Bft) W 267 0 min 0,000 mm 2,7 UV-I 402 W/m 13,0 C 20,8 C 3,2 km/h (1 Bft) 100,00 %
11.06.2016 14:46 20,8 C 61 % 1008,7 hPa 0,0 l/m 1,5 km/h (1 Bft) W 277 0 min 0,000 mm 2,8 UV-I 404 W/m 13,0 C 20,8 C 3,2 km/h (1 Bft) 100,00 %
11.06.2016 14:47 20,8 C 61 % 1008,7 hPa 0,0 l/m 2,8 km/h (1 Bft) W 271 0 min 0,000 mm 2,8 UV-I 406 W/m 13,0 C 20,8 C 3,2 km/h (1 Bft) 100,00 %
11.06.2016 14:48 20,9 C 61 % 1008,7 hPa 0,0 l/m 2,6 km/h (1 Bft) W 273 0 min 0,000 mm 2,8 UV-I 410 W/m 13,1 C 20,9 C 3,2 km/h (1 Bft) 95,65 %
11.06.2016 14:49 21,0 C 61 % 1008,8 hPa 0,0 l/m 1,3 km/h (1 Bft) W 280 0 min 0,000 mm 2,9 UV-I 416 W/m 13,2 C 21,0 C 3,2 km/h (1 Bft) 100,00 %
11.06.2016 14:50 21,1 C 61 % 1008,7 hPa 0,0 l/m 1,7 km/h (1 Bft) W-NW 294 0 min 0,000 mm 2,9 UV-I 446 W/m 13,3 C 21,1 C 3,2 km/h (1 Bft) 100,00 %
11.06.2016 14:51 21,1 C 60 % 1008,8 hPa 0,0 l/m 3,2 km/h (1 Bft) NW 325 0 min 0,000 mm 3,0 UV-I 444 W/m 13,0 C 21,1 C 6,4 km/h (2 Bft) 100,00 %
11.06.2016 14:52 21,1 C 58 % 1008,8 hPa 0,0 l/m 0,7 km/h (0 Bft) NW 325 0 min 0,000 mm 3,0 UV-I 441 W/m 12,5 C 21,1 C 3,2 km/h (1 Bft) 100,00 %
11.06.2016 14:53 21,1 C 58 % 1008,8 hPa 0,0 l/m 2,2 km/h (1 Bft) NW 325 0 min 0,000 mm 3,0 UV-I 437 W/m 12,5 C 21,1 C 3,2 km/h (1 Bft) 100,00 %
11.06.2016 14:54 21,1 C 57 % 1008,7 hPa 0,0 l/m 1,9 km/h (1 Bft) W 277 0 min 0,000 mm 3,0 UV-I 427 W/m 12,2 C 21,1 C 4,8 km/h (1 Bft) 95,65 %
11.06.2016 14:55 21,1 C 57 % 1008,8 hPa 0,0 l/m 6,6 km/h (2 Bft) W 277 0 min 0,000 mm 2,9 UV-I 415 W/m 12,2 C 21,0 C 9,7 km/h (2 Bft) 100,00 %
11.06.2016 14:56 21,1 C 54 % 1008,8 hPa 0,0 l/m 7,5 km/h (2 Bft) SW 222 0 min 0,000 mm 2,9 UV-I 405 W/m 11,4 C 20,7 C 11,3 km/h (2 Bft) 100,00 %
11.06.2016 14:57 21,0 C 52 % 1008,8 hPa 0,0 l/m 7,5 km/h (2 Bft) W-SW 257 0 min 0,000 mm 2,8 UV-I 396 W/m 10,8 C 20,6 C 12,9 km/h (3 Bft) 100,00 %
11.06.2016 14:58 20,9 C 54 % 1008,8 hPa 0,0 l/m 4,6 km/h (1 Bft) W-SW 242 0 min 0,000 mm 2,8 UV-I 390 W/m 11,2 C 20,9 C 6,4 km/h (2 Bft) 95,65 %
11.06.2016 14:59 20,9 C 54 % 1008,7 hPa 0,0 l/m 5,0 km/h (1 Bft) W-SW 253 0 min 0,000 mm 2,7 UV-I 384 W/m 11,2 C 20,9 C 8,0 km/h (2 Bft) 100,00 %
11.06.2016 15:00 20,9 C 54 % 1008,8 hPa 0,0 l/m 3,5 km/h (1 Bft) W 281 0 min 0,000 mm 2,7 UV-I 377 W/m 11,2 C 20,9 C 9,7 km/h (2 Bft) 100,00 %
11.06.2016 15:01 20,9 C 55 % 1008,8 hPa 0,0 l/m 4,4 km/h (1 Bft) W 261 0 min 0,253 mm 2,7 UV-I 367 W/m 11,5 C 20,9 C 8,0 km/h (2 Bft) 100,00 %
11.06.2016 15:02 20,9 C 56 % 1008,8 hPa 0,0 l/m 4,8 km/h (1 Bft) SW 229 0 min 0,000 mm 2,6 UV-I 361 W/m 11,8 C 20,9 C 6,4 km/h (2 Bft) 100,00 %
11.06.2016 15:03 20,8 C 55 % 1008,7 hPa 0,0 l/m 4,7 km/h (1 Bft) W-SW 237 0 min 0,000 mm 2,5 UV-I 357 W/m 11,4 C 20,8 C 8,0 km/h (2 Bft) 100,00 %
11.06.2016 15:04 20,8 C 55 % 1008,7 hPa 0,0 l/m 7,4 km/h (2 Bft) W 259 0 min 0,000 mm 2,5 UV-I 352 W/m 11,4 C 20,4 C 11,3 km/h (2 Bft) 100,00 %
11.06.2016 15:05 20,8 C 56 % 1008,7 hPa 0,0 l/m 4,4 km/h (1 Bft) W-SW 258 0 min 0,000 mm 2,4 UV-I 343 W/m 11,7 C 20,8 C 11,3 km/h (2 Bft) 100,00 %
11.06.2016 15:06 20,8 C 56 % 1008,7 hPa 0,0 l/m 7,9 km/h (2 Bft) W-NW 294 0 min 0,000 mm 2,4 UV-I 327 W/m 11,7 C 20,2 C 12,9 km/h (3 Bft) 100,00 %
11.06.2016 15:07 20,8 C 57 % 1008,8 hPa 0,0 l/m 10,2 km/h (2 Bft) S-SW 200 0 min 0,000 mm 2,3 UV-I 309 W/m 12,0 C 19,5 C 16,1 km/h (3 Bft) 100,00 %
11.06.2016 15:08 20,8 C 58 % 1008,7 hPa 0,0 l/m 6,6 km/h (2 Bft) SW 234 0 min 0,000 mm 2,1 UV-I 291 W/m 12,2 C 20,7 C 9,7 km/h (2 Bft) 100,00 %
11.06.2016 15:09 20,8 C 58 % 1008,7 hPa 0,0 l/m 4,4 km/h (1 Bft) W-NW 297 0 min 0,000 mm 2,0 UV-I 274 W/m 12,2 C 20,8 C 6,4 km/h (2 Bft) 100,00 %
11.06.2016 15:10 20,7 C 57 % 1008,7 hPa 0,0 l/m 3,7 km/h (1 Bft) SW 236 0 min 0,000 mm 1,9 UV-I 258 W/m 11,9 C 20,7 C 6,4 km/h (2 Bft) 100,00 %
11.06.2016 15:11 20,7 C 57 % 1008,7 hPa 0,0 l/m 6,2 km/h (2 Bft) SW 225 0 min 0,000 mm 1,8 UV-I 245 W/m 11,9 C 20,7 C 9,7 km/h (2 Bft) 100,00 %
11.06.2016 15:12 20,6 C 56 % 1008,7 hPa 0,0 l/m 4,8 km/h (1 Bft) W-SW 252 0 min 0,000 mm 1,7 UV-I 233 W/m 11,5 C 20,6 C 8,0 km/h (2 Bft) 100,00 %
11.06.2016 15:13 20,6 C 58 % 1008,7 hPa 0,0 l/m 6,0 km/h (2 Bft) W-SW 249 0 min 0,000 mm 1,6 UV-I 225 W/m 12,0 C 20,6 C 8,0 km/h (2 Bft) 100,00 %
11.06.2016 15:14 20,5 C 60 % 1008,7 hPa 0,0 l/m 4,2 km/h (1 Bft) W-SW 247 0 min 0,000 mm 1,5 UV-I 217 W/m 12,5 C 20,5 C 8,0 km/h (2 Bft) 95,83 %
11.06.2016 15:15 20,4 C 57 % 1008,7 hPa 0,0 l/m 4,2 km/h (1 Bft) W-SW 258 0 min 0,000 mm 1,4 UV-I 212 W/m 11,6 C 20,4 C 6,4 km/h (2 Bft) 100,00 %
11.06.2016 15:16 20,4 C 61 % 1008,8 hPa 0,0 l/m 3,2 km/h (1 Bft) W 279 0 min 0,000 mm 1,4 UV-I 209 W/m 12,6 C 20,4 C 9,7 km/h (2 Bft) 100,00 %
11.06.2016 15:17 20,4 C 61 % 1008,8 hPa 0,0 l/m 6,6 km/h (2 Bft) W 277 0 min 0,000 mm 1,4 UV-I 207 W/m 12,6 C 20,3 C 9,7 km/h (2 Bft) 100,00 %
11.06.2016 15:18 20,4 C 59 % 1008,8 hPa 0,0 l/m 5,2 km/h (1 Bft) SW 229 0 min 0,000 mm 1,4 UV-I 208 W/m 12,1 C 20,4 C 9,7 km/h (2 Bft) 100,00 %
11.06.2016 15:19 20,4 C 60 % 1008,8 hPa 0,0 l/m 3,6 km/h (1 Bft) W-SW 241 0 min 0,000 mm 1,4 UV-I 212 W/m 12,4 C 20,4 C 4,8 km/h (1 Bft) 100,00 %
11.06.2016 15:20 20,3 C 60 % 1008,8 hPa 0,0 l/m 6,6 km/h (2 Bft) W 271 0 min 0,000 mm 1,4 UV-I 217 W/m 12,3 C 20,2 C 12,9 km/h (3 Bft) 100,00 %
11.06.2016 15:21 20,3 C 59 % 1008,8 hPa 0,0 l/m 11,9 km/h (2 Bft) W 266 0 min 0,000 mm 1,5 UV-I 225 W/m 12,0 C 18,4 C 17,7 km/h (3 Bft) 95,65 %
11.06.2016 15:22 20,3 C 60 % 1008,8 hPa 0,0 l/m 3,5 km/h (1 Bft) SW 220 0 min 0,000 mm 1,5 UV-I 235 W/m 12,3 C 20,3 C 11,3 km/h (2 Bft) 95,83 %
11.06.2016 15:23 20,2 C 61 % 1008,8 hPa 0,0 l/m 6,2 km/h (2 Bft) W-NW 288 0 min 0,000 mm 1,5 UV-I 239 W/m 12,4 C 20,2 C 9,7 km/h (2 Bft) 95,65 %
11.06.2016 15:24 20,2 C 59 % 1008,8 hPa 0,0 l/m 4,4 km/h (1 Bft) W 277 0 min 0,000 mm 1,6 UV-I 243 W/m 11,9 C 20,2 C 6,4 km/h (2 Bft) 95,83 %
11.06.2016 15:25 20,2 C 60 % 1008,8 hPa 0,0 l/m 5,8 km/h (2 Bft) SW 231 0 min 0,000 mm 1,6 UV-I 249 W/m 12,2 C 20,2 C 9,7 km/h (2 Bft) 100,00 %
11.06.2016 15:26 20,2 C 61 % 1008,8 hPa 0,0 l/m 6,0 km/h (2 Bft) W-SW 238 0 min 0,000 mm 1,6 UV-I 251 W/m 12,4 C 20,2 C 8,0 km/h (2 Bft) 91,67 %
11.06.2016 15:27 20,2 C 61 % 1008,8 hPa 0,0 l/m 4,8 km/h (1 Bft) W-SW 237 0 min 0,000 mm 1,6 UV-I 253 W/m 12,4 C 20,2 C 6,4 km/h (2 Bft) 100,00 %
11.06.2016 15:28 20,2 C 61 % 1008,8 hPa 0,0 l/m 6,4 km/h (2 Bft) W-SW 242 0 min 0,000 mm 1,6 UV-I 253 W/m 12,4 C 20,2 C 11,3 km/h (2 Bft) 95,65 %
11.06.2016 15:29 20,2 C 61 % 1008,8 hPa 0,0 l/m 7,0 km/h (2 Bft) W-NW 300 0 min 0,000 mm 1,6 UV-I 252 W/m 12,4 C 20,0 C 11,3 km/h (2 Bft) 95,83 %
11.06.2016 15:30 20,2 C 61 % 1008,8 hPa 0,0 l/m 5,9 km/h (2 Bft) W-SW 238 0 min 0,000 mm 1,6 UV-I 251 W/m 12,4 C 20,2 C 8,0 km/h (2 Bft) 100,00 %
11.06.2016 15:31 20,2 C 62 % 1008,8 hPa 0,0 l/m 8,0 km/h (2 Bft) W-SW 238 0 min 0,000 mm 1,6 UV-I 248 W/m 12,7 C 19,6 C 11,3 km/h (2 Bft) 96,30 %
11.06.2016 15:32 20,2 C 62 % 1008,8 hPa 0,0 l/m 5,8 km/h (2 Bft) W 261 0 min 0,000 mm 1,6 UV-I 245 W/m 12,7 C 20,2 C 8,0 km/h (2 Bft) 100,00 %
11.06.2016 15:33 20,2 C 61 % 1008,9 hPa 0,0 l/m 7,9 km/h (2 Bft) W-SW 250 0 min 0,000 mm 1,6 UV-I 244 W/m 12,4 C 19,6 C 11,3 km/h (2 Bft) 96,30 %
11.06.2016 15:34 20,1 C 62 % 1008,9 hPa 0,0 l/m 11,1 km/h (2 Bft) W-SW 247 0 min 0,000 mm 1,6 UV-I 243 W/m 12,6 C 18,4 C 12,9 km/h (3 Bft) 100,00 %
11.06.2016 15:35 20,1 C 63 % 1008,8 hPa 0,0 l/m 11,3 km/h (2 Bft) W-SW 250 0 min 0,000 mm 1,5 UV-I 243 W/m 12,8 C 18,3 C 16,1 km/h (3 Bft) 95,83 %
11.06.2016 15:36 20,1 C 63 % 1008,8 hPa 0,0 l/m 11,7 km/h (2 Bft) W-SW 239 0 min 0,000 mm 1,5 UV-I 245 W/m 12,8 C 18,2 C 17,7 km/h (3 Bft) 95,65 %
11.06.2016 15:37 20,0 C 63 % 1008,8 hPa 0,0 l/m 10,7 km/h (2 Bft) W-SW 240 0 min 0,000 mm 1,6 UV-I 247 W/m 12,7 C 18,4 C 14,5 km/h (3 Bft) 95,83 %
11.06.2016 15:38 19,9 C 64 % 1008,9 hPa 0,0 l/m 15,6 km/h (3 Bft) W 271 0 min 0,000 mm 1,6 UV-I 248 W/m 12,9 C 17,0 C 22,5 km/h (4 Bft) 95,65 %
11.06.2016 15:39 19,9 C 64 % 1008,9 hPa 0,0 l/m 18,5 km/h (3 Bft) W-SW 246 0 min 0,000 mm 1,6 UV-I 251 W/m 12,9 C 16,4 C 22,5 km/h (4 Bft) 91,67 %
11.06.2016 15:40 19,8 C 66 % 1008,8 hPa 0,0 l/m 12,0 km/h (2 Bft) W-SW 250 0 min 0,000 mm 1,6 UV-I 254 W/m 13,3 C 17,8 C 14,5 km/h (3 Bft) 96,55 %
11.06.2016 15:41 19,8 C 66 % 1008,9 hPa 0,0 l/m 9,3 km/h (2 Bft) W 261 0 min 0,000 mm 1,6 UV-I 255 W/m 13,3 C 18,7 C 14,5 km/h (3 Bft) 100,00 %
11.06.2016 15:42 19,7 C 66 % 1008,9 hPa 0,0 l/m 7,4 km/h (2 Bft) SW 235 0 min 0,000 mm 1,6 UV-I 255 W/m 13,2 C 19,3 C 11,3 km/h (2 Bft) 91,30 %
11.06.2016 15:43 19,7 C 69 % 1008,8 hPa 0,0 l/m 7,9 km/h (2 Bft) W-SW 255 0 min 0,000 mm 1,5 UV-I 254 W/m 13,8 C 19,1 C 12,9 km/h (3 Bft) 100,00 %
11.06.2016 15:44 19,7 C 69 % 1008,8 hPa 0,0 l/m 12,4 km/h (3 Bft) SW 223 0 min 0,000 mm 1,5 UV-I 251 W/m 13,8 C 17,6 C 19,3 km/h (3 Bft) 95,65 %
11.06.2016 15:45 19,7 C 70 % 1008,8 hPa 0,0 l/m 15,2 km/h (3 Bft) W-SW 250 0 min 0,000 mm 1,5 UV-I 248 W/m 14,1 C 16,8 C 20,9 km/h (4 Bft) 91,67 %
11.06.2016 15:46 19,7 C 70 % 1008,9 hPa 0,0 l/m 12,5 km/h (3 Bft) SW 223 0 min 0,000 mm 1,5 UV-I 246 W/m 14,1 C 17,5 C 17,7 km/h (3 Bft) 100,00 %
11.06.2016 15:47 19,6 C 70 % 1008,8 hPa 0,0 l/m 10,3 km/h (2 Bft) W 259 0 min 0,000 mm 1,5 UV-I 239 W/m 14,0 C 18,1 C 12,9 km/h (3 Bft) 93,33 %
11.06.2016 15:48 19,6 C 71 % 1008,8 hPa 0,0 l/m 9,6 km/h (2 Bft) W-SW 253 0 min 0,000 mm 1,4 UV-I 233 W/m 14,2 C 18,3 C 14,5 km/h (3 Bft) 96,30 %
11.06.2016 15:49 19,5 C 72 % 1008,8 hPa 0,0 l/m 9,0 km/h (2 Bft) W-SW 247 0 min 0,000 mm 1,4 UV-I 228 W/m 14,3 C 18,4 C 12,9 km/h (3 Bft) 95,65 %
11.06.2016 15:50 19,5 C 73 % 1008,9 hPa 0,0 l/m 7,0 km/h (2 Bft) W-SW 241 0 min 0,000 mm 1,3 UV-I 224 W/m 14,5 C 19,2 C 12,9 km/h (3 Bft) 100,00 %
11.06.2016 15:51 19,5 C 73 % 1008,8 hPa 0,0 l/m 14,1 km/h (3 Bft) W 271 0 min 0,000 mm 1,3 UV-I 220 W/m 14,5 C 16,9 C 19,3 km/h (3 Bft) 91,30 %
11.06.2016 15:52 19,4 C 73 % 1008,8 hPa 0,0 l/m 9,5 km/h (2 Bft) SW 233 0 min 0,000 mm 1,3 UV-I 215 W/m 14,4 C 18,2 C 12,9 km/h (3 Bft) 100,00 %
11.06.2016 15:53 19,4 C 73 % 1008,8 hPa 0,0 l/m 7,4 km/h (2 Bft) W-SW 246 0 min 0,000 mm 1,3 UV-I 210 W/m 14,4 C 19,0 C 12,9 km/h (3 Bft) 91,30 %
11.06.2016 15:54 19,4 C 74 % 1008,9 hPa 0,0 l/m 12,0 km/h (2 Bft) W 268 0 min 0,000 mm 1,3 UV-I 206 W/m 14,6 C 17,3 C 17,7 km/h (3 Bft) 100,00 %
11.06.2016 15:55 19,4 C 72 % 1008,9 hPa 0,0 l/m 13,9 km/h (3 Bft) W 275 0 min 0,000 mm 1,2 UV-I 203 W/m 14,2 C 16,8 C 19,3 km/h (3 Bft) 95,65 %
11.06.2016 15:56 19,3 C 72 % 1008,9 hPa 0,0 l/m 8,5 km/h (2 Bft) W 265 0 min 0,000 mm 1,2 UV-I 199 W/m 14,1 C 18,4 C 12,9 km/h (3 Bft) 95,83 %
11.06.2016 15:57 19,3 C 73 % 1008,9 hPa 0,0 l/m 11,5 km/h (2 Bft) SW 223 0 min 0,000 mm 1,2 UV-I 196 W/m 14,3 C 17,4 C 16,1 km/h (3 Bft) 95,65 %
11.06.2016 15:58 19,3 C 74 % 1008,9 hPa 0,0 l/m 8,7 km/h (2 Bft) W-SW 250 0 min 0,000 mm 1,2 UV-I 192 W/m 14,5 C 18,3 C 16,1 km/h (3 Bft) 100,00 %
11.06.2016 15:59 19,3 C 73 % 1008,9 hPa 0,0 l/m 9,3 km/h (2 Bft) W-NW 288 0 min 0,000 mm 1,1 UV-I 188 W/m 14,3 C 18,1 C 14,5 km/h (3 Bft) 100,00 %
11.06.2016 16:00 19,3 C 75 % 1008,9 hPa 0,0 l/m 4,3 km/h (1 Bft) W-SW 243 0 min 0,000 mm 1,1 UV-I 181 W/m 14,8 C 19,3 C 6,4 km/h (2 Bft) 100,00 %
11.06.2016 16:01 19,3 C 75 % 1008,9 hPa 0,0 l/m 4,4 km/h (1 Bft) W-SW 240 0 min 0,178 mm 1,0 UV-I 171 W/m 14,8 C 19,3 C 8,0 km/h (2 Bft) 100,00 %
11.06.2016 16:02 19,2 C 75 % 1008,9 hPa 0,0 l/m 5,9 km/h (2 Bft) W 261 0 min 0,000 mm 0,9 UV-I 159 W/m 14,7 C 19,2 C 9,7 km/h (2 Bft) 100,00 %
11.06.2016 16:03 19,2 C 75 % 1009,0 hPa 0,0 l/m 10,4 km/h (2 Bft) W-SW 254 0 min 0,000 mm 0,9 UV-I 146 W/m 14,7 C 17,6 C 17,7 km/h (3 Bft) 100,00 %
11.06.2016 16:04 19,2 C 76 % 1009,0 hPa 0,0 l/m 9,3 km/h (2 Bft) W-SW 237 0 min 0,000 mm 0,8 UV-I 135 W/m 14,9 C 18,0 C 12,9 km/h (3 Bft) 96,15 %
11.06.2016 16:05 19,2 C 76 % 1009,0 hPa 0,0 l/m 10,5 km/h (2 Bft) W-SW 254 0 min 0,000 mm 0,7 UV-I 123 W/m 14,9 C 17,6 C 19,3 km/h (3 Bft) 96,30 %
11.06.2016 16:06 19,1 C 76 % 1009,0 hPa 0,0 l/m 13,7 km/h (3 Bft) W-NW 289 0 min 0,000 mm 0,7 UV-I 113 W/m 14,8 C 16,5 C 19,3 km/h (3 Bft) 100,00 %
11.06.2016 16:07 19,1 C 76 % 1008,9 hPa 0,0 l/m 13,9 km/h (3 Bft) W 259 0 min 0,000 mm 0,6 UV-I 102 W/m 14,8 C 16,4 C 17,7 km/h (3 Bft) 100,00 %
11.06.2016 16:08 19,1 C 76 % 1009,0 hPa 0,0 l/m 9,0 km/h (2 Bft) SW 234 0 min 0,000 mm 0,5 UV-I 95 W/m 14,8 C 18,0 C 12,9 km/h (3 Bft) 95,65 %
11.06.2016 16:09 19,0 C 76 % 1009,0 hPa 0,0 l/m 6,2 km/h (2 Bft) W-SW 244 0 min 0,000 mm 0,5 UV-I 89 W/m 14,7 C 19,0 C 8,0 km/h (2 Bft) 100,00 %
11.06.2016 16:10 18,9 C 77 % 1008,9 hPa 0,0 l/m 7,7 km/h (2 Bft) SW 232 0 min 0,000 mm 0,4 UV-I 85 W/m 14,8 C 18,3 C 12,9 km/h (3 Bft) 100,00 %
11.06.2016 16:11 18,8 C 77 % 1008,9 hPa 0,0 l/m 8,0 km/h (2 Bft) SW 230 0 min 0,000 mm 0,0 UV-I 82 W/m 14,7 C 18,1 C 11,3 km/h (2 Bft) 100,00 %
11.06.2016 16:12 18,8 C 78 % 1008,9 hPa 0,0 l/m 9,4 km/h (2 Bft) SW 219 0 min 0,000 mm 0,0 UV-I 81 W/m 14,9 C 17,5 C 12,9 km/h (3 Bft) 100,00 %
11.06.2016 16:13 18,8 C 78 % 1009,0 hPa 0,0 l/m 7,6 km/h (2 Bft) W-SW 246 0 min 0,000 mm 0,0 UV-I 81 W/m 14,9 C 18,3 C 12,9 km/h (3 Bft) 100,00 %
11.06.2016 16:14 18,7 C 78 % 1008,9 hPa 0,0 l/m 11,1 km/h (2 Bft) W-SW 237 0 min 0,000 mm 0,0 UV-I 81 W/m 14,8 C 16,8 C 16,1 km/h (3 Bft) 100,00 %
11.06.2016 16:15 18,6 C 78 % 1009,0 hPa 0,0 l/m 14,2 km/h (3 Bft) W-SW 254 0 min 0,000 mm 0,0 UV-I 82 W/m 14,7 C 15,8 C 20,9 km/h (4 Bft) 100,00 %
11.06.2016 16:16 18,6 C 79 % 1009,0 hPa 0,0 l/m 13,1 km/h (3 Bft) SW 235 0 min 0,000 mm 0,0 UV-I 83 W/m 14,9 C 16,1 C 20,9 km/h (4 Bft) 100,00 %
11.06.2016 16:17 18,4 C 79 % 1009,0 hPa 0,0 l/m 11,5 km/h (2 Bft) W-SW 240 0 min 0,000 mm 0,2 UV-I 84 W/m 14,7 C 16,4 C 20,9 km/h (4 Bft) 100,00 %
11.06.2016 16:18 18,3 C 80 % 1009,1 hPa 0,2 l/m 7,8 km/h (2 Bft) SW 229 0 min 0,000 mm 0,5 UV-I 84 W/m 14,8 C 17,7 C 11,3 km/h (2 Bft) 100,00 %
11.06.2016 16:19 18,2 C 81 % 1009,1 hPa 0,0 l/m 11,4 km/h (2 Bft) W-SW 248 0 min 0,000 mm 0,5 UV-I 87 W/m 14,9 C 16,2 C 16,1 km/h (3 Bft) 100,00 %
11.06.2016 16:20 18,1 C 82 % 1009,1 hPa 0,0 l/m 9,7 km/h (2 Bft) SW 236 0 min 0,000 mm 0,5 UV-I 90 W/m 15,0 C 16,7 C 14,5 km/h (3 Bft) 100,00 %
11.06.2016 16:21 17,9 C 83 % 1009,1 hPa 0,0 l/m 9,2 km/h (2 Bft) W-SW 258 0 min 0,000 mm 0,5 UV-I 92 W/m 15,0 C 16,6 C 12,9 km/h (3 Bft) 100,00 %
11.06.2016 16:22 17,8 C 84 % 1009,1 hPa 0,0 l/m 11,6 km/h (2 Bft) W 261 0 min 0,000 mm 0,5 UV-I 93 W/m 15,1 C 15,6 C 16,1 km/h (3 Bft) 100,00 %
11.06.2016 16:23 17,7 C 85 % 1009,1 hPa 0,0 l/m 13,0 km/h (3 Bft) W-SW 242 0 min 0,000 mm 0,5 UV-I 93 W/m 15,1 C 15,1 C 17,7 km/h (3 Bft) 100,00 %
11.06.2016 16:24 17,6 C 85 % 1009,1 hPa 0,0 l/m 8,7 km/h (2 Bft) W-SW 246 0 min 0,000 mm 0,5 UV-I 93 W/m 15,0 C 16,5 C 11,3 km/h (2 Bft) 95,65 %
11.06.2016 16:25 17,5 C 87 % 1009,2 hPa 0,0 l/m 8,9 km/h (2 Bft) SW 232 0 min 0,000 mm 0,5 UV-I 93 W/m 15,3 C 16,3 C 14,5 km/h (3 Bft) 100,00 %
11.06.2016 16:26 17,4 C 86 % 1009,2 hPa 0,0 l/m 10,5 km/h (2 Bft) SW 218 0 min 0,000 mm 0,5 UV-I 93 W/m 15,0 C 15,6 C 14,5 km/h (3 Bft) 100,00 %
11.06.2016 16:27 17,3 C 87 % 1009,1 hPa 0,0 l/m 10,9 km/h (2 Bft) SW 222 0 min 0,000 mm 0,5 UV-I 91 W/m 15,1 C 15,3 C 14,5 km/h (3 Bft) 100,00 %
11.06.2016 16:28 17,3 C 87 % 1009,1 hPa 0,0 l/m 8,6 km/h (2 Bft) W-SW 245 0 min 0,000 mm 0,5 UV-I 91 W/m 15,1 C 16,2 C 12,9 km/h (3 Bft) 100,00 %
11.06.2016 16:29 17,2 C 87 % 1009,1 hPa 0,0 l/m 7,0 km/h (2 Bft) W-SW 242 0 min 0,000 mm 0,5 UV-I 88 W/m 15,0 C 16,9 C 9,7 km/h (2 Bft) 100,00 %
11.06.2016 16:30 17,2 C 88 % 1009,1 hPa 0,0 l/m 8,9 km/h (2 Bft) W-SW 258 0 min 0,000 mm 0,5 UV-I 85 W/m 15,2 C 16,0 C 12,9 km/h (3 Bft) 100,00 %
11.06.2016 16:31 17,2 C 89 % 1009,1 hPa 0,0 l/m 7,2 km/h (2 Bft) W-SW 243 0 min 0,000 mm 0,2 UV-I 80 W/m 15,4 C 16,8 C 9,7 km/h (2 Bft) 100,00 %
11.06.2016 16:32 17,2 C 89 % 1009,1 hPa 0,0 l/m 7,2 km/h (2 Bft) W-SW 254 0 min 0,000 mm 0,0 UV-I 75 W/m 15,4 C 16,8 C 9,7 km/h (2 Bft) 100,00 %
11.06.2016 16:33 17,1 C 89 % 1009,1 hPa 0,0 l/m 9,3 km/h (2 Bft) W-SW 242 0 min 0,000 mm 0,0 UV-I 71 W/m 15,3 C 15,7 C 11,3 km/h (2 Bft) 100,00 %
11.06.2016 16:34 17,1 C 89 % 1009,1 hPa 0,0 l/m 6,9 km/h (2 Bft) W-SW 246 0 min 0,000 mm 0,0 UV-I 70 W/m 15,3 C 16,9 C 11,3 km/h (2 Bft) 100,00 %
11.06.2016 16:35 17,1 C 89 % 1009,1 hPa 0,0 l/m 8,0 km/h (2 Bft) W-SW 255 0 min 0,000 mm 0,0 UV-I 68 W/m 15,3 C 16,3 C 12,9 km/h (3 Bft) 95,65 %
11.06.2016 16:36 17,1 C 89 % 1009,1 hPa 0,0 l/m 7,6 km/h (2 Bft) W-SW 257 0 min 0,000 mm 0,0 UV-I 67 W/m 15,3 C 16,5 C 11,3 km/h (2 Bft) 100,00 %
11.06.2016 16:37 17,1 C 90 % 1009,1 hPa 0,0 l/m 6,0 km/h (2 Bft) W-SW 247 0 min 0,000 mm 0,0 UV-I 67 W/m 15,4 C 17,1 C 8,0 km/h (2 Bft) 95,65 %
11.06.2016 16:38 17,1 C 90 % 1009,1 hPa 0,0 l/m 6,4 km/h (2 Bft) W-SW 245 0 min 0,000 mm 0,0 UV-I 67 W/m 15,4 C 17,1 C 8,0 km/h (2 Bft) 100,00 %
11.06.2016 16:39 17,1 C 90 % 1009,1 hPa 0,0 l/m 6,5 km/h (2 Bft) SW 232 0 min 0,000 mm 0,0 UV-I 69 W/m 15,4 C 17,1 C 11,3 km/h (2 Bft) 100,00 %
11.06.2016 16:40 17,1 C 90 % 1009,0 hPa 0,0 l/m 5,4 km/h (1 Bft) W-SW 252 0 min 0,000 mm 0,0 UV-I 71 W/m 15,4 C 17,1 C 8,0 km/h (2 Bft) 100,00 %
11.06.2016 16:41 17,1 C 90 % 1009,0 hPa 0,0 l/m 8,2 km/h (2 Bft) SW 236 0 min 0,000 mm 0,0 UV-I 73 W/m 15,4 C 16,2 C 12,9 km/h (3 Bft) 100,00 %
11.06.2016 16:42 17,1 C 90 % 1009,0 hPa 0,0 l/m 7,4 km/h (2 Bft) W 272 0 min 0,000 mm 0,0 UV-I 74 W/m 15,4 C 16,6 C 11,3 km/h (2 Bft) 100,00 %
11.06.2016 16:43 17,1 C 90 % 1009,0 hPa 0,0 l/m 7,2 km/h (2 Bft) W-SW 246 0 min 0,000 mm 0,0 UV-I 76 W/m 15,4 C 16,7 C 9,7 km/h (2 Bft) 95,65 %
11.06.2016 16:44 17,1 C 90 % 1009,0 hPa 0,0 l/m 8,2 km/h (2 Bft) SW 229 0 min 0,000 mm 0,0 UV-I 76 W/m 15,4 C 16,2 C 11,3 km/h (2 Bft) 100,00 %
11.06.2016 16:45 17,1 C 90 % 1009,1 hPa 0,0 l/m 5,8 km/h (2 Bft) W-SW 244 0 min 0,000 mm 0,0 UV-I 76 W/m 15,4 C 17,1 C 6,4 km/h (2 Bft) 100,00 %
11.06.2016 16:46 17,1 C 90 % 1009,1 hPa 0,0 l/m 6,7 km/h (2 Bft) S-SW 212 0 min 0,000 mm 0,0 UV-I 76 W/m 15,4 C 17,0 C 11,3 km/h (2 Bft) 100,00 %
11.06.2016 16:47 17,1 C 90 % 1009,1 hPa 0,0 l/m 6,1 km/h (2 Bft) SW 217 0 min 0,000 mm 0,0 UV-I 76 W/m 15,4 C 17,1 C 8,0 km/h (2 Bft) 100,00 %
11.06.2016 16:48 17,1 C 90 % 1009,1 hPa 0,0 l/m 7,6 km/h (2 Bft) W-SW 247 0 min 0,000 mm 0,0 UV-I 76 W/m 15,4 C 16,5 C 11,3 km/h (2 Bft) 100,00 %
11.06.2016 16:49 17,1 C 90 % 1009,1 hPa 0,0 l/m 7,7 km/h (2 Bft) SW 232 0 min 0,000 mm 0,0 UV-I 74 W/m 15,4 C 16,5 C 11,3 km/h (2 Bft) 100,00 %
11.06.2016 16:50 17,1 C 90 % 1009,1 hPa 0,0 l/m 7,3 km/h (2 Bft) W-SW 252 0 min 0,000 mm 0,0 UV-I 74 W/m 15,4 C 16,6 C 11,3 km/h (2 Bft) 95,65 %
11.06.2016 16:51 17,1 C 90 % 1009,1 hPa 0,0 l/m 7,6 km/h (2 Bft) W-SW 252 0 min 0,000 mm 0,0 UV-I 73 W/m 15,4 C 16,5 C 11,3 km/h (2 Bft) 100,00 %
11.06.2016 16:52 17,1 C 90 % 1009,1 hPa 0,0 l/m 6,3 km/h (2 Bft) W-SW 244 0 min 0,000 mm 0,0 UV-I 71 W/m 15,4 C 17,1 C 8,0 km/h (2 Bft) 100,00 %
11.06.2016 16:53 17,1 C 90 % 1009,1 hPa 0,0 l/m 6,8 km/h (2 Bft) W-SW 255 0 min 0,000 mm 0,0 UV-I 69 W/m 15,4 C 16,9 C 12,9 km/h (3 Bft) 95,83 %
11.06.2016 16:54 17,1 C 90 % 1009,1 hPa 0,0 l/m 7,1 km/h (2 Bft) SW 234 0 min 0,000 mm 0,0 UV-I 67 W/m 15,4 C 16,7 C 9,7 km/h (2 Bft) 96,15 %
11.06.2016 16:55 17,1 C 90 % 1009,1 hPa 0,0 l/m 8,0 km/h (2 Bft) S-SW 209 0 min 0,000 mm 0,0 UV-I 67 W/m 15,4 C 16,3 C 9,7 km/h (2 Bft) 100,00 %
11.06.2016 16:56 17,1 C 90 % 1009,2 hPa 0,0 l/m 7,2 km/h (2 Bft) W-SW 240 0 min 0,000 mm 0,0 UV-I 65 W/m 15,4 C 16,7 C 8,0 km/h (2 Bft) 95,65 %
11.06.2016 16:57 17,1 C 90 % 1009,2 hPa 0,0 l/m 8,0 km/h (2 Bft) SW 221 0 min 0,000 mm 0,0 UV-I 67 W/m 15,4 C 16,3 C 12,9 km/h (3 Bft) 100,00 %
11.06.2016 16:58 17,1 C 91 % 1009,2 hPa 0,0 l/m 7,8 km/h (2 Bft) S-SW 213 0 min 0,000 mm 0,0 UV-I 69 W/m 15,6 C 16,4 C 11,3 km/h (2 Bft) 100,00 %
11.06.2016 16:59 17,1 C 91 % 1009,2 hPa 0,0 l/m 6,2 km/h (2 Bft) SW 217 0 min 0,000 mm 0,0 UV-I 73 W/m 15,6 C 17,1 C 8,0 km/h (2 Bft) 100,00 %
11.06.2016 17:00 17,1 C 91 % 1009,2 hPa 0,0 l/m 6,0 km/h (2 Bft) W-SW 240 0 min 0,000 mm 0,0 UV-I 76 W/m 15,6 C 17,1 C 8,0 km/h (2 Bft) 100,00 %
11.06.2016 17:01 17,1 C 90 % 1009,1 hPa 0,0 l/m 8,2 km/h (2 Bft) SW 227 0 min 0,076 mm 0,0 UV-I 79 W/m 15,4 C 16,2 C 11,3 km/h (2 Bft) 100,00 %
11.06.2016 17:02 17,1 C 90 % 1009,2 hPa 0,0 l/m 6,8 km/h (2 Bft) W-SW 240 0 min 0,000 mm 0,0 UV-I 81 W/m 15,4 C 16,9 C 8,0 km/h (2 Bft) 100,00 %
11.06.2016 17:03 17,1 C 90 % 1009,2 hPa 0,0 l/m 8,6 km/h (2 Bft) SW 234 0 min 0,000 mm 0,0 UV-I 81 W/m 15,4 C 16,0 C 14,5 km/h (3 Bft) 100,00 %
11.06.2016 17:04 17,1 C 90 % 1009,2 hPa 0,0 l/m 8,7 km/h (2 Bft) S-SW 207 0 min 0,000 mm 0,0 UV-I 80 W/m 15,4 C 16,0 C 12,9 km/h (3 Bft) 96,30 %
11.06.2016 17:05 17,1 C 90 % 1009,2 hPa 0,0 l/m 7,5 km/h (2 Bft) W-SW 242 0 min 0,000 mm 0,0 UV-I 78 W/m 15,4 C 16,5 C 14,5 km/h (3 Bft) 100,00 %
11.06.2016 17:06 17,1 C 90 % 1009,2 hPa 0,0 l/m 10,7 km/h (2 Bft) SW 225 0 min 0,000 mm 0,0 UV-I 76 W/m 15,4 C 15,2 C 14,5 km/h (3 Bft) 100,00 %
11.06.2016 17:07 17,1 C 89 % 1009,2 hPa 0,0 l/m 7,4 km/h (2 Bft) W-SW 237 0 min 0,000 mm 0,0 UV-I 72 W/m 15,3 C 16,6 C 12,9 km/h (3 Bft) 100,00 %
11.06.2016 17:08 17,1 C 89 % 1009,3 hPa 0,0 l/m 6,6 km/h (2 Bft) SW 217 0 min 0,000 mm 0,0 UV-I 70 W/m 15,3 C 17,0 C 11,3 km/h (2 Bft) 100,00 %
11.06.2016 17:09 17,1 C 90 % 1009,2 hPa 0,0 l/m 6,2 km/h (2 Bft) W-SW 256 0 min 0,000 mm 0,0 UV-I 68 W/m 15,4 C 17,1 C 8,0 km/h (2 Bft) 100,00 %
11.06.2016 17:10 17,1 C 90 % 1009,2 hPa 0,0 l/m 8,4 km/h (2 Bft) SW 233 0 min 0,000 mm 0,0 UV-I 68 W/m 15,4 C 16,1 C 12,9 km/h (3 Bft) 100,00 %
11.06.2016 17:11 17,1 C 90 % 1009,2 hPa 0,0 l/m 6,2 km/h (2 Bft) SW 218 0 min 0,000 mm 0,0 UV-I 70 W/m 15,4 C 17,1 C 9,7 km/h (2 Bft) 100,00 %
11.06.2016 17:12 17,1 C 89 % 1009,3 hPa 0,0 l/m 6,3 km/h (2 Bft) W-SW 246 0 min 0,000 mm 0,0 UV-I 70 W/m 15,3 C 17,1 C 8,0 km/h (2 Bft) 95,83 %
11.06.2016 17:13 17,1 C 89 % 1009,3 hPa 0,0 l/m 6,4 km/h (2 Bft) W-SW 251 0 min 0,000 mm 0,0 UV-I 70 W/m 15,3 C 17,1 C 9,7 km/h (2 Bft) 100,00 %
11.06.2016 17:14 17,1 C 90 % 1009,3 hPa 0,0 l/m 7,2 km/h (2 Bft) W-SW 240 0 min 0,000 mm 0,0 UV-I 68 W/m 15,4 C 16,7 C 11,3 km/h (2 Bft) 100,00 %
11.06.2016 17:15 17,1 C 90 % 1009,3 hPa 0,0 l/m 8,0 km/h (2 Bft) W-SW 250 0 min 0,000 mm 0,0 UV-I 66 W/m 15,4 C 16,3 C 12,9 km/h (3 Bft) 100,00 %
11.06.2016 17:16 17,0 C 89 % 1009,3 hPa 0,0 l/m 9,9 km/h (2 Bft) SW 229 0 min 0,000 mm 0,0 UV-I 64 W/m 15,2 C 15,4 C 16,1 km/h (3 Bft) 100,00 %
11.06.2016 17:17 17,0 C 89 % 1009,3 hPa 0,0 l/m 9,6 km/h (2 Bft) W-NW 294 0 min 0,000 mm 0,0 UV-I 62 W/m 15,2 C 15,5 C 14,5 km/h (3 Bft) 100,00 %
11.06.2016 17:18 17,0 C 89 % 1009,4 hPa 0,0 l/m 6,9 km/h (2 Bft) W-SW 252 0 min 0,000 mm 0,0 UV-I 60 W/m 15,2 C 16,8 C 12,9 km/h (3 Bft) 100,00 %
11.06.2016 17:19 17,0 C 89 % 1009,4 hPa 0,0 l/m 10,4 km/h (2 Bft) W 263 0 min 0,000 mm 0,0 UV-I 60 W/m 15,2 C 15,2 C 16,1 km/h (3 Bft) 100,00 %
11.06.2016 17:20 17,0 C 89 % 1009,4 hPa 0,0 l/m 8,0 km/h (2 Bft) W-SW 246 0 min 0,000 mm 0,0 UV-I 57 W/m 15,2 C 16,2 C 12,9 km/h (3 Bft) 95,83 %
11.06.2016 17:21 17,0 C 89 % 1009,4 hPa 0,0 l/m 8,3 km/h (2 Bft) SW 232 0 min 0,000 mm 0,0 UV-I 55 W/m 15,2 C 16,1 C 11,3 km/h (2 Bft) 100,00 %
11.06.2016 17:22 17,0 C 89 % 1009,4 hPa 0,0 l/m 8,4 km/h (2 Bft) W-SW 246 0 min 0,000 mm 0,0 UV-I 54 W/m 15,2 C 16,0 C 12,9 km/h (3 Bft) 100,00 %
11.06.2016 17:23 17,0 C 89 % 1009,4 hPa 0,0 l/m 6,1 km/h (2 Bft) SW 221 0 min 0,000 mm 0,0 UV-I 54 W/m 15,2 C 17,0 C 9,7 km/h (2 Bft) 91,67 %
11.06.2016 17:24 17,0 C 89 % 1009,4 hPa 0,0 l/m 6,6 km/h (2 Bft) SW 236 0 min 0,000 mm 0,0 UV-I 54 W/m 15,2 C 16,9 C 9,7 km/h (2 Bft) 95,65 %
11.06.2016 17:25 17,0 C 89 % 1009,4 hPa 0,0 l/m 8,7 km/h (2 Bft) W-SW 253 0 min 0,000 mm 0,0 UV-I 53 W/m 15,2 C 15,9 C 11,3 km/h (2 Bft) 100,00 %
11.06.2016 17:26 16,9 C 89 % 1009,4 hPa 0,0 l/m 5,2 km/h (1 Bft) W-SW 248 0 min 0,000 mm 0,0 UV-I 54 W/m 15,1 C 16,9 C 6,4 km/h (2 Bft) 95,65 %
11.06.2016 17:27 16,9 C 89 % 1009,4 hPa 0,0 l/m 5,4 km/h (1 Bft) W-SW 245 0 min 0,000 mm 0,0 UV-I 54 W/m 15,1 C 16,9 C 6,4 km/h (2 Bft) 95,83 %
11.06.2016 17:28 16,9 C 89 % 1009,4 hPa 0,0 l/m 7,1 km/h (2 Bft) W-SW 246 0 min 0,000 mm 0,0 UV-I 54 W/m 15,1 C 16,5 C 9,7 km/h (2 Bft) 95,65 %
11.06.2016 17:29 16,9 C 89 % 1009,4 hPa 0,0 l/m 5,6 km/h (1 Bft) W-SW 248 0 min 0,000 mm 0,0 UV-I 56 W/m 15,1 C 16,9 C 8,0 km/h (2 Bft) 100,00 %
11.06.2016 17:30 16,9 C 89 % 1009,4 hPa 0,0 l/m 5,4 km/h (1 Bft) SW 221 0 min 0,000 mm 0,0 UV-I 56 W/m 15,1 C 16,9 C 8,0 km/h (2 Bft) 95,65 %
11.06.2016 17:31 16,9 C 89 % 1009,4 hPa 0,0 l/m 4,8 km/h (1 Bft) W-SW 257 0 min 0,000 mm 0,0 UV-I 58 W/m 15,1 C 16,9 C 6,4 km/h (2 Bft) 100,00 %
11.06.2016 17:32 16,9 C 89 % 1009,4 hPa 0,2 l/m 5,5 km/h (1 Bft) W-SW 254 0 min 0,000 mm 0,0 UV-I 61 W/m 15,1 C 16,9 C 9,7 km/h (2 Bft) 95,65 %
11.06.2016 17:33 16,9 C 90 % 1009,4 hPa 0,0 l/m 5,1 km/h (1 Bft) W-SW 254 0 min 0,000 mm 0,0 UV-I 62 W/m 15,2 C 16,9 C 9,7 km/h (2 Bft) 95,83 %
11.06.2016 17:34 16,8 C 90 % 1009,4 hPa 0,0 l/m 5,8 km/h (2 Bft) W-SW 253 0 min 0,000 mm 0,0 UV-I 63 W/m 15,1 C 16,8 C 8,0 km/h (2 Bft) 100,00 %
11.06.2016 17:35 16,8 C 90 % 1009,4 hPa 0,0 l/m 6,7 km/h (2 Bft) W-SW 244 0 min 0,000 mm 0,0 UV-I 63 W/m 15,1 C 16,7 C 11,3 km/h (2 Bft) 95,83 %
11.06.2016 17:36 16,8 C 90 % 1009,4 hPa 0,0 l/m 7,2 km/h (2 Bft) W-SW 244 0 min 0,000 mm 0,0 UV-I 62 W/m 15,1 C 16,4 C 9,7 km/h (2 Bft) 100,00 %
11.06.2016 17:37 16,8 C 90 % 1009,4 hPa 0,0 l/m 6,8 km/h (2 Bft) SW 232 0 min 0,000 mm 0,0 UV-I 62 W/m 15,1 C 16,6 C 8,0 km/h (2 Bft) 95,83 %
11.06.2016 17:38 16,8 C 90 % 1009,4 hPa 0,0 l/m 5,8 km/h (2 Bft) SW 231 0 min 0,000 mm 0,0 UV-I 62 W/m 15,1 C 16,8 C 8,0 km/h (2 Bft) 100,00 %
11.06.2016 17:39 16,8 C 90 % 1009,5 hPa 0,0 l/m 4,7 km/h (1 Bft) SW 219 0 min 0,000 mm 0,0 UV-I 62 W/m 15,1 C 16,8 C 6,4 km/h (2 Bft) 79,17 %
11.06.2016 17:40 16,8 C 90 % 1009,4 hPa 0,0 l/m 4,6 km/h (1 Bft) W-SW 245 0 min 0,000 mm 0,0 UV-I 62 W/m 15,1 C 16,8 C 6,4 km/h (2 Bft) 95,83 %
11.06.2016 17:41 16,8 C 91 % 1009,4 hPa 0,0 l/m 4,7 km/h (1 Bft) SW 227 0 min 0,000 mm 0,0 UV-I 62 W/m 15,3 C 16,8 C 6,4 km/h (2 Bft) 95,65 %
11.06.2016 17:42 16,8 C 91 % 1009,4 hPa 0,0 l/m 5,2 km/h (1 Bft) SW 229 0 min 0,000 mm 0,0 UV-I 62 W/m 15,3 C 16,8 C 8,0 km/h (2 Bft) 95,83 %
11.06.2016 17:43 16,8 C 91 % 1009,5 hPa 0,0 l/m 5,6 km/h (1 Bft) W-SW 240 0 min 0,000 mm 0,0 UV-I 62 W/m 15,3 C 16,8 C 6,4 km/h (2 Bft) 95,65 %
11.06.2016 17:44 16,8 C 91 % 1009,4 hPa 0,0 l/m 5,5 km/h (1 Bft) W-SW 246 0 min 0,000 mm 0,0 UV-I 62 W/m 15,3 C 16,8 C 6,4 km/h (2 Bft) 95,83 %
11.06.2016 17:45 16,8 C 91 % 1009,5 hPa 0,0 l/m 5,2 km/h (1 Bft) SW 221 0 min 0,000 mm 0,0 UV-I 62 W/m 15,3 C 16,8 C 6,4 km/h (2 Bft) 100,00 %
11.06.2016 17:46 16,8 C 91 % 1009,5 hPa 0,0 l/m 5,2 km/h (1 Bft) SW 235 0 min 0,000 mm 0,0 UV-I 62 W/m 15,3 C 16,8 C 8,0 km/h (2 Bft) 95,83 %
11.06.2016 17:47 16,8 C 91 % 1009,5 hPa 0,0 l/m 5,2 km/h (1 Bft) W-SW 252 0 min 0,000 mm 0,0 UV-I 60 W/m 15,3 C 16,8 C 6,4 km/h (2 Bft) 100,00 %
11.06.2016 17:48 16,8 C 91 % 1009,4 hPa 0,0 l/m 6,0 km/h (2 Bft) SW 220 0 min 0,000 mm 0,0 UV-I 60 W/m 15,3 C 16,8 C 8,0 km/h (2 Bft) 95,83 %
11.06.2016 17:49 16,8 C 91 % 1009,4 hPa 0,0 l/m 3,5 km/h (1 Bft) SW 222 0 min 0,000 mm 0,0 UV-I 58 W/m 15,3 C 16,8 C 4,8 km/h (1 Bft) 95,65 %
11.06.2016 17:50 16,8 C 91 % 1009,5 hPa 0,0 l/m 7,4 km/h (2 Bft) SW 236 0 min 0,000 mm 0,0 UV-I 57 W/m 15,3 C 16,3 C 11,3 km/h (2 Bft) 95,83 %
11.06.2016 17:51 16,7 C 91 % 1009,4 hPa 0,0 l/m 6,7 km/h (2 Bft) W-SW 242 0 min 0,000 mm 0,0 UV-I 55 W/m 15,2 C 16,6 C 11,3 km/h (2 Bft) 96,15 %
11.06.2016 17:52 16,7 C 91 % 1009,5 hPa 0,0 l/m 5,4 km/h (1 Bft) W-SW 252 0 min 0,000 mm 0,0 UV-I 54 W/m 15,2 C 16,7 C 8,0 km/h (2 Bft) 100,00 %
11.06.2016 17:53 16,7 C 91 % 1009,5 hPa 0,0 l/m 8,8 km/h (2 Bft) SW 234 0 min 0,000 mm 0,0 UV-I 53 W/m 15,2 C 15,5 C 12,9 km/h (3 Bft) 95,65 %
11.06.2016 17:54 16,7 C 90 % 1009,5 hPa 0,0 l/m 9,5 km/h (2 Bft) SW 223 0 min 0,000 mm 0,0 UV-I 53 W/m 15,0 C 15,2 C 11,3 km/h (2 Bft) 95,83 %
11.06.2016 17:55 16,7 C 90 % 1009,4 hPa 0,0 l/m 8,0 km/h (2 Bft) W-SW 247 0 min 0,000 mm 0,0 UV-I 53 W/m 15,0 C 15,9 C 12,9 km/h (3 Bft) 95,65 %
11.06.2016 17:56 16,7 C 90 % 1009,5 hPa 0,0 l/m 9,1 km/h (2 Bft) SW 227 0 min 0,000 mm 0,0 UV-I 53 W/m 15,0 C 15,4 C 11,3 km/h (2 Bft) 100,00 %
11.06.2016 17:57 16,7 C 90 % 1009,5 hPa 0,0 l/m 11,2 km/h (2 Bft) W-SW 252 0 min 0,000 mm 0,0 UV-I 53 W/m 15,0 C 14,5 C 16,1 km/h (3 Bft) 100,00 %
11.06.2016 17:58 16,6 C 89 % 1009,5 hPa 0,0 l/m 10,9 km/h (2 Bft) W 259 0 min 0,000 mm 0,0 UV-I 53 W/m 14,8 C 14,5 C 16,1 km/h (3 Bft) 100,00 %
11.06.2016 17:59 16,6 C 89 % 1009,5 hPa 0,0 l/m 8,6 km/h (2 Bft) SW 235 0 min 0,000 mm 0,0 UV-I 53 W/m 14,8 C 15,5 C 14,5 km/h (3 Bft) 95,65 %
11.06.2016 18:00 16,6 C 89 % 1009,5 hPa 0,0 l/m 9,5 km/h (2 Bft) W-SW 237 0 min 0,000 mm 0,0 UV-I 51 W/m 14,8 C 15,1 C 14,5 km/h (3 Bft) 100,00 %
11.06.2016 18:02 16,5 C 90 % 1009,5 hPa 0,2 l/m 8,6 km/h (2 Bft) S-SW 204 0 min 0,051 mm 0,0 UV-I 51 W/m 14,9 C 15,4 C 12,9 km/h (3 Bft) 94,74 %
11.06.2016 18:03 16,5 C 89 % 1009,4 hPa 0,0 l/m 7,6 km/h (2 Bft) W-SW 239 0 min 0,000 mm 0,0 UV-I 51 W/m 14,7 C 15,9 C 11,3 km/h (2 Bft) 100,00 %
11.06.2016 18:04 16,4 C 90 % 1009,5 hPa 0,0 l/m 7,8 km/h (2 Bft) SW 225 0 min 0,000 mm 0,0 UV-I 51 W/m 14,8 C 15,7 C 14,5 km/h (3 Bft) 100,00 %
11.06.2016 18:05 16,4 C 90 % 1009,5 hPa 0,0 l/m 8,8 km/h (2 Bft) W-SW 242 0 min 0,000 mm 0,0 UV-I 51 W/m 14,8 C 15,2 C 12,9 km/h (3 Bft) 100,00 %
11.06.2016 18:06 16,4 C 90 % 1009,5 hPa 0,0 l/m 7,2 km/h (2 Bft) W-SW 249 0 min 0,000 mm 0,0 UV-I 51 W/m 14,8 C 16,0 C 8,0 km/h (2 Bft) 100,00 %
11.06.2016 18:07 16,4 C 90 % 1009,5 hPa 0,0 l/m 6,2 km/h (2 Bft) SW 225 0 min 0,000 mm 0,0 UV-I 51 W/m 14,8 C 16,4 C 9,7 km/h (2 Bft) 100,00 %
11.06.2016 18:08 16,3 C 90 % 1009,5 hPa 0,0 l/m 5,8 km/h (2 Bft) SW 235 0 min 0,000 mm 0,0 UV-I 50 W/m 14,7 C 16,3 C 8,0 km/h (2 Bft) 95,65 %
11.06.2016 18:09 16,3 C 91 % 1009,5 hPa 0,2 l/m 6,2 km/h (2 Bft) SW 234 0 min 0,000 mm 0,0 UV-I 49 W/m 14,8 C 16,3 C 8,0 km/h (2 Bft) 100,00 %
11.06.2016 18:10 16,3 C 91 % 1009,5 hPa 0,0 l/m 4,7 km/h (1 Bft) S-SW 198 0 min 0,000 mm 0,0 UV-I 49 W/m 14,8 C 16,3 C 6,4 km/h (2 Bft) 100,00 %
11.06.2016 18:11 16,3 C 91 % 1009,5 hPa 0,0 l/m 5,9 km/h (2 Bft) W-SW 243 0 min 0,000 mm 0,0 UV-I 51 W/m 14,8 C 16,3 C 6,4 km/h (2 Bft) 100,00 %
11.06.2016 18:12 16,3 C 91 % 1009,5 hPa 0,0 l/m 6,1 km/h (2 Bft) SW 220 0 min 0,000 mm 0,0 UV-I 51 W/m 14,8 C 16,3 C 8,0 km/h (2 Bft) 95,65 %
11.06.2016 18:13 16,2 C 91 % 1009,4 hPa 0,0 l/m 4,9 km/h (1 Bft) W-SW 238 0 min 0,000 mm 0,0 UV-I 53 W/m 14,7 C 16,2 C 6,4 km/h (2 Bft) 100,00 %
11.06.2016 18:14 16,2 C 91 % 1009,5 hPa 0,0 l/m 4,1 km/h (1 Bft) W 264 0 min 0,000 mm 0,0 UV-I 55 W/m 14,7 C 16,2 C 6,4 km/h (2 Bft) 100,00 %
11.06.2016 18:15 16,2 C 91 % 1009,4 hPa 0,0 l/m 4,8 km/h (1 Bft) SW 229 0 min 0,000 mm 0,0 UV-I 59 W/m 14,7 C 16,2 C 6,4 km/h (2 Bft) 100,00 %
11.06.2016 18:16 16,2 C 91 % 1009,5 hPa 0,0 l/m 7,6 km/h (2 Bft) SW 233 0 min 0,000 mm 0,0 UV-I 62 W/m 14,7 C 15,6 C 9,7 km/h (2 Bft) 100,00 %
11.06.2016 18:17 16,2 C 92 % 1009,4 hPa 0,0 l/m 4,2 km/h (1 Bft) SW 226 0 min 0,000 mm 0,0 UV-I 63 W/m 14,9 C 16,2 C 6,4 km/h (2 Bft) 100,00 %
11.06.2016 18:18 16,2 C 92 % 1009,4 hPa 0,0 l/m 5,9 km/h (2 Bft) S-SW 201 0 min 0,000 mm 0,0 UV-I 63 W/m 14,9 C 16,2 C 8,0 km/h (2 Bft) 100,00 %
11.06.2016 18:19 16,2 C 92 % 1009,4 hPa 0,0 l/m 5,7 km/h (1 Bft) S-SW 196 0 min 0,000 mm 0,0 UV-I 63 W/m 14,9 C 16,2 C 8,0 km/h (2 Bft) 95,83 %
11.06.2016 18:20 16,1 C 92 % 1009,4 hPa 0,0 l/m 9,4 km/h (2 Bft) W 262 0 min 0,000 mm 0,0 UV-I 63 W/m 14,8 C 14,6 C 12,9 km/h (3 Bft) 100,00 %
11.06.2016 18:21 16,1 C 92 % 1009,4 hPa 0,0 l/m 6,1 km/h (2 Bft) SW 221 0 min 0,000 mm 0,0 UV-I 63 W/m 14,8 C 16,1 C 8,0 km/h (2 Bft) 100,00 %
11.06.2016 18:22 16,1 C 92 % 1009,5 hPa 0,0 l/m 7,2 km/h (2 Bft) S-SW 207 0 min 0,000 mm 0,0 UV-I 63 W/m 14,8 C 15,7 C 11,3 km/h (2 Bft) 100,00 %
11.06.2016 18:23 16,1 C 92 % 1009,4 hPa 0,0 l/m 7,9 km/h (2 Bft) S-SW 202 0 min 0,000 mm 0,0 UV-I 63 W/m 14,8 C 15,3 C 11,3 km/h (2 Bft) 100,00 %
11.06.2016 18:24 16,1 C 92 % 1009,4 hPa 0,0 l/m 7,6 km/h (2 Bft) S-SW 201 0 min 0,000 mm 0,0 UV-I 61 W/m 14,8 C 15,5 C 9,7 km/h (2 Bft) 100,00 %
11.06.2016 18:25 16,1 C 92 % 1009,4 hPa 0,0 l/m 4,8 km/h (1 Bft) SW 224 0 min 0,000 mm 0,0 UV-I 58 W/m 14,8 C 16,1 C 6,4 km/h (2 Bft) 100,00 %
11.06.2016 18:26 16,1 C 92 % 1009,5 hPa 0,0 l/m 3,6 km/h (1 Bft) S-SO 167 0 min 0,000 mm 0,0 UV-I 55 W/m 14,8 C 16,1 C 4,8 km/h (1 Bft) 100,00 %
11.06.2016 18:27 16,1 C 92 % 1009,4 hPa 0,0 l/m 4,6 km/h (1 Bft) S 183 0 min 0,000 mm 0,0 UV-I 53 W/m 14,8 C 16,1 C 8,0 km/h (2 Bft) 100,00 %
11.06.2016 18:28 16,1 C 92 % 1009,4 hPa 0,0 l/m 6,2 km/h (2 Bft) S-SW 201 0 min 0,000 mm 0,0 UV-I 51 W/m 14,8 C 16,1 C 8,0 km/h (2 Bft) 100,00 %
11.06.2016 18:29 16,1 C 92 % 1009,4 hPa 0,0 l/m 6,1 km/h (2 Bft) S 180 0 min 0,000 mm 0,0 UV-I 49 W/m 14,8 C 16,1 C 9,7 km/h (2 Bft) 100,00 %
11.06.2016 18:30 16,1 C 92 % 1009,4 hPa 0,0 l/m 7,0 km/h (2 Bft) SW 232 0 min 0,000 mm 0,0 UV-I 48 W/m 14,8 C 15,8 C 11,3 km/h (2 Bft) 100,00 %
11.06.2016 18:31 16,1 C 92 % 1009,4 hPa 0,0 l/m 5,5 km/h (1 Bft) S 177 0 min 0,000 mm 0,0 UV-I 47 W/m 14,8 C 16,1 C 8,0 km/h (2 Bft) 100,00 %
11.06.2016 18:32 16,1 C 92 % 1009,4 hPa 0,0 l/m 5,8 km/h (2 Bft) SW 234 0 min 0,000 mm 0,0 UV-I 46 W/m 14,8 C 16,1 C 9,7 km/h (2 Bft) 100,00 %
11.06.2016 18:33 16,0 C 92 % 1009,4 hPa 0,0 l/m 6,7 km/h (2 Bft) S 191 0 min 0,000 mm 0,0 UV-I 45 W/m 14,7 C 15,8 C 12,9 km/h (3 Bft) 95,65 %
11.06.2016 18:34 16,0 C 92 % 1009,4 hPa 0,0 l/m 6,5 km/h (2 Bft) S-SW 198 0 min 0,000 mm 0,0 UV-I 44 W/m 14,7 C 16,0 C 11,3 km/h (2 Bft) 100,00 %
11.06.2016 18:35 16,0 C 92 % 1009,4 hPa 0,0 l/m 8,0 km/h (2 Bft) S 190 0 min 0,000 mm 0,0 UV-I 42 W/m 14,7 C 15,2 C 11,3 km/h (2 Bft) 100,00 %
11.06.2016 18:36 16,0 C 92 % 1009,4 hPa 0,0 l/m 7,0 km/h (2 Bft) SW 229 0 min 0,000 mm 0,0 UV-I 41 W/m 14,7 C 15,7 C 9,7 km/h (2 Bft) 100,00 %
11.06.2016 18:37 16,0 C 93 % 1009,5 hPa 0,0 l/m 8,4 km/h (2 Bft) SW 219 0 min 0,000 mm 0,0 UV-I 40 W/m 14,9 C 15,0 C 11,3 km/h (2 Bft) 100,00 %
11.06.2016 18:38 16,0 C 92 % 1009,5 hPa 0,0 l/m 6,2 km/h (2 Bft) S-SW 202 0 min 0,000 mm 0,0 UV-I 40 W/m 14,7 C 16,0 C 9,7 km/h (2 Bft) 100,00 %
11.06.2016 18:39 16,0 C 93 % 1009,4 hPa 0,0 l/m 7,2 km/h (2 Bft) S 170 0 min 0,000 mm 0,0 UV-I 39 W/m 14,9 C 15,6 C 11,3 km/h (2 Bft) 100,00 %
11.06.2016 18:40 15,9 C 93 % 1009,4 hPa 0,0 l/m 8,0 km/h (2 Bft) S-SW 200 0 min 0,000 mm 0,0 UV-I 39 W/m 14,8 C 15,0 C 11,3 km/h (2 Bft) 100,00 %
11.06.2016 18:41 15,9 C 93 % 1009,4 hPa 0,0 l/m 8,9 km/h (2 Bft) S-SW 208 0 min 0,000 mm 0,0 UV-I 39 W/m 14,8 C 14,6 C 11,3 km/h (2 Bft) 100,00 %
11.06.2016 18:42 15,9 C 93 % 1009,4 hPa 0,0 l/m 8,4 km/h (2 Bft) S 185 0 min 0,000 mm 0,0 UV-I 39 W/m 14,8 C 14,8 C 9,7 km/h (2 Bft) 100,00 %
11.06.2016 18:43 15,9 C 93 % 1009,4 hPa 0,0 l/m 7,8 km/h (2 Bft) S 183 0 min 0,000 mm 0,0 UV-I 40 W/m 14,8 C 15,1 C 9,7 km/h (2 Bft) 100,00 %
11.06.2016 18:44 15,9 C 93 % 1009,5 hPa 0,0 l/m 5,9 km/h (2 Bft) S 169 0 min 0,000 mm 0,0 UV-I 41 W/m 14,8 C 15,9 C 8,0 km/h (2 Bft) 95,83 %
11.06.2016 18:45 15,9 C 93 % 1009,4 hPa 0,0 l/m 7,8 km/h (2 Bft) S-SW 196 0 min 0,000 mm 0,0 UV-I 42 W/m 14,8 C 15,1 C 12,9 km/h (3 Bft) 100,00 %
11.06.2016 18:46 15,8 C 93 % 1009,5 hPa 0,0 l/m 7,6 km/h (2 Bft) S 178 0 min 0,000 mm 0,0 UV-I 44 W/m 14,7 C 15,1 C 11,3 km/h (2 Bft) 100,00 %
11.06.2016 18:47 15,8 C 93 % 1009,5 hPa 0,0 l/m 7,3 km/h (2 Bft) S-SO 157 0 min 0,000 mm 0,0 UV-I 46 W/m 14,7 C 15,3 C 12,9 km/h (3 Bft) 100,00 %
11.06.2016 18:48 15,8 C 93 % 1009,5 hPa 0,0 l/m 6,2 km/h (2 Bft) SW 223 0 min 0,000 mm 0,0 UV-I 48 W/m 14,7 C 15,8 C 8,0 km/h (2 Bft) 100,00 %
11.06.2016 18:49 15,8 C 93 % 1009,5 hPa 0,0 l/m 7,6 km/h (2 Bft) S-SW 195 0 min 0,000 mm 0,0 UV-I 51 W/m 14,7 C 15,1 C 11,3 km/h (2 Bft) 100,00 %
11.06.2016 18:50 15,7 C 93 % 1009,5 hPa 0,2 l/m 8,9 km/h (2 Bft) SW 220 0 min 0,000 mm 0,0 UV-I 54 W/m 14,6 C 14,4 C 11,3 km/h (2 Bft) 100,00 %
11.06.2016 18:51 15,7 C 92 % 1009,5 hPa 0,0 l/m 11,4 km/h (2 Bft) S-SW 204 0 min 0,000 mm 0,0 UV-I 58 W/m 14,4 C 13,3 C 17,7 km/h (3 Bft) 100,00 %
11.06.2016 18:52 15,7 C 92 % 1009,5 hPa 0,0 l/m 9,5 km/h (2 Bft) S-SW 201 0 min 0,000 mm 0,0 UV-I 63 W/m 14,4 C 14,1 C 12,9 km/h (3 Bft) 100,00 %
11.06.2016 18:53 15,6 C 92 % 1009,5 hPa 0,0 l/m 9,5 km/h (2 Bft) S-SO 165 0 min 0,000 mm 0,0 UV-I 68 W/m 14,3 C 14,0 C 19,3 km/h (3 Bft) 100,00 %
11.06.2016 18:54 15,6 C 92 % 1009,5 hPa 0,0 l/m 11,1 km/h (2 Bft) S-SW 204 0 min 0,000 mm 0,0 UV-I 72 W/m 14,3 C 13,3 C 16,1 km/h (3 Bft) 100,00 %
11.06.2016 18:55 15,5 C 92 % 1009,5 hPa 0,0 l/m 5,4 km/h (1 Bft) S 182 0 min 0,000 mm 0,0 UV-I 76 W/m 14,2 C 15,5 C 9,7 km/h (2 Bft) 100,00 %
11.06.2016 18:56 15,4 C 92 % 1009,4 hPa 0,0 l/m 6,7 km/h (2 Bft) SW 225 0 min 0,000 mm 0,0 UV-I 80 W/m 14,1 C 15,2 C 9,7 km/h (2 Bft) 100,00 %
11.06.2016 18:57 15,4 C 92 % 1009,4 hPa 0,0 l/m 6,0 km/h (2 Bft) S 178 0 min 0,000 mm 0,0 UV-I 81 W/m 14,1 C 15,4 C 11,3 km/h (2 Bft) 100,00 %
11.06.2016 18:58 15,4 C 92 % 1009,4 hPa 0,0 l/m 9,7 km/h (2 Bft) SW 221 0 min 0,000 mm 0,0 UV-I 83 W/m 14,1 C 13,7 C 12,9 km/h (3 Bft) 100,00 %
11.06.2016 18:59 15,4 C 92 % 1009,4 hPa 0,0 l/m 11,2 km/h (2 Bft) S 186 0 min 0,000 mm 0,0 UV-I 83 W/m 14,1 C 13,0 C 14,5 km/h (3 Bft) 100,00 %
11.06.2016 19:00 15,3 C 92 % 1009,4 hPa 0,0 l/m 8,8 km/h (2 Bft) S 186 0 min 0,000 mm 0,0 UV-I 83 W/m 14,0 C 14,0 C 11,3 km/h (2 Bft) 100,00 %
11.06.2016 19:01 15,3 C 92 % 1009,4 hPa 0,0 l/m 6,4 km/h (2 Bft) S-SW 196 0 min 0,025 mm 0,0 UV-I 85 W/m 14,0 C 15,3 C 8,0 km/h (2 Bft) 100,00 %
11.06.2016 19:02 15,3 C 92 % 1009,4 hPa 0,0 l/m 5,9 km/h (2 Bft) S-SW 192 0 min 0,001 mm 0,0 UV-I 87 W/m 14,0 C 15,3 C 9,7 km/h (2 Bft) 100,00 %
11.06.2016 19:03 15,3 C 92 % 1009,4 hPa 0,0 l/m 4,8 km/h (1 Bft) S 174 0 min 0,000 mm 0,0 UV-I 90 W/m 14,0 C 15,3 C 8,0 km/h (2 Bft) 100,00 %
11.06.2016 19:04 15,3 C 92 % 1009,4 hPa 0,0 l/m 5,6 km/h (1 Bft) SW 223 0 min 0,000 mm 0,0 UV-I 91 W/m 14,0 C 15,3 C 8,0 km/h (2 Bft) 100,00 %
11.06.2016 19:05 15,3 C 92 % 1009,4 hPa 0,0 l/m 5,4 km/h (1 Bft) S-SW 205 0 min 0,000 mm 0,0 UV-I 93 W/m 14,0 C 15,3 C 8,0 km/h (2 Bft) 95,65 %
11.06.2016 19:06 15,3 C 92 % 1009,4 hPa 0,0 l/m 6,6 km/h (2 Bft) S-SO 165 0 min 0,000 mm 0,0 UV-I 93 W/m 14,0 C 15,2 C 9,7 km/h (2 Bft) 100,00 %
11.06.2016 19:07 15,3 C 91 % 1009,4 hPa 0,0 l/m 4,9 km/h (1 Bft) S-SW 198 0 min 0,000 mm 0,0 UV-I 93 W/m 13,8 C 15,3 C 6,4 km/h (2 Bft) 100,00 %
11.06.2016 19:08 15,3 C 92 % 1009,4 hPa 0,0 l/m 5,3 km/h (1 Bft) S-SW 204 0 min 0,000 mm 0,0 UV-I 92 W/m 14,0 C 15,3 C 6,4 km/h (2 Bft) 100,00 %
11.06.2016 19:09 15,3 C 92 % 1009,4 hPa 0,0 l/m 6,0 km/h (2 Bft) S-SO 165 0 min 0,000 mm 0,0 UV-I 91 W/m 14,0 C 15,3 C 8,0 km/h (2 Bft) 100,00 %
11.06.2016 19:10 15,3 C 91 % 1009,4 hPa 0,0 l/m 5,3 km/h (1 Bft) S 178 0 min 0,000 mm 0,0 UV-I 90 W/m 13,8 C 15,3 C 9,7 km/h (2 Bft) 95,83 %
11.06.2016 19:11 15,3 C 91 % 1009,4 hPa 0,0 l/m 5,4 km/h (1 Bft) SW 215 0 min 0,000 mm 0,0 UV-I 88 W/m 13,8 C 15,3 C 8,0 km/h (2 Bft) 100,00 %
11.06.2016 19:12 15,4 C 91 % 1009,4 hPa 0,0 l/m 4,0 km/h (1 Bft) S 182 0 min 0,000 mm 0,0 UV-I 87 W/m 13,9 C 15,4 C 6,4 km/h (2 Bft) 100,00 %
11.06.2016 19:13 15,4 C 91 % 1009,4 hPa 0,0 l/m 7,2 km/h (2 Bft) S-SW 198 0 min 0,000 mm 0,0 UV-I 86 W/m 13,9 C 15,0 C 9,7 km/h (2 Bft) 100,00 %
11.06.2016 19:14 15,3 C 91 % 1009,4 hPa 0,0 l/m 4,3 km/h (1 Bft) S 184 0 min 0,000 mm 0,0 UV-I 85 W/m 13,8 C 15,3 C 6,4 km/h (2 Bft) 100,00 %
11.06.2016 19:15 15,3 C 91 % 1009,4 hPa 0,0 l/m 5,6 km/h (1 Bft) S 188 0 min 0,000 mm 0,0 UV-I 84 W/m 13,8 C 15,3 C 8,0 km/h (2 Bft) 100,00 %
11.06.2016 19:16 15,3 C 91 % 1009,4 hPa 0,0 l/m 3,6 km/h (1 Bft) S 173 0 min 0,000 mm 0,0 UV-I 84 W/m 13,8 C 15,3 C 6,4 km/h (2 Bft) 100,00 %
11.06.2016 19:17 15,3 C 91 % 1009,4 hPa 0,0 l/m 5,1 km/h (1 Bft) S-SO 167 0 min 0,000 mm 0,0 UV-I 83 W/m 13,8 C 15,3 C 9,7 km/h (2 Bft) 100,00 %
11.06.2016 19:18 15,3 C 91 % 1009,4 hPa 0,0 l/m 5,9 km/h (2 Bft) S-SO 166 0 min 0,000 mm 0,0 UV-I 83 W/m 13,8 C 15,3 C 8,0 km/h (2 Bft) 100,00 %
11.06.2016 19:19 15,3 C 91 % 1009,4 hPa 0,0 l/m 4,4 km/h (1 Bft) S 181 0 min 0,000 mm 0,0 UV-I 84 W/m 13,8 C 15,3 C 8,0 km/h (2 Bft) 95,65 %
11.06.2016 19:20 15,3 C 91 % 1009,4 hPa 0,0 l/m 8,3 km/h (2 Bft) S-SO 165 0 min 0,000 mm 0,0 UV-I 84 W/m 13,8 C 14,3 C 12,9 km/h (3 Bft) 100,00 %
11.06.2016 19:21 15,3 C 91 % 1009,4 hPa 0,0 l/m 4,0 km/h (1 Bft) S-SO 160 0 min 0,000 mm 0,0 UV-I 84 W/m 13,8 C 15,3 C 8,0 km/h (2 Bft) 95,65 %
11.06.2016 19:22 15,3 C 90 % 1009,4 hPa 0,0 l/m 6,3 km/h (2 Bft) S-SW 194 0 min 0,000 mm 0,0 UV-I 84 W/m 13,7 C 15,3 C 8,0 km/h (2 Bft) 91,67 %
11.06.2016 19:23 15,3 C 91 % 1009,4 hPa 0,0 l/m 6,1 km/h (2 Bft) S-SW 196 0 min 0,000 mm 0,0 UV-I 85 W/m 13,8 C 15,3 C 9,7 km/h (2 Bft) 100,00 %
11.06.2016 19:24 15,3 C 91 % 1009,4 hPa 0,0 l/m 6,4 km/h (2 Bft) S-SW 213 0 min 0,000 mm 0,0 UV-I 89 W/m 13,8 C 15,3 C 8,0 km/h (2 Bft) 91,30 %
11.06.2016 19:25 15,3 C 91 % 1009,4 hPa 0,0 l/m 5,0 km/h (1 Bft) S-SO 167 0 min 0,000 mm 0,0 UV-I 92 W/m 13,8 C 15,3 C 6,4 km/h (2 Bft) 100,00 %
11.06.2016 19:26 15,3 C 91 % 1009,4 hPa 0,0 l/m 3,1 km/h (1 Bft) S-SO 167 0 min 0,000 mm 0,0 UV-I 96 W/m 13,8 C 15,3 C 4,8 km/h (1 Bft) 95,65 %
11.06.2016 19:27 15,3 C 91 % 1009,4 hPa 0,0 l/m 4,4 km/h (1 Bft) S-SW 196 0 min 0,000 mm 0,0 UV-I 100 W/m 13,8 C 15,3 C 8,0 km/h (2 Bft) 100,00 %
11.06.2016 19:28 15,3 C 91 % 1009,4 hPa 0,0 l/m 4,7 km/h (1 Bft) S 169 0 min 0,000 mm 0,0 UV-I 102 W/m 13,8 C 15,3 C 8,0 km/h (2 Bft) 92,86 %
11.06.2016 19:29 15,3 C 91 % 1009,3 hPa 0,0 l/m 2,3 km/h (1 Bft) S 171 0 min 0,000 mm 0,0 UV-I 102 W/m 13,8 C 15,3 C 6,4 km/h (2 Bft) 100,00 %
11.06.2016 19:30 15,3 C 90 % 1009,3 hPa 0,0 l/m 2,3 km/h (1 Bft) S 171 0 min 0,000 mm 0,0 UV-I 102 W/m 13,7 C 15,3 C 3,2 km/h (1 Bft) 95,65 %
11.06.2016 19:31 15,3 C 91 % 1009,3 hPa 0,0 l/m 3,1 km/h (1 Bft) S 171 0 min 0,000 mm 0,0 UV-I 102 W/m 13,8 C 15,3 C 6,4 km/h (2 Bft) 100,00 %
11.06.2016 19:32 15,4 C 91 % 1009,3 hPa 0,0 l/m 2,2 km/h (1 Bft) S-SO 162 0 min 0,000 mm 0,0 UV-I 104 W/m 13,9 C 15,4 C 3,2 km/h (1 Bft) 95,65 %
11.06.2016 19:33 15,4 C 91 % 1009,3 hPa 0,0 l/m 4,4 km/h (1 Bft) S-SO 155 0 min 0,000 mm 0,0 UV-I 104 W/m 13,9 C 15,4 C 6,4 km/h (2 Bft) 100,00 %
11.06.2016 19:34 15,4 C 92 % 1009,3 hPa 0,0 l/m 3,1 km/h (1 Bft) S 172 0 min 0,000 mm 0,0 UV-I 106 W/m 14,1 C 15,4 C 6,4 km/h (2 Bft) 96,15 %
11.06.2016 19:35 15,4 C 91 % 1009,3 hPa 0,0 l/m 5,1 km/h (1 Bft) S-SO 164 0 min 0,000 mm 0,0 UV-I 110 W/m 13,9 C 15,4 C 8,0 km/h (2 Bft) 95,83 %
11.06.2016 19:36 15,4 C 91 % 1009,3 hPa 0,0 l/m 6,9 km/h (2 Bft) S-SW 202 1 min 0,000 mm 0,0 UV-I 115 W/m 13,9 C 15,1 C 8,0 km/h (2 Bft) 95,65 %
11.06.2016 19:37 15,4 C 91 % 1009,3 hPa 0,0 l/m 5,2 km/h (1 Bft) S-SO 161 1 min 0,000 mm 0,0 UV-I 117 W/m 13,9 C 15,4 C 9,7 km/h (2 Bft) 91,67 %
11.06.2016 19:38 15,5 C 91 % 1009,3 hPa 0,0 l/m 5,0 km/h (1 Bft) S 171 1 min 0,000 mm 0,0 UV-I 118 W/m 14,0 C 15,5 C 9,7 km/h (2 Bft) 100,00 %
11.06.2016 19:39 15,4 C 91 % 1009,3 hPa 0,0 l/m 2,2 km/h (1 Bft) S 175 1 min 0,000 mm 0,0 UV-I 110 W/m 13,9 C 15,4 C 4,8 km/h (1 Bft) 91,67 %
11.06.2016 19:40 15,5 C 91 % 1009,3 hPa 0,0 l/m 3,2 km/h (1 Bft) S 175 1 min 0,000 mm 0,0 UV-I 107 W/m 14,0 C 15,5 C 4,8 km/h (1 Bft) 100,00 %
11.06.2016 19:41 15,5 C 91 % 1009,3 hPa 0,0 l/m 3,7 km/h (1 Bft) S-SW 195 1 min 0,000 mm 0,0 UV-I 106 W/m 14,0 C 15,5 C 4,8 km/h (1 Bft) 90,91 %
11.06.2016 19:42 15,5 C 92 % 1009,3 hPa 0,0 l/m 4,9 km/h (1 Bft) S 180 1 min 0,000 mm 0,0 UV-I 104 W/m 14,2 C 15,5 C 8,0 km/h (2 Bft) 97,44 %
11.06.2016 19:43 15,6 C 92 % 1009,3 hPa 0,0 l/m 3,2 km/h (1 Bft) S 185 1 min 0,000 mm 0,0 UV-I 104 W/m 14,3 C 15,6 C 4,8 km/h (1 Bft) 95,65 %
11.06.2016 19:44 15,6 C 91 % 1009,3 hPa 0,0 l/m 4,6 km/h (1 Bft) S 177 1 min 0,000 mm 0,0 UV-I 104 W/m 14,1 C 15,6 C 8,0 km/h (2 Bft) 95,83 %
11.06.2016 19:45 15,6 C 91 % 1009,3 hPa 0,0 l/m 4,6 km/h (1 Bft) S 173 1 min 0,000 mm 0,0 UV-I 105 W/m 14,1 C 15,6 C 8,0 km/h (2 Bft) 95,65 %
11.06.2016 19:46 15,6 C 91 % 1009,4 hPa 0,0 l/m 3,4 km/h (1 Bft) S 172 1 min 0,000 mm 0,0 UV-I 108 W/m 14,1 C 15,6 C 6,4 km/h (2 Bft) 95,83 %
11.06.2016 19:47 15,6 C 91 % 1009,3 hPa 0,0 l/m 3,6 km/h (1 Bft) S 172 1 min 0,000 mm 0,0 UV-I 112 W/m 14,1 C 15,6 C 4,8 km/h (1 Bft) 100,00 %
11.06.2016 19:48 15,6 C 92 % 1009,3 hPa 0,0 l/m 2,2 km/h (1 Bft) S 172 1 min 0,000 mm 0,0 UV-I 114 W/m 14,3 C 15,6 C 4,8 km/h (1 Bft) 95,83 %
11.06.2016 19:49 15,6 C 91 % 1009,3 hPa 0,0 l/m 2,5 km/h (1 Bft) S 172 1 min 0,000 mm 0,0 UV-I 114 W/m 14,1 C 15,6 C 3,2 km/h (1 Bft) 91,30 %
11.06.2016 19:50 15,7 C 92 % 1009,2 hPa 0,0 l/m 1,5 km/h (1 Bft) S 172 1 min 0,000 mm 0,0 UV-I 113 W/m 14,4 C 15,7 C 3,2 km/h (1 Bft) 100,00 %
11.06.2016 19:51 15,7 C 91 % 1009,3 hPa 0,0 l/m 4,5 km/h (1 Bft) S 177 1 min 0,000 mm 0,0 UV-I 113 W/m 14,2 C 15,7 C 6,4 km/h (2 Bft) 91,30 %
11.06.2016 19:52 15,7 C 91 % 1009,3 hPa 0,0 l/m 5,5 km/h (1 Bft) S 185 1 min 0,000 mm 0,0 UV-I 110 W/m 14,2 C 15,7 C 8,0 km/h (2 Bft) 100,00 %
11.06.2016 19:53 15,7 C 91 % 1009,3 hPa 0,0 l/m 5,0 km/h (1 Bft) S 179 1 min 0,000 mm 0,0 UV-I 108 W/m 14,2 C 15,7 C 8,0 km/h (2 Bft) 95,65 %
11.06.2016 19:54 15,7 C 91 % 1009,3 hPa 0,0 l/m 4,0 km/h (1 Bft) S 175 1 min 0,000 mm 0,0 UV-I 106 W/m 14,2 C 15,7 C 6,4 km/h (2 Bft) 100,00 %
11.06.2016 19:55 15,7 C 91 % 1009,3 hPa 0,0 l/m 2,7 km/h (1 Bft) S 181 1 min 0,000 mm 0,0 UV-I 105 W/m 14,2 C 15,7 C 4,8 km/h (1 Bft) 95,65 %
11.06.2016 19:56 15,7 C 91 % 1009,2 hPa 0,0 l/m 5,9 km/h (2 Bft) S-SW 211 1 min 0,000 mm 0,0 UV-I 105 W/m 14,2 C 15,7 C 8,0 km/h (2 Bft) 100,00 %
11.06.2016 19:57 15,7 C 91 % 1009,3 hPa 0,0 l/m 3,6 km/h (1 Bft) S-SW 194 1 min 0,000 mm 0,0 UV-I 105 W/m 14,2 C 15,7 C 4,8 km/h (1 Bft) 100,00 %
11.06.2016 19:58 15,7 C 91 % 1009,3 hPa 0,0 l/m 3,4 km/h (1 Bft) W-SW 251 1 min 0,000 mm 0,0 UV-I 105 W/m 14,2 C 15,7 C 6,4 km/h (2 Bft) 100,00 %
11.06.2016 19:59 15,8 C 91 % 1009,3 hPa 0,0 l/m 4,1 km/h (1 Bft) W-SW 251 1 min 0,000 mm 0,0 UV-I 105 W/m 14,3 C 15,8 C 6,4 km/h (2 Bft) 95,83 %
11.06.2016 20:00 15,8 C 91 % 1009,3 hPa 0,0 l/m 4,8 km/h (1 Bft) SW 216 1 min 0,000 mm 0,0 UV-I 104 W/m 14,3 C 15,8 C 6,4 km/h (2 Bft) 100,00 %
11.06.2016 20:01 15,8 C 91 % 1009,3 hPa 0,0 l/m 3,1 km/h (1 Bft) SW 219 1 min 0,050 mm 0,0 UV-I 103 W/m 14,3 C 15,8 C 4,8 km/h (1 Bft) 100,00 %
11.06.2016 20:02 15,8 C 91 % 1009,3 hPa 0,0 l/m 2,3 km/h (1 Bft) S-SW 202 1 min 0,000 mm 0,0 UV-I 100 W/m 14,3 C 15,8 C 4,8 km/h (1 Bft) 95,65 %
11.06.2016 20:03 15,8 C 91 % 1009,3 hPa 0,0 l/m 3,0 km/h (1 Bft) S-SW 206 1 min 0,000 mm 0,0 UV-I 97 W/m 14,3 C 15,8 C 4,8 km/h (1 Bft) 100,00 %
11.06.2016 20:04 15,8 C 90 % 1009,3 hPa 0,0 l/m 3,7 km/h (1 Bft) S-SW 211 1 min 0,000 mm 0,0 UV-I 92 W/m 14,2 C 15,8 C 4,8 km/h (1 Bft) 100,00 %
11.06.2016 20:05 15,8 C 90 % 1009,3 hPa 0,0 l/m 3,2 km/h (1 Bft) S-SW 211 1 min 0,000 mm 0,0 UV-I 87 W/m 14,2 C 15,8 C 4,8 km/h (1 Bft) 100,00 %
11.06.2016 20:06 15,8 C 91 % 1009,2 hPa 0,0 l/m 3,1 km/h (1 Bft) S-SW 192 1 min 0,000 mm 0,0 UV-I 81 W/m 14,3 C 15,8 C 4,8 km/h (1 Bft) 100,00 %
11.06.2016 20:07 15,8 C 91 % 1009,3 hPa 0,0 l/m 2,7 km/h (1 Bft) S 191 1 min 0,000 mm 0,0 UV-I 79 W/m 14,3 C 15,8 C 3,2 km/h (1 Bft) 91,67 %
11.06.2016 20:08 15,8 C 91 % 1009,3 hPa 0,0 l/m 3,6 km/h (1 Bft) S 191 1 min 0,000 mm 0,0 UV-I 72 W/m 14,3 C 15,8 C 4,8 km/h (1 Bft) 95,65 %
11.06.2016 20:09 15,9 C 91 % 1009,3 hPa 0,0 l/m 1,9 km/h (1 Bft) S 191 1 min 0,000 mm 0,0 UV-I 70 W/m 14,4 C 15,9 C 4,8 km/h (1 Bft) 100,00 %
11.06.2016 20:10 15,9 C 91 % 1009,3 hPa 0,0 l/m 3,9 km/h (1 Bft) S 174 1 min 0,000 mm 0,0 UV-I 68 W/m 14,4 C 15,9 C 6,4 km/h (2 Bft) 100,00 %
11.06.2016 20:11 15,9 C 91 % 1009,3 hPa 0,0 l/m 3,4 km/h (1 Bft) S 174 1 min 0,000 mm 0,0 UV-I 66 W/m 14,4 C 15,9 C 4,8 km/h (1 Bft) 100,00 %
11.06.2016 20:12 15,9 C 91 % 1009,3 hPa 0,0 l/m 2,3 km/h (1 Bft) S 174 1 min 0,000 mm 0,0 UV-I 64 W/m 14,4 C 15,9 C 3,2 km/h (1 Bft) 100,00 %
11.06.2016 20:13 15,8 C 91 % 1009,2 hPa 0,0 l/m 3,0 km/h (1 Bft) S 174 1 min 0,000 mm 0,0 UV-I 68 W/m 14,3 C 15,8 C 3,2 km/h (1 Bft) 100,00 %
11.06.2016 20:14 15,8 C 91 % 1009,3 hPa 0,0 l/m 4,3 km/h (1 Bft) S 188 1 min 0,000 mm 0,0 UV-I 70 W/m 14,3 C 15,8 C 6,4 km/h (2 Bft) 95,65 %
11.06.2016 20:15 15,9 C 91 % 1009,3 hPa 0,0 l/m 2,0 km/h (1 Bft) S 188 1 min 0,000 mm 0,0 UV-I 67 W/m 14,4 C 15,9 C 3,2 km/h (1 Bft) 95,83 %
11.06.2016 20:16 15,8 C 91 % 1009,2 hPa 0,0 l/m 3,8 km/h (1 Bft) S 188 1 min 0,000 mm 0,0 UV-I 64 W/m 14,3 C 15,8 C 4,8 km/h (1 Bft) 100,00 %
11.06.2016 20:17 15,8 C 91 % 1009,2 hPa 0,0 l/m 1,7 km/h (1 Bft) S 185 1 min 0,000 mm 0,0 UV-I 61 W/m 14,3 C 15,8 C 4,8 km/h (1 Bft) 100,00 %
11.06.2016 20:18 15,8 C 91 % 1009,3 hPa 0,0 l/m 2,8 km/h (1 Bft) S 185 1 min 0,000 mm 0,0 UV-I 60 W/m 14,3 C 15,8 C 4,8 km/h (1 Bft) 100,00 %
11.06.2016 20:19 15,8 C 91 % 1009,2 hPa 0,0 l/m 2,3 km/h (1 Bft) S 185 1 min 0,000 mm 0,0 UV-I 62 W/m 14,3 C 15,8 C 4,8 km/h (1 Bft) 95,65 %
11.06.2016 20:20 15,9 C 91 % 1009,2 hPa 0,0 l/m 1,0 km/h (0 Bft) S 185 1 min 0,000 mm 0,0 UV-I 60 W/m 14,4 C 15,9 C 3,2 km/h (1 Bft) 100,00 %
11.06.2016 20:21 15,9 C 91 % 1009,2 hPa 0,0 l/m 1,5 km/h (1 Bft) S 184 1 min 0,000 mm 0,0 UV-I 58 W/m 14,4 C 15,9 C 3,2 km/h (1 Bft) 95,65 %
11.06.2016 20:22 15,9 C 91 % 1009,1 hPa 0,0 l/m 1,5 km/h (1 Bft) S 184 1 min 0,000 mm 0,0 UV-I 55 W/m 14,4 C 15,9 C 3,2 km/h (1 Bft) 100,00 %
11.06.2016 20:23 15,9 C 91 % 1009,1 hPa 0,0 l/m 1,4 km/h (1 Bft) S 184 1 min 0,000 mm 0,0 UV-I 52 W/m 14,4 C 15,9 C 3,2 km/h (1 Bft) 100,00 %
11.06.2016 20:24 15,9 C 91 % 1009,1 hPa 0,0 l/m 2,9 km/h (1 Bft) S 184 1 min 0,000 mm 0,0 UV-I 50 W/m 14,4 C 15,9 C 4,8 km/h (1 Bft) 100,00 %
11.06.2016 20:25 15,8 C 91 % 1009,1 hPa 0,0 l/m 4,2 km/h (1 Bft) S-SW 193 1 min 0,000 mm 0,0 UV-I 46 W/m 14,3 C 15,8 C 8,0 km/h (2 Bft) 100,00 %
11.06.2016 20:26 15,8 C 90 % 1009,1 hPa 0,0 l/m 5,4 km/h (1 Bft) S 177 1 min 0,000 mm 0,0 UV-I 42 W/m 14,2 C 15,8 C 8,0 km/h (2 Bft) 100,00 %
11.06.2016 20:27 15,8 C 90 % 1009,2 hPa 0,0 l/m 5,3 km/h (1 Bft) S 186 1 min 0,000 mm 0,0 UV-I 40 W/m 14,2 C 15,8 C 8,0 km/h (2 Bft) 100,00 %
11.06.2016 20:28 15,8 C 90 % 1009,2 hPa 0,0 l/m 4,5 km/h (1 Bft) S-SO 167 0 min 0,000 mm 0,0 UV-I 38 W/m 14,2 C 15,8 C 8,0 km/h (2 Bft) 100,00 %
11.06.2016 20:29 15,8 C 90 % 1009,2 hPa 0,0 l/m 6,2 km/h (2 Bft) S 175 0 min 0,000 mm 0,0 UV-I 36 W/m 14,2 C 15,8 C 9,7 km/h (2 Bft) 100,00 %
11.06.2016 20:30 15,8 C 90 % 1009,2 hPa 0,0 l/m 3,9 km/h (1 Bft) S 180 0 min 0,000 mm 0,0 UV-I 34 W/m 14,2 C 15,8 C 4,8 km/h (1 Bft) 100,00 %
11.06.2016 20:31 15,8 C 90 % 1009,2 hPa 0,0 l/m 2,1 km/h (1 Bft) S 180 0 min 0,000 mm 0,0 UV-I 33 W/m 14,2 C 15,8 C 3,2 km/h (1 Bft) 100,00 %
11.06.2016 20:32 15,7 C 90 % 1009,2 hPa 0,0 l/m 2,8 km/h (1 Bft) S 180 0 min 0,000 mm 0,0 UV-I 32 W/m 14,1 C 15,7 C 4,8 km/h (1 Bft) 100,00 %
11.06.2016 20:33 15,7 C 90 % 1009,2 hPa 0,0 l/m 3,3 km/h (1 Bft) S 180 0 min 0,000 mm 0,0 UV-I 31 W/m 14,1 C 15,7 C 4,8 km/h (1 Bft) 100,00 %
11.06.2016 20:34 15,7 C 90 % 1009,2 hPa 0,0 l/m 0,7 km/h (0 Bft) S 180 0 min 0,000 mm 0,0 UV-I 27 W/m 14,1 C 15,7 C 3,2 km/h (1 Bft) 100,00 %
11.06.2016 20:35 15,7 C 90 % 1009,2 hPa 0,0 l/m 0,3 km/h (0 Bft) S 180 0 min 0,000 mm 0,0 UV-I 25 W/m 14,1 C 15,7 C 1,6 km/h (1 Bft) 100,00 %
11.06.2016 20:36 15,7 C 90 % 1009,2 hPa 0,0 l/m 0,6 km/h (0 Bft) S 180 0 min 0,000 mm 0,0 UV-I 24 W/m 14,1 C 15,7 C 1,6 km/h (1 Bft) 100,00 %
11.06.2016 20:37 15,7 C 90 % 1009,2 hPa 0,0 l/m 1,4 km/h (1 Bft) S 180 0 min 0,000 mm 0,0 UV-I 21 W/m 14,1 C 15,7 C 3,2 km/h (1 Bft) 100,00 %
11.06.2016 20:38 15,7 C 90 % 1009,2 hPa 0,0 l/m 1,7 km/h (1 Bft) S 180 0 min 0,000 mm 0,0 UV-I 21 W/m 14,1 C 15,7 C 3,2 km/h (1 Bft) 100,00 %
11.06.2016 20:39 15,7 C 90 % 1009,3 hPa 0,0 l/m 1,2 km/h (1 Bft) S 180 0 min 0,000 mm 0,0 UV-I 19 W/m 14,1 C 15,7 C 1,6 km/h (1 Bft) 100,00 %
11.06.2016 20:40 15,7 C 91 % 1009,2 hPa 0,0 l/m 2,1 km/h (1 Bft) S 180 0 min 0,000 mm 0,0 UV-I 19 W/m 14,2 C 15,7 C 3,2 km/h (1 Bft) 100,00 %
11.06.2016 20:41 15,7 C 91 % 1009,3 hPa 0,0 l/m 1,7 km/h (1 Bft) S 180 0 min 0,000 mm 0,0 UV-I 18 W/m 14,2 C 15,7 C 3,2 km/h (1 Bft) 100,00 %
11.06.2016 20:42 15,7 C 90 % 1009,3 hPa 0,0 l/m 2,3 km/h (1 Bft) S 180 0 min 0,000 mm 0,0 UV-I 17 W/m 14,1 C 15,7 C 3,2 km/h (1 Bft) 100,00 %
11.06.2016 20:43 15,7 C 90 % 1009,3 hPa 0,0 l/m 1,8 km/h (1 Bft) S 180 0 min 0,000 mm 0,0 UV-I 16 W/m 14,1 C 15,7 C 3,2 km/h (1 Bft) 100,00 %
11.06.2016 20:44 15,7 C 90 % 1009,3 hPa 0,0 l/m 2,0 km/h (1 Bft) S 180 0 min 0,000 mm 0,0 UV-I 14 W/m 14,1 C 15,7 C 3,2 km/h (1 Bft) 95,65 %
11.06.2016 20:45 15,7 C 90 % 1009,3 hPa 0,0 l/m 1,7 km/h (1 Bft) S 180 0 min 0,000 mm 0,0 UV-I 14 W/m 14,1 C 15,7 C 3,2 km/h (1 Bft) 100,00 %
11.06.2016 20:46 15,7 C 90 % 1009,3 hPa 0,0 l/m 2,1 km/h (1 Bft) S 180 0 min 0,000 mm 0,0 UV-I 14 W/m 14,1 C 15,7 C 4,8 km/h (1 Bft) 100,00 %
11.06.2016 20:47 15,7 C 90 % 1009,3 hPa 0,0 l/m 1,9 km/h (1 Bft) S 180 0 min 0,000 mm 0,0 UV-I 13 W/m 14,1 C 15,7 C 3,2 km/h (1 Bft) 100,00 %
11.06.2016 20:48 15,7 C 91 % 1009,4 hPa 0,0 l/m 1,6 km/h (1 Bft) S 180 0 min 0,000 mm 0,0 UV-I 12 W/m 14,2 C 15,7 C 1,6 km/h (1 Bft) 100,00 %
11.06.2016 20:49 15,7 C 91 % 1009,4 hPa 0,0 l/m 1,9 km/h (1 Bft) S 180 1 min 0,000 mm 0,0 UV-I 12 W/m 14,2 C 15,7 C 3,2 km/h (1 Bft) 100,00 %
11.06.2016 20:50 15,7 C 91 % 1009,4 hPa 0,0 l/m 1,4 km/h (1 Bft) S 180 1 min 0,000 mm 0,0 UV-I 12 W/m 14,2 C 15,7 C 3,2 km/h (1 Bft) 95,65 %
11.06.2016 20:51 15,6 C 91 % 1009,4 hPa 0,0 l/m 1,4 km/h (1 Bft) S 180 1 min 0,000 mm 0,0 UV-I 11 W/m 14,1 C 15,6 C 3,2 km/h (1 Bft) 100,00 %
11.06.2016 20:52 15,6 C 91 % 1009,4 hPa 0,0 l/m 1,8 km/h (1 Bft) S 180 0 min 0,000 mm 0,0 UV-I 11 W/m 14,1 C 15,6 C 3,2 km/h (1 Bft) 100,00 %
11.06.2016 20:53 15,6 C 91 % 1009,5 hPa 0,0 l/m 2,5 km/h (1 Bft) S 180 0 min 0,000 mm 0,0 UV-I 11 W/m 14,1 C 15,6 C 3,2 km/h (1 Bft) 100,00 %
11.06.2016 20:54 15,6 C 91 % 1009,4 hPa 0,0 l/m 3,4 km/h (1 Bft) S-SW 207 0 min 0,000 mm 0,0 UV-I 9 W/m 14,1 C 15,6 C 4,8 km/h (1 Bft) 95,65 %
11.06.2016 20:55 15,6 C 91 % 1009,5 hPa 0,0 l/m 2,7 km/h (1 Bft) S-SW 207 0 min 0,000 mm 0,0 UV-I 9 W/m 14,1 C 15,6 C 4,8 km/h (1 Bft) 96,30 %
11.06.2016 20:56 15,6 C 91 % 1009,4 hPa 0,0 l/m 3,1 km/h (1 Bft) S-SW 207 0 min 0,000 mm 0,0 UV-I 9 W/m 14,1 C 15,6 C 4,8 km/h (1 Bft) 100,00 %
11.06.2016 20:57 15,6 C 91 % 1009,5 hPa 0,0 l/m 3,1 km/h (1 Bft) S-SW 207 0 min 0,000 mm 0,0 UV-I 7 W/m 14,1 C 15,6 C 4,8 km/h (1 Bft) 100,00 %
11.06.2016 20:58 15,6 C 91 % 1009,5 hPa 0,0 l/m 1,9 km/h (1 Bft) S-SW 207 0 min 0,000 mm 0,0 UV-I 6 W/m 14,1 C 15,6 C 3,2 km/h (1 Bft) 100,00 %
11.06.2016 20:59 15,6 C 91 % 1009,5 hPa 0,0 l/m 2,3 km/h (1 Bft) S-SW 207 0 min 0,000 mm 0,0 UV-I 5 W/m 14,1 C 15,6 C 3,2 km/h (1 Bft) 100,00 %
11.06.2016 21:00 15,6 C 91 % 1009,5 hPa 0,0 l/m 1,8 km/h (1 Bft) S-SW 207 0 min 0,000 mm 0,0 UV-I 5 W/m 14,1 C 15,6 C 3,2 km/h (1 Bft) 100,00 %
11.06.2016 21:01 15,5 C 91 % 1009,4 hPa 0,0 l/m 1,6 km/h (1 Bft) S-SW 207 0 min 0,026 mm 0,0 UV-I 5 W/m 14,0 C 15,5 C 3,2 km/h (1 Bft) 100,00 %
11.06.2016 21:02 15,5 C 91 % 1009,4 hPa 0,0 l/m 1,4 km/h (1 Bft) S-SW 207 0 min 0,000 mm 0,0 UV-I 0 W/m 14,0 C 15,5 C 3,2 km/h (1 Bft) 100,00 %
11.06.2016 21:03 15,5 C 91 % 1009,5 hPa 0,0 l/m 1,0 km/h (0 Bft) S-SW 207 0 min 0,000 mm 0,0 UV-I 0 W/m 14,0 C 15,5 C 1,6 km/h (1 Bft) 91,30 %
11.06.2016 21:04 15,5 C 91 % 1009,4 hPa 0,0 l/m 0,6 km/h (0 Bft) S-SW 207 0 min 0,000 mm 0,0 UV-I 0 W/m 14,0 C 15,5 C 1,6 km/h (1 Bft) 100,00 %
11.06.2016 21:05 15,5 C 91 % 1009,4 hPa 0,0 l/m 0,0 km/h (0 Bft) S-SW 207 0 min 0,000 mm 0,0 UV-I 0 W/m 14,0 C 15,5 C 0,0 km/h (0 Bft) 100,00 %
11.06.2016 21:06 15,5 C 91 % 1009,4 hPa 0,0 l/m 0,2 km/h (0 Bft) S-SW 207 0 min 0,000 mm 0,0 UV-I 0 W/m 14,0 C 15,5 C 1,6 km/h (1 Bft) 100,00 %
11.06.2016 21:07 15,5 C 91 % 1009,5 hPa 0,0 l/m 0,0 km/h (0 Bft) S-SW 207 0 min 0,000 mm 0,0 UV-I 0 W/m 14,0 C 15,5 C 0,0 km/h (0 Bft) 95,65 %
11.06.2016 21:08 15,5 C 91 % 1009,4 hPa 0,0 l/m 0,1 km/h (0 Bft) S-SW 207 0 min 0,000 mm 0,0 UV-I 0 W/m 14,0 C 15,5 C 1,6 km/h (1 Bft) 100,00 %
11.06.2016 21:09 15,6 C 91 % 1009,4 hPa 0,0 l/m 0,4 km/h (0 Bft) S-SW 207 0 min 0,000 mm 0,0 UV-I 0 W/m 14,1 C 15,6 C 1,6 km/h (1 Bft) 100,00 %
11.06.2016 21:10 15,6 C 92 % 1009,5 hPa 0,0 l/m 0,8 km/h (0 Bft) S-SW 207 0 min 0,000 mm 0,0 UV-I 0 W/m 14,3 C 15,6 C 1,6 km/h (1 Bft) 100,00 %
11.06.2016 21:11 15,6 C 92 % 1009,4 hPa 0,0 l/m 0,5 km/h (0 Bft) S-SW 207 0 min 0,000 mm 0,0 UV-I 0 W/m 14,3 C 15,6 C 1,6 km/h (1 Bft) 100,00 %
11.06.2016 21:12 15,6 C 92 % 1009,5 hPa 0,0 l/m 1,1 km/h (1 Bft) S-SW 207 0 min 0,000 mm 0,0 UV-I 0 W/m 14,3 C 15,6 C 1,6 km/h (1 Bft) 100,00 %
11.06.2016 21:13 15,6 C 91 % 1009,5 hPa 0,0 l/m 0,9 km/h (0 Bft) S-SW 207 0 min 0,000 mm 0,0 UV-I 0 W/m 14,1 C 15,6 C 1,6 km/h (1 Bft) 95,65 %
11.06.2016 21:14 15,6 C 91 % 1009,5 hPa 0,0 l/m 0,7 km/h (0 Bft) S-SW 207 0 min 0,000 mm 0,0 UV-I 0 W/m 14,1 C 15,6 C 1,6 km/h (1 Bft) 100,00 %
11.06.2016 21:15 15,6 C 91 % 1009,5 hPa 0,0 l/m 1,2 km/h (1 Bft) S-SW 207 0 min 0,000 mm 0,0 UV-I 0 W/m 14,1 C 15,6 C 3,2 km/h (1 Bft) 100,00 %
11.06.2016 21:16 15,6 C 91 % 1009,5 hPa 0,0 l/m 1,0 km/h (0 Bft) S-SW 207 0 min 0,000 mm 0,0 UV-I 0 W/m 14,1 C 15,6 C 1,6 km/h (1 Bft) 95,83 %
11.06.2016 21:17 15,6 C 91 % 1009,5 hPa 0,0 l/m 0,3 km/h (0 Bft) S-SW 207 0 min 0,000 mm 0,0 UV-I 0 W/m 14,1 C 15,6 C 1,6 km/h (1 Bft) 95,65 %
11.06.2016 21:18 15,6 C 91 % 1009,5 hPa 0,0 l/m 0,1 km/h (0 Bft) S-SW 207 0 min 0,000 mm 0,0 UV-I 0 W/m 14,1 C 15,6 C 1,6 km/h (1 Bft) 95,83 %
11.06.2016 21:19 15,6 C 91 % 1009,5 hPa 0,0 l/m 0,0 km/h (0 Bft) S-SW 207 0 min 0,000 mm 0,0 UV-I 0 W/m 14,1 C 15,6 C 0,0 km/h (0 Bft) 91,30 %
11.06.2016 21:20 15,6 C 91 % 1009,4 hPa 0,0 l/m 0,0 km/h (0 Bft) S-SW 207 0 min 0,000 mm 0,0 UV-I 0 W/m 14,1 C 15,6 C 0,0 km/h (0 Bft) 100,00 %
11.06.2016 21:21 15,6 C 91 % 1009,5 hPa 0,0 l/m 0,5 km/h (0 Bft) S-SW 207 0 min 0,000 mm 0,0 UV-I 0 W/m 14,1 C 15,6 C 1,6 km/h (1 Bft) 95,83 %
11.06.2016 21:22 15,6 C 91 % 1009,5 hPa 0,0 l/m 0,1 km/h (0 Bft) S-SW 207 0 min 0,000 mm 0,0 UV-I 0 W/m 14,1 C 15,6 C 1,6 km/h (1 Bft) 100,00 %
11.06.2016 21:23 15,6 C 91 % 1009,4 hPa 0,0 l/m 0,0 km/h (0 Bft) S-SW 207 0 min 0,000 mm 0,0 UV-I 0 W/m 14,1 C 15,6 C 0,0 km/h (0 Bft) 95,83 %
11.06.2016 21:24 15,6 C 91 % 1009,5 hPa 0,0 l/m 0,1 km/h (0 Bft) S-SW 207 0 min 0,000 mm 0,0 UV-I 0 W/m 14,1 C 15,6 C 1,6 km/h (1 Bft) 95,65 %
11.06.2016 21:25 15,6 C 91 % 1009,5 hPa 0,0 l/m 0,0 km/h (0 Bft) S-SW 207 0 min 0,000 mm 0,0 UV-I 0 W/m 14,1 C 15,6 C 0,0 km/h (0 Bft) 100,00 %
11.06.2016 21:26 15,5 C 91 % 1009,5 hPa 0,0 l/m 0,0 km/h (0 Bft) S-SW 207 0 min 0,000 mm 0,0 UV-I 0 W/m 14,0 C 15,5 C 0,0 km/h (0 Bft) 95,65 %
11.06.2016 21:27 15,5 C 91 % 1009,5 hPa 0,0 l/m 0,0 km/h (0 Bft) S-SW 207 0 min 0,000 mm 0,0 UV-I 0 W/m 14,0 C 15,5 C 0,0 km/h (0 Bft) 100,00 %
11.06.2016 21:28 15,5 C 91 % 1009,5 hPa 0,0 l/m 0,0 km/h (0 Bft) S-SW 207 0 min 0,000 mm 0,0 UV-I 0 W/m 14,0 C 15,5 C 0,0 km/h (0 Bft) 95,65 %
11.06.2016 21:29 15,6 C 91 % 1009,6 hPa 0,0 l/m 0,0 km/h (0 Bft) S-SW 207 0 min 0,000 mm 0,0 UV-I 0 W/m 14,1 C 15,6 C 0,0 km/h (0 Bft) 100,00 %
11.06.2016 21:30 15,6 C 91 % 1009,6 hPa 0,0 l/m 0,0 km/h (0 Bft) S-SW 207 0 min 0,000 mm 0,0 UV-I 0 W/m 14,1 C 15,6 C 0,0 km/h (0 Bft) 91,30 %
11.06.2016 21:31 15,6 C 91 % 1009,5 hPa 0,0 l/m 0,0 km/h (0 Bft) S-SW 207 0 min 0,000 mm 0,0 UV-I 0 W/m 14,1 C 15,6 C 0,0 km/h (0 Bft) 95,83 %
11.06.2016 21:32 15,6 C 91 % 1009,6 hPa 0,0 l/m 0,0 km/h (0 Bft) S-SW 207 0 min 0,000 mm 0,0 UV-I 0 W/m 14,1 C 15,6 C 0,0 km/h (0 Bft) 95,65 %
11.06.2016 21:33 15,6 C 91 % 1009,6 hPa 0,0 l/m 0,0 km/h (0 Bft) S-SW 207 0 min 0,000 mm 0,0 UV-I 0 W/m 14,1 C 15,6 C 0,0 km/h (0 Bft) 95,83 %
11.06.2016 21:34 15,6 C 92 % 1009,7 hPa 0,0 l/m 0,0 km/h (0 Bft) S-SW 207 0 min 0,000 mm 0,0 UV-I 0 W/m 14,3 C 15,6 C 0,0 km/h (0 Bft) 100,00 %
11.06.2016 21:35 15,6 C 92 % 1009,7 hPa 0,0 l/m 1,1 km/h (1 Bft) S-SW 207 0 min 0,000 mm 0,0 UV-I 0 W/m 14,3 C 15,6 C 3,2 km/h (1 Bft) 91,30 %
11.06.2016 21:36 15,6 C 92 % 1009,7 hPa 0,0 l/m 2,2 km/h (1 Bft) S-SW 207 0 min 0,000 mm 0,0 UV-I 0 W/m 14,3 C 15,6 C 3,2 km/h (1 Bft) 100,00 %
11.06.2016 21:37 15,5 C 92 % 1009,7 hPa 0,0 l/m 1,9 km/h (1 Bft) S-SW 207 0 min 0,000 mm 0,0 UV-I 0 W/m 14,2 C 15,5 C 3,2 km/h (1 Bft) 91,30 %
11.06.2016 21:38 15,5 C 92 % 1009,7 hPa 0,0 l/m 1,8 km/h (1 Bft) S-SW 207 0 min 0,000 mm 0,0 UV-I 0 W/m 14,2 C 15,5 C 3,2 km/h (1 Bft) 100,00 %
11.06.2016 21:39 15,4 C 92 % 1009,7 hPa 0,0 l/m 1,6 km/h (1 Bft) S-SW 207 0 min 0,000 mm 0,0 UV-I 0 W/m 14,1 C 15,4 C 1,6 km/h (1 Bft) 91,30 %
11.06.2016 21:40 15,4 C 93 % 1009,7 hPa 0,0 l/m 0,4 km/h (0 Bft) S-SW 207 0 min 0,000 mm 0,0 UV-I 0 W/m 14,3 C 15,4 C 1,6 km/h (1 Bft) 100,00 %
11.06.2016 21:41 15,4 C 93 % 1009,7 hPa 0,0 l/m 0,0 km/h (0 Bft) S-SW 207 0 min 0,000 mm 0,0 UV-I 0 W/m 14,3 C 15,4 C 0,0 km/h (0 Bft) 95,65 %
11.06.2016 21:42 15,3 C 93 % 1009,8 hPa 0,0 l/m 0,0 km/h (0 Bft) S-SW 207 0 min 0,000 mm 0,0 UV-I 0 W/m 14,2 C 15,3 C 0,0 km/h (0 Bft) 95,83 %
11.06.2016 21:43 15,3 C 93 % 1009,7 hPa 0,0 l/m 0,0 km/h (0 Bft) S-SW 207 0 min 0,000 mm 0,0 UV-I 0 W/m 14,2 C 15,3 C 0,0 km/h (0 Bft) 100,00 %
11.06.2016 21:44 15,3 C 93 % 1009,8 hPa 0,0 l/m 0,0 km/h (0 Bft) S-SW 207 0 min 0,000 mm 0,0 UV-I 0 W/m 14,2 C 15,3 C 0,0 km/h (0 Bft) 95,83 %
11.06.2016 21:45 15,3 C 93 % 1009,8 hPa 0,0 l/m 0,0 km/h (0 Bft) S-SW 207 0 min 0,000 mm 0,0 UV-I 0 W/m 14,2 C 15,3 C 0,0 km/h (0 Bft) 100,00 %
11.06.2016 21:46 15,3 C 93 % 1009,8 hPa 0,0 l/m 0,0 km/h (0 Bft) S-SW 207 0 min 0,000 mm 0,0 UV-I 0 W/m 14,2 C 15,3 C 0,0 km/h (0 Bft) 95,83 %
11.06.2016 21:47 15,3 C 93 % 1009,8 hPa 0,0 l/m 0,0 km/h (0 Bft) S-SW 207 0 min 0,000 mm 0,0 UV-I 0 W/m 14,2 C 15,3 C 0,0 km/h (0 Bft) 100,00 %
11.06.2016 21:48 15,3 C 93 % 1009,8 hPa 0,0 l/m 0,0 km/h (0 Bft) S-SW 207 0 min 0,000 mm 0,0 UV-I 0 W/m 14,2 C 15,3 C 0,0 km/h (0 Bft) 95,83 %
11.06.2016 21:49 15,3 C 93 % 1009,8 hPa 0,0 l/m 0,0 km/h (0 Bft) S-SW 207 0 min 0,000 mm 0,0 UV-I 0 W/m 14,2 C 15,3 C 0,0 km/h (0 Bft) 91,30 %
11.06.2016 21:50 15,3 C 94 % 1009,8 hPa 0,0 l/m 0,0 km/h (0 Bft) S-SW 207 0 min 0,000 mm 0,0 UV-I 0 W/m 14,3 C 15,3 C 0,0 km/h (0 Bft) 95,83 %
11.06.2016 21:51 15,3 C 94 % 1009,8 hPa 0,0 l/m 0,2 km/h (0 Bft) S-SW 207 0 min 0,000 mm 0,0 UV-I 0 W/m 14,3 C 15,3 C 1,6 km/h (1 Bft) 95,65 %
11.06.2016 21:52 15,4 C 93 % 1009,8 hPa 0,0 l/m 0,5 km/h (0 Bft) S-SW 207 0 min 0,000 mm 0,0 UV-I 0 W/m 14,3 C 15,4 C 1,6 km/h (1 Bft) 100,00 %
11.06.2016 21:53 15,3 C 93 % 1009,8 hPa 0,0 l/m 1,1 km/h (1 Bft) S-SW 207 0 min 0,000 mm 0,0 UV-I 0 W/m 14,2 C 15,3 C 1,6 km/h (1 Bft) 95,83 %
11.06.2016 21:54 15,3 C 93 % 1009,8 hPa 0,0 l/m 1,2 km/h (1 Bft) S-SW 207 0 min 0,000 mm 0,0 UV-I 0 W/m 14,2 C 15,3 C 1,6 km/h (1 Bft) 100,00 %
11.06.2016 21:55 15,4 C 93 % 1009,9 hPa 0,0 l/m 1,9 km/h (1 Bft) S-SW 207 0 min 0,000 mm 0,0 UV-I 0 W/m 14,3 C 15,4 C 3,2 km/h (1 Bft) 95,83 %
11.06.2016 21:56 15,3 C 93 % 1009,9 hPa 0,0 l/m 2,6 km/h (1 Bft) S-SW 207 0 min 0,000 mm 0,0 UV-I 0 W/m 14,2 C 15,3 C 3,2 km/h (1 Bft) 95,65 %
11.06.2016 21:57 15,3 C 93 % 1009,9 hPa 0,0 l/m 3,0 km/h (1 Bft) S-SW 207 0 min 0,000 mm 0,0 UV-I 0 W/m 14,2 C 15,3 C 3,2 km/h (1 Bft) 100,00 %
11.06.2016 21:58 15,3 C 93 % 1009,9 hPa 0,0 l/m 2,5 km/h (1 Bft) S-SW 207 0 min 0,000 mm 0,0 UV-I 0 W/m 14,2 C 15,3 C 3,2 km/h (1 Bft) 100,00 %
11.06.2016 21:59 15,3 C 93 % 1009,9 hPa 0,0 l/m 2,3 km/h (1 Bft) S-SW 207 0 min 0,000 mm 0,0 UV-I 0 W/m 14,2 C 15,3 C 3,2 km/h (1 Bft) 100,00 %
11.06.2016 22:00 15,3 C 94 % 1009,9 hPa 0,0 l/m 2,4 km/h (1 Bft) S-SW 207 0 min 0,000 mm 0,0 UV-I 0 W/m 14,3 C 15,3 C 3,2 km/h (1 Bft) 95,65 %
11.06.2016 22:01 15,3 C 94 % 1009,9 hPa 0,0 l/m 2,6 km/h (1 Bft) S-SW 207 0 min 0,000 mm 0,0 UV-I 0 W/m 14,3 C 15,3 C 3,2 km/h (1 Bft) 100,00 %
11.06.2016 22:02 15,3 C 94 % 1009,9 hPa 0,0 l/m 3,3 km/h (1 Bft) S-SW 207 0 min 0,000 mm 0,0 UV-I 0 W/m 14,3 C 15,3 C 4,8 km/h (1 Bft) 95,65 %
11.06.2016 22:03 15,3 C 94 % 1009,9 hPa 0,0 l/m 2,6 km/h (1 Bft) S-SW 207 0 min 0,000 mm 0,0 UV-I 0 W/m 14,3 C 15,3 C 3,2 km/h (1 Bft) 100,00 %
11.06.2016 22:04 15,3 C 94 % 1009,9 hPa 0,0 l/m 2,5 km/h (1 Bft) S-SW 207 0 min 0,000 mm 0,0 UV-I 0 W/m 14,3 C 15,3 C 3,2 km/h (1 Bft) 95,65 %
11.06.2016 22:05 15,3 C 94 % 1009,9 hPa 0,0 l/m 2,2 km/h (1 Bft) S-SW 207 0 min 0,000 mm 0,0 UV-I 0 W/m 14,3 C 15,3 C 3,2 km/h (1 Bft) 100,00 %
11.06.2016 22:06 15,2 C 94 % 1009,9 hPa 0,0 l/m 2,7 km/h (1 Bft) S-SW 207 0 min 0,000 mm 0,0 UV-I 0 W/m 14,2 C 15,2 C 4,8 km/h (1 Bft) 100,00 %
11.06.2016 22:07 15,2 C 94 % 1009,9 hPa 0,0 l/m 1,5 km/h (1 Bft) S-SW 207 0 min 0,000 mm 0,0 UV-I 0 W/m 14,2 C 15,2 C 3,2 km/h (1 Bft) 100,00 %
11.06.2016 22:08 15,2 C 94 % 1009,9 hPa 0,0 l/m 1,0 km/h (0 Bft) S-SW 207 0 min 0,000 mm 0,0 UV-I 0 W/m 14,2 C 15,2 C 3,2 km/h (1 Bft) 100,00 %
11.06.2016 22:09 15,2 C 94 % 1009,9 hPa 0,0 l/m 0,9 km/h (0 Bft) S-SW 207 0 min 0,000 mm 0,0 UV-I 0 W/m 14,2 C 15,2 C 1,6 km/h (1 Bft) 100,00 %
11.06.2016 22:10 15,2 C 94 % 1009,9 hPa 0,0 l/m 1,3 km/h (1 Bft) S-SW 207 0 min 0,000 mm 0,0 UV-I 0 W/m 14,2 C 15,2 C 3,2 km/h (1 Bft) 95,65 %
11.06.2016 22:11 15,2 C 94 % 1009,9 hPa 0,0 l/m 3,0 km/h (1 Bft) S-SW 207 0 min 0,000 mm 0,0 UV-I 0 W/m 14,2 C 15,2 C 4,8 km/h (1 Bft) 100,00 %
11.06.2016 22:12 15,2 C 94 % 1009,9 hPa 0,0 l/m 2,4 km/h (1 Bft) S-SW 207 0 min 0,000 mm 0,0 UV-I 0 W/m 14,2 C 15,2 C 4,8 km/h (1 Bft) 100,00 %
11.06.2016 22:13 15,2 C 94 % 1009,9 hPa 0,0 l/m 2,7 km/h (1 Bft) S-SW 207 0 min 0,000 mm 0,0 UV-I 0 W/m 14,2 C 15,2 C 4,8 km/h (1 Bft) 100,00 %
11.06.2016 22:14 15,3 C 94 % 1009,9 hPa 0,0 l/m 3,0 km/h (1 Bft) S-SW 207 0 min 0,000 mm 0,0 UV-I 0 W/m 14,3 C 15,3 C 4,8 km/h (1 Bft) 100,00 %
11.06.2016 22:15 15,3 C 94 % 1009,8 hPa 0,0 l/m 2,9 km/h (1 Bft) S-SW 207 0 min 0,000 mm 0,0 UV-I 0 W/m 14,3 C 15,3 C 4,8 km/h (1 Bft) 100,00 %
11.06.2016 22:16 15,3 C 94 % 1009,9 hPa 0,0 l/m 1,2 km/h (1 Bft) S-SW 207 0 min 0,000 mm 0,0 UV-I 0 W/m 14,3 C 15,3 C 3,2 km/h (1 Bft) 100,00 %
11.06.2016 22:17 15,3 C 94 % 1009,8 hPa 0,0 l/m 0,5 km/h (0 Bft) S-SW 207 0 min 0,000 mm 0,0 UV-I 0 W/m 14,3 C 15,3 C 1,6 km/h (1 Bft) 100,00 %
11.06.2016 22:18 15,3 C 94 % 1009,8 hPa 0,0 l/m 0,4 km/h (0 Bft) S-SW 207 0 min 0,000 mm 0,0 UV-I 0 W/m 14,3 C 15,3 C 1,6 km/h (1 Bft) 100,00 %
11.06.2016 22:19 15,3 C 94 % 1009,8 hPa 0,0 l/m 0,3 km/h (0 Bft) S-SW 207 0 min 0,000 mm 0,0 UV-I 0 W/m 14,3 C 15,3 C 1,6 km/h (1 Bft) 100,00 %
11.06.2016 22:20 15,3 C 94 % 1009,8 hPa 0,0 l/m 0,5 km/h (0 Bft) S-SW 207 0 min 0,000 mm 0,0 UV-I 0 W/m 14,3 C 15,3 C 1,6 km/h (1 Bft) 100,00 %
11.06.2016 22:21 15,3 C 93 % 1009,9 hPa 0,0 l/m 0,3 km/h (0 Bft) S-SW 207 0 min 0,000 mm 0,0 UV-I 0 W/m 14,2 C 15,3 C 1,6 km/h (1 Bft) 100,00 %
11.06.2016 22:22 15,3 C 93 % 1009,8 hPa 0,0 l/m 0,2 km/h (0 Bft) S-SW 207 0 min 0,000 mm 0,0 UV-I 0 W/m 14,2 C 15,3 C 1,6 km/h (1 Bft) 100,00 %
11.06.2016 22:23 15,3 C 93 % 1009,8 hPa 0,0 l/m 0,1 km/h (0 Bft) S-SW 207 0 min 0,000 mm 0,0 UV-I 0 W/m 14,2 C 15,3 C 1,6 km/h (1 Bft) 100,00 %
11.06.2016 22:24 15,3 C 93 % 1009,8 hPa 0,0 l/m 0,1 km/h (0 Bft) S-SW 207 0 min 0,000 mm 0,0 UV-I 0 W/m 14,2 C 15,3 C 1,6 km/h (1 Bft) 100,00 %
11.06.2016 22:25 15,3 C 93 % 1009,9 hPa 0,0 l/m 1,3 km/h (1 Bft) S-SW 207 0 min 0,000 mm 0,0 UV-I 0 W/m 14,2 C 15,3 C 3,2 km/h (1 Bft) 95,65 %
11.06.2016 22:26 15,3 C 93 % 1009,9 hPa 0,0 l/m 3,0 km/h (1 Bft) S-SW 207 0 min 0,000 mm 0,0 UV-I 0 W/m 14,2 C 15,3 C 4,8 km/h (1 Bft) 100,00 %
11.06.2016 22:27 15,3 C 94 % 1009,8 hPa 0,0 l/m 2,8 km/h (1 Bft) S-SW 207 0 min 0,000 mm 0,0 UV-I 0 W/m 14,3 C 15,3 C 4,8 km/h (1 Bft) 100,00 %
11.06.2016 22:28 15,3 C 93 % 1009,8 hPa 0,0 l/m 3,2 km/h (1 Bft) S-SW 207 0 min 0,000 mm 0,0 UV-I 0 W/m 14,2 C 15,3 C 4,8 km/h (1 Bft) 100,00 %
11.06.2016 22:29 15,3 C 93 % 1009,9 hPa 0,0 l/m 3,0 km/h (1 Bft) S-SW 207 0 min 0,000 mm 0,0 UV-I 0 W/m 14,2 C 15,3 C 4,8 km/h (1 Bft) 95,65 %
11.06.2016 22:30 15,3 C 93 % 1009,8 hPa 0,0 l/m 4,4 km/h (1 Bft) S-SW 193 0 min 0,000 mm 0,0 UV-I 0 W/m 14,2 C 15,3 C 4,8 km/h (1 Bft) 100,00 %
11.06.2016 22:31 15,3 C 93 % 1009,8 hPa 0,0 l/m 3,2 km/h (1 Bft) S-SW 192 0 min 0,000 mm 0,0 UV-I 0 W/m 14,2 C 15,3 C 4,8 km/h (1 Bft) 100,00 %
11.06.2016 22:32 15,3 C 93 % 1009,9 hPa 0,0 l/m 3,4 km/h (1 Bft) S-SW 192 0 min 0,000 mm 0,0 UV-I 0 W/m 14,2 C 15,3 C 4,8 km/h (1 Bft) 100,00 %
11.06.2016 22:33 15,3 C 93 % 1009,9 hPa 0,0 l/m 3,6 km/h (1 Bft) S-SW 192 0 min 0,000 mm 0,0 UV-I 0 W/m 14,2 C 15,3 C 4,8 km/h (1 Bft) 95,65 %
11.06.2016 22:34 15,3 C 93 % 1009,9 hPa 0,0 l/m 3,0 km/h (1 Bft) S-SW 192 0 min 0,000 mm 0,0 UV-I 0 W/m 14,2 C 15,3 C 4,8 km/h (1 Bft) 100,00 %
11.06.2016 22:35 15,3 C 93 % 1009,9 hPa 0,0 l/m 1,5 km/h (1 Bft) S-SW 192 0 min 0,000 mm 0,0 UV-I 0 W/m 14,2 C 15,3 C 3,2 km/h (1 Bft) 100,00 %
11.06.2016 22:36 15,3 C 93 % 1009,9 hPa 0,0 l/m 1,0 km/h (0 Bft) S-SW 192 0 min 0,000 mm 0,0 UV-I 0 W/m 14,2 C 15,3 C 1,6 km/h (1 Bft) 100,00 %
11.06.2016 22:37 15,3 C 93 % 1009,8 hPa 0,0 l/m 1,4 km/h (1 Bft) S-SW 192 0 min 0,000 mm 0,0 UV-I 0 W/m 14,2 C 15,3 C 1,6 km/h (1 Bft) 100,00 %
11.06.2016 22:38 15,3 C 93 % 1009,9 hPa 0,0 l/m 1,3 km/h (1 Bft) S-SW 192 0 min 0,000 mm 0,0 UV-I 0 W/m 14,2 C 15,3 C 3,2 km/h (1 Bft) 96,15 %
11.06.2016 22:39 15,3 C 93 % 1009,9 hPa 0,0 l/m 2,8 km/h (1 Bft) S-SW 192 0 min 0,000 mm 0,0 UV-I 0 W/m 14,2 C 15,3 C 4,8 km/h (1 Bft) 100,00 %
11.06.2016 22:40 15,3 C 93 % 1009,8 hPa 0,0 l/m 2,4 km/h (1 Bft) S-SW 192 0 min 0,000 mm 0,0 UV-I 0 W/m 14,2 C 15,3 C 3,2 km/h (1 Bft) 100,00 %
11.06.2016 22:41 15,3 C 93 % 1009,8 hPa 0,0 l/m 2,1 km/h (1 Bft) S-SW 192 0 min 0,000 mm 0,0 UV-I 0 W/m 14,2 C 15,3 C 4,8 km/h (1 Bft) 100,00 %
11.06.2016 22:42 15,3 C 93 % 1009,9 hPa 0,0 l/m 1,9 km/h (1 Bft) S-SW 192 0 min 0,000 mm 0,0 UV-I 0 W/m 14,2 C 15,3 C 3,2 km/h (1 Bft) 100,00 %
11.06.2016 22:43 15,3 C 93 % 1009,9 hPa 0,0 l/m 1,2 km/h (1 Bft) S-SW 192 0 min 0,000 mm 0,0 UV-I 0 W/m 14,2 C 15,3 C 3,2 km/h (1 Bft) 100,00 %
11.06.2016 22:44 15,3 C 93 % 1009,9 hPa 0,0 l/m 0,2 km/h (0 Bft) S-SW 192 0 min 0,000 mm 0,0 UV-I 0 W/m 14,2 C 15,3 C 1,6 km/h (1 Bft) 90,91 %
11.06.2016 22:45 15,3 C 93 % 1009,8 hPa 0,0 l/m 0,5 km/h (0 Bft) S-SW 192 0 min 0,000 mm 0,0 UV-I 0 W/m 14,2 C 15,3 C 1,6 km/h (1 Bft) 100,00 %
11.06.2016 22:46 15,3 C 93 % 1009,8 hPa 0,0 l/m 1,5 km/h (1 Bft) S-SW 192 0 min 0,000 mm 0,0 UV-I 0 W/m 14,2 C 15,3 C 3,2 km/h (1 Bft) 100,00 %
11.06.2016 22:47 15,3 C 93 % 1009,8 hPa 0,0 l/m 0,9 km/h (0 Bft) S-SW 192 0 min 0,000 mm 0,0 UV-I 0 W/m 14,2 C 15,3 C 3,2 km/h (1 Bft) 100,00 %
11.06.2016 22:48 15,3 C 93 % 1009,8 hPa 0,0 l/m 0,3 km/h (0 Bft) S-SW 192 0 min 0,000 mm 0,0 UV-I 0 W/m 14,2 C 15,3 C 1,6 km/h (1 Bft) 100,00 %
11.06.2016 22:49 15,3 C 93 % 1009,8 hPa 0,0 l/m 0,8 km/h (0 Bft) S-SW 192 0 min 0,000 mm 0,0 UV-I 0 W/m 14,2 C 15,3 C 3,2 km/h (1 Bft) 100,00 %
11.06.2016 22:50 15,3 C 93 % 1009,8 hPa 0,0 l/m 0,6 km/h (0 Bft) S-SW 192 0 min 0,000 mm 0,0 UV-I 0 W/m 14,2 C 15,3 C 1,6 km/h (1 Bft) 100,00 %
11.06.2016 22:51 15,3 C 93 % 1009,9 hPa 0,0 l/m 2,0 km/h (1 Bft) S-SW 192 0 min 0,000 mm 0,0 UV-I 0 W/m 14,2 C 15,3 C 3,2 km/h (1 Bft) 100,00 %
11.06.2016 22:52 15,3 C 93 % 1009,9 hPa 0,0 l/m 2,0 km/h (1 Bft) S-SW 192 0 min 0,000 mm 0,0 UV-I 0 W/m 14,2 C 15,3 C 3,2 km/h (1 Bft) 100,00 %
11.06.2016 22:53 15,3 C 93 % 1009,9 hPa 0,0 l/m 1,0 km/h (0 Bft) S-SW 192 0 min 0,000 mm 0,0 UV-I 0 W/m 14,2 C 15,3 C 1,6 km/h (1 Bft) 100,00 %
11.06.2016 22:54 15,3 C 93 % 1009,9 hPa 0,0 l/m 0,9 km/h (0 Bft) S-SW 192 0 min 0,000 mm 0,0 UV-I 0 W/m 14,2 C 15,3 C 3,2 km/h (1 Bft) 100,00 %
11.06.2016 22:55 15,3 C 93 % 1009,9 hPa 0,0 l/m 1,1 km/h (1 Bft) S-SW 192 0 min 0,000 mm 0,0 UV-I 0 W/m 14,2 C 15,3 C 3,2 km/h (1 Bft) 96,15 %
11.06.2016 22:56 15,3 C 93 % 1009,9 hPa 0,0 l/m 0,5 km/h (0 Bft) S-SW 192 0 min 0,000 mm 0,0 UV-I 0 W/m 14,2 C 15,3 C 1,6 km/h (1 Bft) 100,00 %
11.06.2016 22:57 15,3 C 93 % 1009,9 hPa 0,0 l/m 0,3 km/h (0 Bft) S-SW 192 0 min 0,000 mm 0,0 UV-I 0 W/m 14,2 C 15,3 C 1,6 km/h (1 Bft) 100,00 %
11.06.2016 22:58 15,3 C 93 % 1009,9 hPa 0,0 l/m 0,9 km/h (0 Bft) S-SW 192 0 min 0,000 mm 0,0 UV-I 0 W/m 14,2 C 15,3 C 1,6 km/h (1 Bft) 100,00 %
11.06.2016 22:59 15,3 C 93 % 1009,9 hPa 0,0 l/m 0,8 km/h (0 Bft) S-SW 192 0 min 0,000 mm 0,0 UV-I 0 W/m 14,2 C 15,3 C 1,6 km/h (1 Bft) 100,00 %
11.06.2016 23:00 15,3 C 93 % 1009,9 hPa 0,0 l/m 1,3 km/h (1 Bft) S-SW 192 0 min 0,000 mm 0,0 UV-I 0 W/m 14,2 C 15,3 C 3,2 km/h (1 Bft) 95,83 %
11.06.2016 23:01 15,3 C 93 % 1009,9 hPa 0,0 l/m 0,4 km/h (0 Bft) S-SW 192 0 min 0,000 mm 0,0 UV-I 0 W/m 14,2 C 15,3 C 1,6 km/h (1 Bft) 100,00 %
11.06.2016 23:02 15,3 C 93 % 1009,9 hPa 0,0 l/m 0,5 km/h (0 Bft) S-SW 192 0 min 0,000 mm 0,0 UV-I 0 W/m 14,2 C 15,3 C 1,6 km/h (1 Bft) 100,00 %
11.06.2016 23:03 15,3 C 93 % 1009,9 hPa 0,0 l/m 1,5 km/h (1 Bft) S-SW 192 0 min 0,000 mm 0,0 UV-I 0 W/m 14,2 C 15,3 C 4,8 km/h (1 Bft) 100,00 %
11.06.2016 23:04 15,3 C 93 % 1009,9 hPa 0,0 l/m 2,4 km/h (1 Bft) S-SW 192 0 min 0,000 mm 0,0 UV-I 0 W/m 14,2 C 15,3 C 3,2 km/h (1 Bft) 100,00 %
11.06.2016 23:05 15,3 C 93 % 1009,9 hPa 0,0 l/m 2,3 km/h (1 Bft) S-SW 192 0 min 0,000 mm 0,0 UV-I 0 W/m 14,2 C 15,3 C 3,2 km/h (1 Bft) 95,65 %
11.06.2016 23:06 15,3 C 93 % 1009,9 hPa 0,0 l/m 1,7 km/h (1 Bft) S-SW 192 0 min 0,000 mm 0,0 UV-I 0 W/m 14,2 C 15,3 C 3,2 km/h (1 Bft) 100,00 %
11.06.2016 23:07 15,3 C 93 % 1009,9 hPa 0,0 l/m 2,5 km/h (1 Bft) S-SW 192 0 min 0,000 mm 0,0 UV-I 0 W/m 14,2 C 15,3 C 3,2 km/h (1 Bft) 100,00 %
11.06.2016 23:08 15,3 C 93 % 1010,0 hPa 0,0 l/m 2,3 km/h (1 Bft) S-SW 192 0 min 0,000 mm 0,0 UV-I 0 W/m 14,2 C 15,3 C 3,2 km/h (1 Bft) 100,00 %
11.06.2016 23:09 15,3 C 93 % 1010,0 hPa 0,0 l/m 1,3 km/h (1 Bft) S-SW 192 0 min 0,000 mm 0,0 UV-I 0 W/m 14,2 C 15,3 C 3,2 km/h (1 Bft) 95,65 %
11.06.2016 23:10 15,3 C 93 % 1010,0 hPa 0,0 l/m 1,5 km/h (1 Bft) S-SW 192 0 min 0,000 mm 0,0 UV-I 0 W/m 14,2 C 15,3 C 3,2 km/h (1 Bft) 100,00 %
11.06.2016 23:13 15,3 C 93 % 1009,9 hPa 0,0 l/m 1,3 km/h (1 Bft) S-SW 192 0 min 0,000 mm 0,0 UV-I 0 W/m 14,2 C 15,3 C 3,2 km/h (1 Bft) 100,00 %
11.06.2016 23:15 15,3 C 94 % 1010,0 hPa 0,0 l/m 1,1 km/h (1 Bft) S-SW 192 0 min 0,000 mm 0,0 UV-I 0 W/m 14,3 C 15,3 C 3,2 km/h (1 Bft) 100,00 %
11.06.2016 23:16 15,3 C 94 % 1010,0 hPa 0,0 l/m 1,9 km/h (1 Bft) S-SW 192 0 min 0,000 mm 0,0 UV-I 0 W/m 14,3 C 15,3 C 3,2 km/h (1 Bft) 100,00 %
11.06.2016 23:17 15,3 C 94 % 1010,1 hPa 0,0 l/m 1,7 km/h (1 Bft) S-SW 192 0 min 0,000 mm 0,0 UV-I 0 W/m 14,3 C 15,3 C 3,2 km/h (1 Bft) 100,00 %
11.06.2016 23:18 15,3 C 94 % 1010,0 hPa 0,0 l/m 2,3 km/h (1 Bft) S-SW 192 0 min 0,000 mm 0,0 UV-I 0 W/m 14,3 C 15,3 C 3,2 km/h (1 Bft) 100,00 %
11.06.2016 23:19 15,3 C 94 % 1010,0 hPa 0,0 l/m 1,7 km/h (1 Bft) S-SW 192 0 min 0,000 mm 0,0 UV-I 0 W/m 14,3 C 15,3 C 3,2 km/h (1 Bft) 95,83 %
11.06.2016 23:20 15,3 C 94 % 1010,0 hPa 0,0 l/m 1,9 km/h (1 Bft) S-SW 192 0 min 0,000 mm 0,0 UV-I 0 W/m 14,3 C 15,3 C 3,2 km/h (1 Bft) 100,00 %
11.06.2016 23:21 15,3 C 94 % 1010,0 hPa 0,0 l/m 4,2 km/h (1 Bft) S-SW 200 0 min 0,000 mm 0,0 UV-I 0 W/m 14,3 C 15,3 C 6,4 km/h (2 Bft) 95,65 %
11.06.2016 23:22 15,3 C 94 % 1010,0 hPa 0,0 l/m 3,6 km/h (1 Bft) S-SW 200 0 min 0,000 mm 0,0 UV-I 0 W/m 14,3 C 15,3 C 4,8 km/h (1 Bft) 100,00 %
11.06.2016 23:23 15,3 C 94 % 1010,0 hPa 0,0 l/m 3,5 km/h (1 Bft) S-SW 200 0 min 0,000 mm 0,0 UV-I 0 W/m 14,3 C 15,3 C 4,8 km/h (1 Bft) 90,91 %
11.06.2016 23:24 15,3 C 94 % 1010,0 hPa 0,0 l/m 2,3 km/h (1 Bft) S-SW 200 0 min 0,000 mm 0,0 UV-I 0 W/m 14,3 C 15,3 C 3,2 km/h (1 Bft) 96,15 %
11.06.2016 23:25 15,3 C 94 % 1010,0 hPa 0,0 l/m 2,4 km/h (1 Bft) S-SW 200 0 min 0,000 mm 0,0 UV-I 0 W/m 14,3 C 15,3 C 4,8 km/h (1 Bft) 100,00 %
11.06.2016 23:26 15,3 C 94 % 1010,0 hPa 0,0 l/m 3,0 km/h (1 Bft) S-SW 200 0 min 0,000 mm 0,0 UV-I 0 W/m 14,3 C 15,3 C 3,2 km/h (1 Bft) 100,00 %
11.06.2016 23:27 15,3 C 94 % 1010,0 hPa 0,0 l/m 0,8 km/h (0 Bft) S-SW 200 0 min 0,000 mm 0,0 UV-I 0 W/m 14,3 C 15,3 C 3,2 km/h (1 Bft) 96,67 %
11.06.2016 23:28 15,3 C 94 % 1010,0 hPa 0,0 l/m 1,9 km/h (1 Bft) S-SW 200 0 min 0,000 mm 0,0 UV-I 0 W/m 14,3 C 15,3 C 3,2 km/h (1 Bft) 95,65 %
11.06.2016 23:29 15,3 C 94 % 1010,0 hPa 0,0 l/m 3,6 km/h (1 Bft) S-SW 200 0 min 0,000 mm 0,0 UV-I 0 W/m 14,3 C 15,3 C 4,8 km/h (1 Bft) 100,00 %
11.06.2016 23:30 15,3 C 94 % 1010,0 hPa 0,0 l/m 1,0 km/h (0 Bft) S-SW 200 0 min 0,000 mm 0,0 UV-I 0 W/m 14,3 C 15,3 C 3,2 km/h (1 Bft) 95,65 %
11.06.2016 23:31 15,3 C 94 % 1010,0 hPa 0,0 l/m 1,6 km/h (1 Bft) S-SW 200 0 min 0,000 mm 0,0 UV-I 0 W/m 14,3 C 15,3 C 3,2 km/h (1 Bft) 100,00 %
11.06.2016 23:32 15,3 C 94 % 1010,0 hPa 0,0 l/m 1,1 km/h (1 Bft) S-SW 200 0 min 0,000 mm 0,0 UV-I 0 W/m 14,3 C 15,3 C 3,2 km/h (1 Bft) 96,15 %
11.06.2016 23:33 15,3 C 94 % 1010,0 hPa 0,0 l/m 1,3 km/h (1 Bft) S-SW 200 0 min 0,000 mm 0,0 UV-I 0 W/m 14,3 C 15,3 C 3,2 km/h (1 Bft) 100,00 %
11.06.2016 23:34 15,3 C 94 % 1010,0 hPa 0,0 l/m 1,7 km/h (1 Bft) S-SW 200 0 min 0,000 mm 0,0 UV-I 0 W/m 14,3 C 15,3 C 3,2 km/h (1 Bft) 98,46 %
11.06.2016 23:35 15,3 C 94 % 1010,0 hPa 0,0 l/m 2,5 km/h (1 Bft) S-SW 200 0 min 0,000 mm 0,0 UV-I 0 W/m 14,3 C 15,3 C 3,2 km/h (1 Bft) 97,56 %
11.06.2016 23:36 15,3 C 94 % 1010,0 hPa 0,0 l/m 2,4 km/h (1 Bft) S-SW 200 0 min 0,000 mm 0,0 UV-I 0 W/m 14,3 C 15,3 C 3,2 km/h (1 Bft) 96,15 %
11.06.2016 23:37 15,2 C 93 % 1010,0 hPa 0,0 l/m 2,7 km/h (1 Bft) S-SW 200 0 min 0,000 mm 0,0 UV-I 0 W/m 14,1 C 15,2 C 4,8 km/h (1 Bft) 96,67 %
11.06.2016 23:38 15,3 C 93 % 1010,0 hPa 0,0 l/m 3,1 km/h (1 Bft) S-SW 200 0 min 0,000 mm 0,0 UV-I 0 W/m 14,2 C 15,3 C 4,8 km/h (1 Bft) 100,00 %
11.06.2016 23:39 15,2 C 93 % 1010,0 hPa 0,0 l/m 3,8 km/h (1 Bft) S-SW 199 0 min 0,000 mm 0,0 UV-I 0 W/m 14,1 C 15,2 C 4,8 km/h (1 Bft) 96,55 %
11.06.2016 23:40 15,2 C 93 % 1010,1 hPa 0,0 l/m 3,1 km/h (1 Bft) S-SW 196 0 min 0,000 mm 0,0 UV-I 0 W/m 14,1 C 15,2 C 4,8 km/h (1 Bft) 100,00 %
11.06.2016 23:41 15,2 C 93 % 1010,0 hPa 0,0 l/m 1,4 km/h (1 Bft) S-SW 192 0 min 0,000 mm 0,0 UV-I 0 W/m 14,1 C 15,2 C 3,2 km/h (1 Bft) 96,15 %
11.06.2016 23:42 15,2 C 93 % 1010,1 hPa 0,0 l/m 2,3 km/h (1 Bft) S 191 0 min 0,000 mm 0,0 UV-I 0 W/m 14,1 C 15,2 C 4,8 km/h (1 Bft) 100,00 %
11.06.2016 23:43 15,2 C 93 % 1010,1 hPa 0,0 l/m 2,2 km/h (1 Bft) S 191 0 min 0,000 mm 0,0 UV-I 0 W/m 14,1 C 15,2 C 3,2 km/h (1 Bft) 91,30 %
11.06.2016 23:44 15,2 C 93 % 1010,1 hPa 0,0 l/m 3,8 km/h (1 Bft) S 186 0 min 0,000 mm 0,0 UV-I 0 W/m 14,1 C 15,2 C 6,4 km/h (2 Bft) 100,00 %
11.06.2016 23:45 15,2 C 93 % 1010,1 hPa 0,0 l/m 2,9 km/h (1 Bft) S 182 0 min 0,000 mm 0,0 UV-I 0 W/m 14,1 C 15,2 C 4,8 km/h (1 Bft) 95,65 %
11.06.2016 23:46 15,2 C 93 % 1010,1 hPa 0,0 l/m 4,0 km/h (1 Bft) S 182 0 min 0,000 mm 0,0 UV-I 0 W/m 14,1 C 15,2 C 4,8 km/h (1 Bft) 96,30 %
11.06.2016 23:47 15,2 C 93 % 1010,1 hPa 0,0 l/m 2,9 km/h (1 Bft) S 183 0 min 0,000 mm 0,0 UV-I 0 W/m 14,1 C 15,2 C 4,8 km/h (1 Bft) 100,00 %
11.06.2016 23:48 15,2 C 93 % 1010,1 hPa 0,0 l/m 4,0 km/h (1 Bft) S 182 0 min 0,000 mm 0,0 UV-I 0 W/m 14,1 C 15,2 C 4,8 km/h (1 Bft) 96,30 %
11.06.2016 23:49 15,2 C 93 % 1010,1 hPa 0,0 l/m 2,0 km/h (1 Bft) S 182 0 min 0,000 mm 0,0 UV-I 0 W/m 14,1 C 15,2 C 3,2 km/h (1 Bft) 100,00 %
11.06.2016 23:50 15,2 C 93 % 1010,1 hPa 0,0 l/m 2,9 km/h (1 Bft) S 182 0 min 0,000 mm 0,0 UV-I 0 W/m 14,1 C 15,2 C 3,2 km/h (1 Bft) 91,67 %
11.06.2016 23:51 15,2 C 93 % 1010,1 hPa 0,0 l/m 3,2 km/h (1 Bft) S 186 0 min 0,000 mm 0,0 UV-I 0 W/m 14,1 C 15,2 C 4,8 km/h (1 Bft) 100,00 %
11.06.2016 23:52 15,2 C 93 % 1010,1 hPa 0,0 l/m 4,0 km/h (1 Bft) S 186 0 min 0,000 mm 0,0 UV-I 0 W/m 14,1 C 15,2 C 4,8 km/h (1 Bft) 88,89 %
11.06.2016 23:53 15,2 C 93 % 1010,1 hPa 0,0 l/m 2,0 km/h (1 Bft) S 182 0 min 0,000 mm 0,0 UV-I 0 W/m 14,1 C 15,2 C 3,2 km/h (1 Bft) 95,65 %
11.06.2016 23:54 15,2 C 93 % 1010,1 hPa 0,0 l/m 3,8 km/h (1 Bft) S 180 0 min 0,000 mm 0,0 UV-I 0 W/m 14,1 C 15,2 C 4,8 km/h (1 Bft) 100,00 %
11.06.2016 23:55 15,2 C 93 % 1010,1 hPa 0,0 l/m 2,9 km/h (1 Bft) S 180 0 min 0,000 mm 0,0 UV-I 0 W/m 14,1 C 15,2 C 3,2 km/h (1 Bft) 100,00 %
11.06.2016 23:56 15,2 C 93 % 1010,1 hPa 0,0 l/m 1,6 km/h (1 Bft) S 180 0 min 0,000 mm 0,0 UV-I 0 W/m 14,1 C 15,2 C 3,2 km/h (1 Bft) 100,00 %
11.06.2016 23:57 15,2 C 93 % 1010,1 hPa 0,0 l/m 2,4 km/h (1 Bft) S 180 0 min 0,000 mm 0,0 UV-I 0 W/m 14,1 C 15,2 C 3,2 km/h (1 Bft) 100,00 %
11.06.2016 23:58 15,2 C 93 % 1010,0 hPa 0,0 l/m 1,8 km/h (1 Bft) S 180 0 min 0,000 mm 0,0 UV-I 0 W/m 14,1 C 15,2 C 3,2 km/h (1 Bft) 100,00 %
11.06.2016 23:59 15,2 C 93 % 1010,1 hPa 0,0 l/m 2,9 km/h (1 Bft) S 180 0 min 0,000 mm 0,0 UV-I 0 W/m 14,1 C 15,2 C 3,2 km/h (1 Bft) 100,00 %
_ Min-Zeit 05:50 12:39 05:47 - 04:55 - - - - - - 05:09 05:50 04:55 17:39
Minimum _ 11,1 C 49 % 1008,1 hPa - 0,0 km/h (0 Bft) - - - - - - 9,6 C 11,1 C 0,0 km/h (0 Bft) 79,17 %
_ Max-Zeit 12:35 21:50 23:17 16:18 15:39 - - 14:00 13:00 11:56 11:56 11:58 12:35 15:38 00:00
Maximum _ 21,5 C 94 % 1010,1 hPa 0,2 l/m 18,5 km/h
W-SW (3 Bft)
- - 5 min 0,432 mm 6,2 UV-I 983 W/m 16,2 C 21,5 C 22,5 km/h
W-SW (4 Bft)
100,00 %
Durchschnitt _ 16,0 C 83 % 1009,0 hPa #1,0 l/m 3,5 km/h (1 Bft) S-SW - #4:08 h #2,464 mm 2,4 UV-I 251 W/m 12,9 C 15,8 C 5,5 km/h (1 Bft) 98,46 %